GFSGBSN_850_thetae_000.txt.gz
Theta_e
304 305 306 306 306 306 307 307 307 307 308 308 308 308 308 309 310 312 313 315 316 317 317 318 318 318 318 320 322 321 319 321 321 321 320 320 323 323 328 328 328 328 328 337 340 341 341
304 304 304 304 304 305 306 306 307 307 308 308 308 308 309 309 309 310 312 313 315 317 318 319 318 318 318 317 323 321 321 322 322 321 320 322 323 324 329 329 326 328 335 338 340 339 341
305 305 305 305 304 304 304 305 306 306 307 308 308 308 309 310 310 310 311 312 313 316 318 319 319 319 320 322 326 324 322 324 324 320 320 322 325 328 328 327 328 337 337 337 338 340 345
305 305 305 305 305 305 305 305 305 305 306 307 307 308 308 309 310 311 311 312 313 315 317 319 320 323 325 326 328 323 321 324 324 323 321 322 323 322 325 328 334 335 336 340 338 340 344
304 304 304 304 304 305 305 305 305 305 305 306 307 307 308 309 309 310 312 312 313 314 316 320 324 325 325 326 325 327 322 325 324 322 322 322 321 323 325 324 333 332 339 339 341 339 342
302 302 302 303 303 303 303 304 304 305 305 306 306 306 308 308 309 310 312 312 313 316 322 327 327 325 325 326 327 326 327 327 324 321 322 322 321 320 318 323 337 337 340 337 342 338 341
301 301 301 301 301 301 302 302 303 304 304 305 305 306 307 307 308 309 311 312 317 319 317 321 321 324 325 324 324 326 327 327 324 319 316 318 318 319 322 322 327 332 337 341 340 338 340
301 300 300 301 301 301 301 302 302 302 302 304 304 305 306 307 308 308 310 312 315 313 311 318 319 318 320 320 323 324 325 326 322 319 317 319 318 318 321 324 326 333 332 337 334 336 340
301 300 300 301 301 301 301 301 301 301 302 302 303 304 305 306 308 309 309 310 311 310 311 316 318 318 320 320 321 323 324 325 319 318 316 316 319 320 325 325 325 326 326 326 336 338 341
301 300 300 301 301 301 301 301 301 301 301 302 302 303 304 306 308 308 309 309 309 309 314 317 320 322 322 322 323 321 324 326 318 318 316 316 318 322 324 327 325 326 324 327 334 338 339
302 300 300 300 300 301 301 301 301 301 301 302 302 302 303 303 304 307 307 307 309 316 320 320 323 325 323 323 322 323 324 325 322 319 317 318 319 321 326 326 325 327 325 327 332 334 337
303 301 300 300 300 300 300 301 301 301 301 301 302 302 302 304 305 307 308 310 313 315 320 320 325 322 322 323 322 323 325 326 326 320 317 319 320 320 321 325 327 324 322 322 323 328 334
304 301 300 300 300 300 301 300 300 301 301 302 302 302 303 303 306 306 306 307 314 316 318 320 321 320 320 320 322 322 321 320 321 320 319 320 319 322 324 324 325 321 322 324 327 333 333
306 304 302 303 302 302 301 300 300 301 301 301 302 302 304 305 306 306 305 307 316 317 317 317 320 318 320 319 320 322 319 322 319 318 317 318 319 320 322 323 323 322 322 323 326 328 335
305 304 304 303 303 304 303 300 300 300 300 301 302 303 305 306 310 308 307 307 312 317 320 321 318 320 320 319 321 321 320 319 320 316 319 316 318 320 322 323 323 322 322 321 321 322 325
305 304 303 304 304 304 303 302 299 299 300 300 301 302 306 311 315 309 307 306 309 315 318 315 319 319 320 319 319 319 320 320 319 318 316 317 320 318 321 324 322 322 320 324 318 326 329
303 303 303 303 303 303 303 303 300 299 299 300 300 303 305 315 312 309 305 305 309 313 313 313 317 318 318 318 319 319 319 320 321 321 315 316 316 319 320 321 322 323 322 319 319 320 324
304 303 303 303 303 303 303 304 303 299 299 299 300 299 309 311 311 306 306 306 311 312 314 315 315 315 315 317 316 317 318 319 321 319 318 315 317 319 318 320 321 322 321 321 325 322 320
305 303 303 302 301 302 303 303 302 302 299 298 301 302 306 311 311 310 309 313 315 318 318 319 316 314 315 317 319 316 317 319 321 320 320 316 314 319 319 318 321 322 321 318 317 318 322
303 302 303 302 302 302 302 302 302 302 300 299 303 303 311 311 309 307 306 308 313 316 317 318 318 318 317 319 317 318 322 325 328 327 331 327 314 319 322 320 320 324 324 321 320 321 322
303 303 303 302 301 302 302 302 303 302 300 299 305 305 308 308 309 308 306 308 313 315 315 317 317 318 319 318 321 318 319 322 327 329 324 315 319 317 322 318 322 323 324 323 323 322 325
303 303 302 301 302 302 302 301 302 302 301 302 306 308 307 308 309 305 308 309 313 313 313 314 317 320 319 319 321 323 323 325 328 330 327 315 318 315 322 319 320 322 322 325 324 324 323
302 302 301 301 302 301 301 301 302 302 302 301 302 303 305 308 308 308 307 310 311 312 313 313 314 316 321 323 319 323 325 324 328 327 330 324 316 316 321 319 319 321 322 322 324 323 324
301 301 301 302 302 301 301 302 301 301 302 301 301 301 305 307 310 311 310 311 311 311 311 311 311 312 321 319 321 323 322 322 322 323 327 331 319 315 322 321 323 322 326 323 326 332 331
300 300 300 300 302 302 300 302 301 300 302 302 301 301 304 307 309 309 310 309 308 308 307 311 312 315 315 317 320 324 326 327 328 330 329 326 318 321 320 319 323 333 332 332 332 333 330
300 300 300 300 301 301 300 301 301 300 301 302 302 302 301 303 306 308 308 309 308 306 306 308 310 311 321 316 321 324 329 329 332 330 327 327 324 325 322 324 331 330 330 331 330 333 329
301 301 301 301 301 301 301 301 301 301 301 301 302 301 303 304 305 306 307 307 308 307 307 307 308 311 320 319 322 323 325 326 333 333 334 332 333 333 330 331 330 331 329 331 333 330 328
302 301 301 300 301 301 301 300 301 302 302 301 302 301 301 302 304 305 305 307 307 306 308 308 310 316 318 324 324 324 323 326 330 329 331 332 337 337 332 334 336 329 331 331 331 329 331
302 301 301 301 300 301 300 299 301 301 301 301 302 302 301 302 304 305 305 305 306 307 307 307 307 307 317 317 319 321 327 325 327 336 330 335 335 336 332 332 328 327 327 329 330 328 327

GFSGBSN_850_thetae_003.txt.gz
Theta_e
305 305 305 305 305 305 305 305 305 306 307 308 308 308 309 309 310 310 310 311 311 313 315 317 318 318 319 318 320 321 321 320 319 320 320 322 322 323 325 328 329 332 332 336 338 342 344
305 305 305 305 305 305 305 305 305 305 306 307 307 308 308 309 310 310 311 311 311 312 314 316 318 318 318 320 320 323 322 321 322 320 321 321 323 323 325 331 332 329 332 334 340 342 343
305 305 304 304 304 305 305 305 305 305 305 306 306 307 307 308 309 310 311 312 312 312 314 315 316 318 320 320 321 323 326 324 323 322 321 321 322 325 328 330 327 338 341 341 341 342 345
303 303 303 304 304 304 304 304 304 305 305 305 306 306 307 308 309 309 310 312 312 312 313 315 316 320 322 320 324 328 325 321 324 322 321 321 324 324 325 328 336 340 342 344 343 344 345
302 302 301 302 302 302 303 303 303 303 304 304 305 306 307 308 308 309 310 312 313 313 313 315 321 323 326 324 326 326 326 322 322 323 322 321 323 324 325 331 339 340 342 344 345 344 347
303 302 301 301 301 301 302 302 302 303 303 304 304 305 306 307 307 309 309 312 313 313 318 323 325 326 324 325 327 325 326 324 322 322 322 321 322 324 326 332 335 340 343 344 345 344 347
303 302 301 301 301 301 301 302 301 302 302 303 304 305 306 306 306 308 309 312 314 316 315 319 321 323 323 323 324 324 326 325 321 320 323 321 323 323 326 330 334 338 342 343 344 342 345
305 303 301 301 301 301 301 301 301 301 302 302 302 303 305 306 306 307 309 307 309 310 311 315 316 316 317 318 320 321 324 325 323 324 319 321 321 324 326 328 329 340 342 343 342 342 344
307 305 302 300 300 300 301 301 301 302 302 302 302 302 303 305 307 309 307 309 312 308 310 313 315 316 320 318 319 320 321 324 325 326 322 321 321 322 326 328 328 333 339 342 343 340 343
308 307 305 302 300 300 300 301 301 301 301 302 302 302 303 304 306 306 309 308 307 308 317 320 320 322 322 321 322 321 321 325 322 327 323 323 321 322 325 328 330 332 335 339 343 343 346
308 307 306 304 301 300 300 301 301 301 301 301 301 302 302 302 303 305 305 307 308 313 321 321 322 323 322 324 321 323 322 324 326 324 323 323 320 322 324 326 329 333 331 335 340 342 341
308 308 307 305 302 301 300 301 301 301 301 301 301 302 301 302 304 306 306 306 313 320 320 322 325 323 323 324 324 323 323 324 325 325 321 324 321 322 324 327 329 328 330 331 335 337 338
307 307 307 306 305 303 301 300 300 300 300 301 301 302 302 302 304 305 305 306 317 320 319 321 323 322 322 323 324 323 324 325 327 328 328 326 324 322 322 325 329 329 331 333 334 337 336
305 305 306 305 304 303 303 302 301 300 300 301 301 302 303 303 304 305 305 311 316 318 319 319 321 321 321 321 323 323 325 325 327 328 328 328 326 325 324 324 327 329 331 334 336 336 334
305 304 305 304 303 303 302 302 302 300 300 300 301 303 304 305 307 310 307 309 313 316 321 323 322 321 321 321 321 323 324 325 325 326 327 326 327 323 323 326 328 329 331 331 333 329 333
305 304 304 304 304 303 304 303 303 304 301 300 301 302 304 310 313 312 309 309 311 317 320 317 320 321 322 321 321 322 324 324 326 326 328 325 325 323 324 324 326 328 329 330 330 337 336
305 304 305 304 303 303 301 303 303 303 301 300 300 301 304 314 313 308 311 309 310 312 316 316 317 319 321 319 320 321 322 323 322 324 326 327 324 322 323 324 325 326 328 329 331 331 335
305 305 304 304 303 303 302 302 303 302 302 301 299 302 306 310 313 310 311 310 310 313 312 314 316 318 318 318 318 319 321 323 322 322 323 325 326 326 324 324 324 326 328 330 332 334 331
304 304 304 303 303 303 301 302 302 302 302 301 302 301 303 309 312 314 313 313 314 316 317 318 316 317 318 318 318 320 321 322 322 323 327 322 325 327 327 326 324 325 326 328 330 331 337
304 304 304 304 303 302 302 303 303 302 302 301 302 305 307 310 308 311 312 313 313 314 317 318 319 320 321 322 322 323 322 324 326 324 324 326 329 329 328 327 326 325 326 327 328 331 331
304 304 303 303 303 302 302 303 302 302 302 301 303 306 308 313 312 313 310 310 311 313 315 315 320 320 321 322 322 322 322 322 322 324 330 330 330 330 331 329 326 325 324 327 329 331 332
302 302 303 303 302 302 302 302 302 302 302 301 304 307 305 307 308 311 310 311 313 314 314 315 317 318 319 322 322 323 324 325 327 330 333 324 333 325 327 328 327 326 325 326 328 328 330
302 301 302 302 301 302 303 303 302 302 302 301 301 301 303 304 308 309 311 311 312 311 313 313 314 314 315 318 318 318 320 323 327 330 335 337 333 335 331 326 325 327 327 327 329 330 330
301 301 301 302 301 301 302 303 302 302 301 301 301 300 302 304 306 308 310 310 311 311 311 311 311 312 313 313 315 320 318 321 324 328 328 338 339 330 334 329 330 326 327 327 327 328 329
302 302 301 300 300 301 302 302 303 303 302 301 302 300 301 303 304 306 308 310 310 310 309 309 310 310 311 312 320 326 328 328 328 328 330 334 333 333 332 331 331 330 332 328 326 328 335
302 302 302 302 302 301 302 302 301 302 302 301 302 302 300 301 301 302 307 308 309 310 309 308 308 308 315 320 324 329 328 326 331 334 330 332 333 334 335 335 334 337 335 333 335 333 334
301 302 302 302 302 301 302 302 302 302 302 302 302 302 301 302 301 302 304 306 307 308 309 308 308 310 317 325 326 328 329 329 331 333 334 338 337 335 339 338 334 336 334 333 336 337 333
302 302 302 301 301 301 301 301 300 301 302 302 302 301 302 302 301 301 303 305 307 307 308 307 308 313 321 329 329 329 328 330 333 334 335 335 337 340 340 341 338 331 335 338 336 332 333
301 302 301 301 301 302 301 302 301 301 301 301 301 301 302 302 301 302 301 303 304 305 306 306 307 306 311 318 323 325 333 332 336 334 332 336 334 337 337 339 331 328 331 333 333 332 333

GFSGBSN_850_thetae_006.txt.gz
Theta_e
306 305 305 305 305 305 305 305 306 306 306 307 307 308 309 309 309 309 310 311 311 312 313 315 317 317 316 322 322 321 321 321 320 320 324 325 324 326 328 330 330 333 334 333 335 339 341
304 304 304 305 304 304 304 304 305 305 306 306 306 307 308 308 309 310 310 311 311 312 312 313 315 315 315 322 321 320 323 322 327 324 323 323 324 324 327 329 332 333 333 334 334 339 342
303 302 302 302 302 303 303 303 303 304 305 305 306 306 307 308 309 309 310 310 311 312 312 312 314 314 317 321 321 320 321 326 329 326 324 323 323 324 326 330 330 332 336 340 340 341 345
306 304 303 303 302 302 302 302 302 302 303 304 305 306 307 307 307 309 309 311 312 312 313 312 313 316 323 323 320 323 327 326 323 328 325 324 323 324 326 330 332 334 337 341 343 344 346
308 307 304 302 302 302 302 302 302 302 302 303 304 305 306 306 307 308 309 311 312 313 313 313 317 321 326 325 325 327 327 325 324 325 324 323 323 325 327 331 335 337 339 339 346 345 348
308 308 306 303 302 301 302 302 302 302 302 302 302 303 305 306 306 308 309 311 312 313 315 319 323 327 326 325 328 326 328 324 324 326 324 323 324 327 329 332 336 338 339 339 341 347 348
309 308 307 306 304 301 301 301 301 302 302 302 302 303 304 305 306 307 309 310 319 322 320 323 323 326 324 324 325 326 327 323 323 325 325 323 325 326 330 332 334 336 339 340 340 346 348
309 309 308 307 306 304 302 301 301 302 302 303 302 302 303 304 305 307 308 310 312 310 314 316 316 317 319 321 321 322 325 326 324 326 325 324 324 326 328 331 333 336 337 339 340 345 346
309 309 308 308 307 305 303 302 301 301 301 302 302 302 303 304 305 308 307 311 309 308 314 318 317 317 319 318 321 322 324 326 327 326 325 325 324 326 327 329 332 335 337 338 342 345 345
309 308 308 308 308 306 304 303 301 301 301 301 302 302 302 304 307 305 311 308 307 308 319 323 322 323 322 323 324 323 323 325 326 326 326 324 325 325 325 328 332 335 335 337 340 344 346
309 308 308 308 308 308 306 305 302 301 301 301 301 302 302 301 302 306 308 306 306 312 323 324 324 324 325 326 326 325 323 323 326 327 327 326 324 324 324 326 330 334 335 336 337 342 343
308 307 307 307 307 307 306 304 303 302 301 301 301 302 302 303 303 305 305 305 312 322 323 323 325 326 326 326 326 325 323 324 324 326 327 327 325 325 325 326 328 332 334 336 337 338 343
307 306 306 306 306 306 304 304 303 302 302 302 302 302 302 302 306 303 304 309 318 321 322 323 324 326 326 325 326 327 326 325 327 329 328 326 325 324 324 326 327 331 335 339 340 340 341
308 307 306 305 305 304 304 304 303 302 301 302 303 303 304 304 303 303 305 312 317 320 321 323 324 325 325 325 325 326 326 325 326 328 329 328 326 325 325 325 329 330 334 337 340 338 338
308 308 306 305 305 305 303 304 301 302 302 301 302 304 305 304 305 307 310 312 317 318 320 320 322 323 325 325 323 326 326 327 326 327 329 329 328 326 325 326 327 331 334 334 336 337 337
307 307 306 306 305 305 304 303 302 302 303 301 301 304 306 307 308 312 312 312 315 316 319 322 322 323 323 324 324 325 326 326 327 327 329 329 330 328 327 326 327 329 332 334 336 342 340
307 306 305 304 304 303 303 303 301 303 302 302 304 305 307 308 314 314 314 313 314 314 315 319 320 321 322 323 324 325 325 326 326 327 329 329 329 328 327 326 326 328 330 333 335 335 337
305 305 304 305 305 304 304 303 302 303 303 304 304 307 307 313 315 314 315 315 314 315 313 315 318 319 320 322 324 324 324 325 326 327 329 330 330 330 326 326 326 328 329 333 335 339 336
304 304 305 305 305 304 304 303 303 303 302 303 305 304 305 307 311 312 315 314 315 315 315 315 315 317 319 320 322 322 323 322 322 326 329 330 331 332 331 326 326 326 328 330 332 335 342
304 304 304 304 304 303 303 303 302 303 302 303 304 307 307 311 309 312 314 315 316 314 315 316 317 317 317 319 320 321 323 322 323 324 327 330 329 331 331 331 328 327 326 327 329 335 335
302 302 302 302 302 303 303 303 303 303 302 303 304 307 309 309 314 315 316 316 315 315 316 316 318 319 319 319 321 322 323 324 326 326 330 334 335 332 330 329 329 328 327 326 327 329 334
302 302 302 301 302 302 302 302 303 303 303 303 304 307 307 307 307 309 309 313 314 314 316 318 319 318 319 320 321 322 322 323 323 327 328 331 336 334 333 331 330 329 329 327 327 327 328
302 301 301 302 301 301 301 302 303 303 302 303 304 303 303 304 305 307 309 310 311 314 314 314 317 317 319 321 321 322 323 324 327 327 329 332 335 338 336 333 332 332 331 330 328 327 328
302 302 302 302 302 301 301 301 302 303 303 302 303 303 302 305 305 306 307 309 309 310 312 312 313 313 316 314 315 317 320 322 324 326 328 334 339 338 337 336 336 331 331 331 329 327 328
302 302 302 302 302 302 302 302 302 302 303 301 302 302 302 304 304 304 305 307 308 308 310 311 310 310 312 312 317 321 323 326 326 326 328 331 335 337 336 336 335 334 333 330 329 329 328
302 302 302 302 302 302 302 302 302 302 302 303 302 301 301 303 305 304 305 306 309 310 310 309 309 310 311 313 319 324 325 325 326 328 330 331 333 336 336 336 337 338 338 336 338 337 330
301 302 302 302 302 301 302 301 301 302 303 302 302 302 302 302 303 303 305 306 307 308 311 310 309 310 314 322 322 325 325 325 326 331 334 336 337 334 335 337 335 339 336 337 341 335 331
301 302 302 302 301 301 301 301 302 301 300 302 302 302 302 301 302 303 304 304 305 308 311 310 309 313 316 325 326 324 327 327 327 332 337 337 337 334 337 339 338 334 337 341 341 339 339
301 301 301 302 301 301 302 302 301 301 301 301 302 303 303 302 302 303 304 304 304 303 305 307 308 309 310 320 326 328 334 332 329 330 334 335 333 334 336 335 336 333 334 336 337 339 339

GFSGBSN_850_thetae_012.txt.gz
Theta_e
309 309 309 307 305 304 303 303 303 303 304 305 305 306 307 307 308 308 309 311 312 312 312 313 313 313 313 322 325 324 324 323 321 320 326 329 329 333 335 337 336 336 340 339 338 339 340
310 310 309 309 308 306 304 303 303 303 303 303 304 305 306 306 307 308 309 310 311 313 313 313 313 313 312 321 323 326 324 326 324 325 326 329 329 332 333 335 335 335 336 337 336 337 338
312 310 309 309 309 309 308 306 304 303 304 304 304 304 305 306 306 307 308 309 310 312 313 314 313 312 317 319 325 325 325 328 326 328 326 328 329 330 332 333 333 334 335 336 336 336 339
313 313 312 310 310 309 309 308 308 306 304 304 305 305 305 306 307 307 308 309 310 311 313 313 313 313 320 320 324 325 325 326 327 328 327 328 327 328 330 331 332 333 334 336 337 338 338
313 313 312 312 311 311 310 310 309 307 305 304 304 304 306 306 307 307 309 310 311 311 312 313 314 321 327 325 326 326 326 325 325 326 328 327 327 326 327 330 331 333 335 336 337 339 339
313 313 312 311 311 311 310 310 310 310 308 306 304 304 306 306 306 308 309 311 312 314 316 318 318 329 329 328 328 326 326 325 325 327 326 327 327 328 327 329 331 333 335 337 338 341 340
312 312 312 311 310 311 311 310 310 310 309 308 307 306 306 307 307 307 309 313 321 324 326 328 329 324 326 329 327 329 328 328 327 327 328 328 328 328 329 329 332 333 336 338 338 342 341
311 311 311 311 311 311 310 310 310 309 309 309 308 307 308 308 308 307 311 317 317 315 316 317 319 325 328 328 328 329 327 328 327 327 329 328 328 327 328 331 331 333 335 338 339 343 343
309 309 309 309 308 308 308 308 309 309 309 309 309 307 307 309 308 316 313 313 316 315 316 318 319 319 322 328 328 326 327 329 327 327 329 328 328 327 328 330 332 333 335 337 339 341 341
310 309 309 309 308 308 307 306 306 306 307 307 307 306 305 307 311 313 314 316 313 314 317 322 324 322 321 322 324 323 325 328 329 327 327 329 329 328 327 329 331 334 334 335 337 342 344
310 309 309 308 308 308 307 307 305 304 304 305 305 305 304 304 306 309 314 313 313 315 323 329 326 325 324 323 326 324 324 325 327 329 329 328 328 328 327 328 330 334 335 335 336 340 344
310 309 309 308 307 308 307 306 305 304 304 304 304 304 304 306 308 312 311 312 314 319 323 327 328 327 325 324 326 329 324 324 325 326 329 329 328 329 328 328 329 332 334 335 336 338 341
309 309 309 308 307 308 307 306 305 305 304 305 304 304 304 304 309 311 312 313 317 320 326 328 329 329 329 327 326 329 327 326 328 328 329 330 329 329 329 328 329 329 332 336 337 339 340
308 307 307 307 307 307 306 305 305 305 304 304 305 305 306 308 310 310 310 314 318 323 323 327 328 329 328 329 328 329 330 329 328 328 329 330 330 329 329 328 328 329 330 336 339 340 339
305 306 306 306 306 305 305 305 305 305 305 304 304 307 309 310 311 312 313 313 319 321 325 326 327 327 328 328 329 328 329 329 328 328 330 330 330 331 329 330 328 329 329 331 334 336 338
304 304 305 305 305 305 305 305 305 304 304 304 304 308 312 313 312 312 314 316 318 319 322 324 325 326 328 329 328 329 329 330 330 328 329 329 331 331 331 330 330 328 330 329 332 338 341
304 304 304 304 305 305 305 305 305 304 304 304 307 310 310 312 313 314 318 316 317 317 318 319 320 322 325 328 329 329 329 330 330 330 329 328 331 330 332 331 329 328 328 329 331 334 338
303 303 303 303 303 303 303 303 303 304 304 305 307 310 312 313 315 316 318 318 317 318 318 320 321 321 321 322 327 328 330 329 329 330 330 329 329 332 331 332 331 329 329 328 330 336 335
303 303 303 303 302 303 303 303 303 303 304 305 306 307 308 309 313 313 314 315 317 319 320 321 321 320 321 321 324 325 328 329 329 329 329 331 331 333 330 331 333 330 329 329 328 330 334
302 302 302 303 303 302 302 302 302 303 303 304 306 309 308 309 310 312 313 313 314 314 317 318 320 321 322 322 323 324 324 327 328 329 327 331 330 333 333 333 332 333 331 330 329 329 332
301 301 301 302 303 303 303 302 302 302 302 304 305 308 308 309 310 312 312 314 315 316 315 316 319 320 321 323 322 321 322 323 326 329 330 329 333 332 330 330 332 333 331 331 331 332 333
300 300 301 301 302 303 303 303 303 302 301 303 304 306 307 308 308 309 309 310 311 312 314 313 315 318 319 320 320 320 322 324 326 328 328 328 332 331 332 332 331 332 333 331 330 331 331
301 300 301 301 301 302 303 302 303 303 302 303 304 304 306 308 308 308 308 308 310 311 311 313 313 315 317 317 316 315 316 319 324 327 330 331 329 334 334 331 332 333 333 333 332 329 330
300 301 301 301 301 302 303 302 303 303 303 303 303 305 304 307 307 308 309 308 309 311 310 311 310 313 313 312 314 316 318 321 323 324 325 333 332 332 334 335 336 333 332 332 331 332 332
301 301 302 301 301 302 302 302 302 303 303 303 303 305 302 306 306 306 308 308 308 309 308 309 310 310 310 312 315 318 321 323 324 325 326 329 334 334 337 335 335 334 335 336 334 333 334
302 303 303 302 301 302 303 303 302 302 303 302 302 303 303 302 305 305 308 306 308 309 309 310 311 311 310 312 314 318 320 323 325 326 327 328 335 335 336 337 340 339 336 338 337 339 339
302 303 303 302 302 302 302 302 302 302 302 302 303 304 303 300 303 304 307 308 308 308 309 310 312 314 312 312 314 316 320 321 325 327 327 329 333 334 335 334 334 337 338 335 338 340 343
303 302 302 301 302 302 302 301 302 302 303 302 303 304 304 302 303 304 305 306 306 306 308 309 308 314 312 312 315 316 319 321 323 327 329 329 328 333 338 340 342 338 337 339 344 341 340
301 301 301 301 301 301 301 302 302 302 302 302 303 304 304 305 303 304 305 306 306 306 307 307 309 309 313 315 318 320 321 324 325 325 325 327 327 328 332 334 339 341 343 341 340 340 340

GFSGBSN_850_thetae_015.txt.gz
Theta_e
314 313 312 311 310 309 309 310 309 309 308 307 307 307 307 307 307 308 309 309 310 310 312 312 313 313 312 314 318 320 322 323 322 321 320 321 324 325 327 332 333 335 338 341 342 342 342
314 313 313 312 312 312 311 310 310 310 309 308 308 308 307 307 308 308 309 309 310 310 311 311 312 312 311 317 320 324 323 324 324 324 320 324 326 327 330 332 332 334 335 338 338 341 342
313 313 313 312 312 312 312 311 311 311 310 310 310 309 308 308 307 308 309 309 310 311 311 311 312 311 311 317 321 322 326 325 326 325 325 325 327 329 330 330 333 332 332 332 333 335 341
313 313 313 312 312 312 312 312 312 312 312 312 311 311 311 310 309 309 310 310 310 311 311 311 311 312 313 320 321 322 326 325 326 327 327 327 326 328 329 329 331 330 328 329 332 334 335
313 313 313 313 312 312 313 313 313 312 312 312 312 312 312 312 310 310 311 312 311 312 311 311 312 314 324 325 324 322 323 325 326 327 327 327 327 327 327 325 326 326 327 329 331 334 337
314 312 311 311 311 311 310 310 310 310 310 310 311 311 312 312 312 310 311 311 315 319 320 320 317 325 322 323 327 326 325 326 326 325 326 327 328 324 323 322 326 326 328 329 331 335 337
312 311 310 310 309 309 308 307 307 307 308 308 309 310 311 313 312 310 310 315 317 321 325 329 328 320 320 323 328 328 326 325 325 324 323 326 324 325 324 323 325 328 329 330 332 337 344
312 311 310 309 309 309 309 308 307 306 306 307 307 308 309 313 313 310 313 315 315 315 316 315 316 318 325 327 329 327 328 326 325 325 326 324 325 325 327 326 325 327 329 330 332 338 342
311 311 310 309 309 308 308 308 307 306 304 304 305 305 307 311 312 314 314 315 315 314 314 314 316 317 317 321 325 328 328 328 327 326 326 324 327 328 327 327 328 326 327 329 331 339 341
310 310 310 309 309 308 307 308 307 306 305 305 304 304 304 308 313 312 313 314 314 313 312 317 320 319 318 318 321 327 329 328 328 326 326 324 327 327 326 326 325 327 329 330 332 333 343
310 309 309 309 309 308 307 308 306 305 305 305 306 305 304 304 307 312 312 313 313 314 319 325 324 323 321 319 323 325 329 327 327 328 324 324 327 327 327 325 325 326 330 331 331 332 339
310 309 307 306 307 308 308 307 306 305 305 305 305 306 306 306 305 311 311 312 313 315 320 324 325 323 320 319 321 324 326 326 325 327 327 327 327 325 326 327 325 326 327 329 331 331 334
308 306 304 307 307 307 306 305 305 306 306 306 305 305 306 306 308 308 310 313 314 316 323 326 325 325 323 321 321 321 322 322 322 322 323 324 327 327 327 325 324 324 322 327 330 332 332
307 305 304 304 305 305 305 306 306 305 305 305 304 304 305 307 309 310 312 312 315 321 320 323 323 325 325 325 323 323 324 322 322 322 322 322 324 327 328 325 324 323 323 325 329 332 332
303 303 303 303 303 304 305 305 305 305 305 305 303 303 304 306 310 310 312 315 317 319 320 321 319 324 325 327 327 324 324 323 323 322 323 324 325 328 328 328 326 324 323 324 323 328 330
303 303 303 303 303 303 303 303 303 303 304 304 304 307 305 312 312 312 313 314 316 317 317 316 317 320 320 320 322 327 325 326 326 325 325 325 327 327 329 327 327 324 325 323 324 325 330
303 303 303 303 303 303 303 303 303 303 303 303 306 307 307 310 311 313 313 314 315 315 316 317 318 319 319 320 320 320 324 328 327 328 326 325 325 326 327 327 326 326 324 322 323 325 327
301 301 302 302 302 303 303 303 302 302 302 303 305 307 305 306 308 314 313 315 315 316 317 318 319 319 319 319 319 320 321 321 327 328 327 325 324 324 325 327 328 326 324 322 324 324 326
301 301 301 301 301 302 303 303 303 302 302 303 305 305 306 308 308 310 312 313 314 314 313 314 316 318 320 320 321 321 321 322 322 323 328 327 325 325 326 325 326 327 326 324 324 321 324
301 300 301 300 301 301 302 303 303 303 302 302 305 306 306 307 309 309 310 312 312 312 313 313 315 315 317 319 320 321 321 323 323 322 327 330 326 326 327 327 327 330 328 327 324 324 324
300 300 300 301 301 301 302 302 303 303 303 302 304 306 306 307 309 307 308 311 310 310 311 310 313 314 315 316 320 321 321 318 319 323 324 324 327 327 327 328 328 327 329 328 326 324 324
301 301 301 301 302 301 301 302 303 303 303 302 303 304 304 304 306 307 308 308 309 309 309 311 312 314 313 316 318 318 317 317 317 317 317 319 327 329 328 329 327 327 329 330 327 327 326
302 301 302 301 302 301 300 302 303 303 304 303 303 304 304 305 305 306 307 307 308 308 310 310 310 312 312 314 313 313 313 313 315 317 317 319 323 329 327 329 330 329 327 328 330 329 328
301 300 302 303 303 302 301 302 303 302 303 303 304 304 304 305 304 304 305 306 307 308 309 309 310 310 310 310 312 313 315 316 317 318 318 319 321 327 327 330 332 331 330 331 331 332 330
302 302 302 303 303 302 302 302 303 302 303 303 303 304 303 305 304 305 305 306 307 307 307 308 309 309 310 311 313 317 318 318 319 320 320 320 321 327 328 328 329 331 330 332 331 331 330
302 303 302 303 302 301 302 302 303 303 302 302 303 303 304 300 304 304 305 305 306 308 308 308 307 309 311 313 314 320 321 320 323 323 321 321 323 327 326 328 329 330 332 337 337 338 343
301 301 301 301 302 302 302 302 302 302 302 302 302 303 304 301 302 303 305 307 306 308 308 307 309 307 309 313 314 314 317 319 321 324 325 324 331 332 329 326 328 331 335 334 336 342 343
301 301 302 302 302 302 301 301 301 302 302 303 303 303 304 303 303 303 304 305 306 306 308 308 308 308 310 314 314 315 316 318 322 322 324 326 330 330 333 333 335 339 337 338 339 343 340
301 301 302 302 302 302 302 302 302 302 302 302 302 303 304 305 304 303 304 306 305 305 307 307 308 308 308 315 315 317 317 320 323 327 324 327 330 334 330 337 340 332 330 337 335 340 342

GFSGBSN_850_thetae_018.txt.gz
Theta_e
316 316 315 314 314 314 314 313 313 313 313 311 311 311 311 310 309 309 310 309 309 309 309 310 311 311 311 311 315 320 321 321 322 322 321 321 324 323 322 324 328 332 335 340 342 341 341
316 315 315 315 314 314 314 315 315 315 314 315 315 313 312 312 312 311 311 311 311 310 310 310 310 310 310 311 320 319 322 320 322 321 321 321 321 322 324 326 327 331 331 332 338 341 341
316 314 313 314 314 314 313 313 313 313 313 314 315 316 315 313 312 313 312 312 311 311 310 310 310 309 309 316 320 323 324 324 324 323 323 323 320 325 326 326 329 330 329 329 331 339 340
315 313 312 312 312 312 311 311 311 311 311 311 311 312 314 315 315 313 314 314 312 312 311 311 310 309 311 318 319 320 319 321 325 326 324 325 323 324 326 328 327 326 326 327 328 331 340
313 312 311 310 310 310 310 309 309 308 309 310 311 310 311 313 315 315 315 315 312 312 313 312 311 312 315 318 321 323 321 323 325 324 327 327 327 325 325 324 321 322 325 326 326 333 341
312 312 311 310 310 309 308 308 308 307 306 305 307 307 310 312 314 314 318 313 316 319 322 322 318 321 318 319 325 325 322 325 323 325 327 327 327 322 320 319 322 324 325 325 326 329 339
311 311 311 310 310 309 308 307 308 307 306 306 304 304 306 310 312 314 315 315 315 317 316 316 321 317 319 321 321 326 324 323 323 325 321 323 321 324 322 320 322 324 325 325 327 330 338
310 310 310 310 310 310 308 307 307 307 306 305 306 306 305 307 310 313 313 312 313 311 310 313 315 317 318 319 324 328 325 323 323 321 319 321 322 322 323 322 322 322 323 325 326 328 338
310 310 309 309 307 307 308 308 308 307 306 306 305 306 306 307 311 311 313 313 313 312 310 312 314 315 316 316 318 323 327 326 322 321 321 321 322 323 325 325 324 322 322 323 325 327 340
310 309 309 306 305 306 307 308 307 306 306 306 306 306 306 307 310 310 313 312 312 313 309 313 314 316 315 317 316 320 326 325 324 322 323 322 324 324 324 326 324 321 323 324 326 327 328
308 307 306 305 304 305 305 305 304 305 305 305 304 304 305 305 306 308 310 312 312 313 318 322 319 319 317 317 320 321 326 326 325 324 322 323 324 324 325 326 325 324 323 325 326 326 327
304 304 303 303 303 303 303 304 305 305 305 305 304 303 304 305 305 308 309 311 312 312 317 319 321 317 315 316 319 322 323 325 326 325 324 323 324 323 325 325 325 325 322 322 326 326 327
302 302 302 303 303 303 303 303 303 303 303 304 304 303 303 303 305 306 309 311 310 313 318 323 319 317 316 316 317 319 325 325 325 320 323 326 326 324 323 323 323 321 319 320 322 324 328
303 303 303 303 303 303 303 303 303 303 304 304 304 303 303 303 303 303 310 308 312 316 316 317 316 317 320 317 317 318 319 326 324 318 317 322 325 323 324 324 322 319 319 320 322 324 326
301 301 301 302 302 303 303 303 303 302 303 303 303 302 303 306 309 308 310 311 311 313 315 315 315 317 317 318 316 317 317 319 322 322 319 317 321 322 323 324 324 323 318 319 319 322 324
300 300 300 301 301 301 302 303 303 303 302 302 302 303 303 307 307 310 308 311 310 313 314 315 315 315 317 316 317 317 316 319 320 321 321 319 320 320 323 323 323 321 320 321 315 320 322
300 301 301 300 301 301 301 302 303 303 303 302 302 305 302 305 305 309 310 309 312 312 313 314 315 315 317 317 317 318 317 318 320 321 320 320 319 321 324 322 325 324 322 319 318 317 322
301 301 300 300 301 300 300 302 302 303 303 303 303 302 302 306 304 304 309 309 311 312 312 313 314 315 315 315 316 318 319 318 320 319 319 319 319 320 322 322 324 325 323 318 321 319 319
301 301 300 300 300 301 300 301 302 302 303 303 302 304 303 305 303 304 305 309 310 311 311 312 312 312 313 314 317 318 319 319 317 318 318 321 320 323 320 319 321 323 323 322 314 316 321
301 301 301 301 302 302 302 301 301 302 303 303 302 302 304 305 306 304 305 308 308 309 309 310 310 312 313 314 313 317 317 318 316 316 319 316 322 320 325 324 322 322 324 322 322 322 322
302 303 302 302 302 301 302 301 300 302 303 303 303 302 303 302 303 303 304 306 308 308 308 309 309 311 313 314 315 315 317 316 316 317 315 314 315 318 320 323 324 324 324 324 323 324 323
301 301 301 302 302 303 303 302 301 302 303 303 303 303 303 302 304 302 304 306 307 306 308 309 311 310 311 312 312 315 315 312 314 313 313 312 315 317 323 324 325 325 325 326 325 325 323
302 302 303 303 303 303 303 303 302 302 303 302 303 303 303 304 302 301 302 304 304 305 307 309 308 309 310 309 310 311 311 311 310 312 313 313 313 316 321 323 325 325 326 325 325 325 324
301 301 302 301 302 303 303 302 302 303 303 303 303 303 302 304 303 303 303 303 305 305 307 307 307 308 309 308 310 310 310 311 311 311 312 314 316 315 320 322 327 326 326 326 324 326 325
301 301 301 301 301 302 302 302 302 303 303 303 303 303 302 304 303 304 303 304 304 304 304 306 307 306 307 309 310 310 313 315 315 314 315 316 317 317 321 323 324 329 328 326 325 326 327
301 301 301 302 302 302 301 301 302 302 302 302 302 302 303 300 303 303 303 303 302 303 305 307 306 307 306 308 311 313 314 318 320 320 317 317 317 319 321 324 326 325 329 332 330 333 339
301 301 301 302 302 302 302 302 301 301 302 302 302 302 303 302 302 302 302 303 304 303 303 305 307 306 308 310 313 311 312 315 320 321 323 323 318 321 322 326 321 326 331 332 333 331 340
300 301 300 300 301 301 301 301 301 301 302 302 302 302 303 303 303 303 303 303 303 304 304 305 307 306 306 310 314 312 312 315 319 322 324 325 329 331 331 326 331 332 333 329 329 341 339
301 301 301 301 301 301 301 300 300 300 301 302 302 302 303 304 304 303 303 303 304 303 304 305 306 307 307 308 311 314 314 316 317 323 324 328 328 329 332 331 330 333 331 341 346 346 346

GFSGBSN_850_thetae_021.txt.gz
Theta_e
318 316 315 314 315 315 315 315 316 316 315 314 314 314 314 315 314 312 312 312 310 310 310 309 309 309 310 310 315 319 321 322 317 316 322 325 326 324 320 320 326 336 334 333 335 338 347
314 313 313 312 312 311 311 311 312 312 312 313 313 312 313 314 315 316 314 314 314 312 311 310 309 309 309 308 319 319 318 318 321 321 323 323 323 324 322 322 323 327 328 330 332 337 342
313 313 312 311 311 310 310 309 309 309 308 309 311 312 311 312 314 316 318 317 316 315 312 311 310 308 308 315 319 319 320 319 318 321 322 321 321 322 322 321 324 327 328 326 327 330 340
312 312 312 311 310 310 309 308 308 308 307 306 306 307 308 311 312 313 318 320 316 315 313 312 310 308 309 315 317 318 320 322 321 321 322 322 323 321 323 325 325 325 324 327 327 328 338
311 311 311 310 310 310 310 308 307 307 307 306 307 307 307 308 309 311 318 318 314 314 316 317 311 310 312 314 315 318 320 321 321 323 322 323 325 324 323 323 321 320 325 325 326 326 337
310 310 310 310 309 309 308 308 308 308 307 307 307 306 307 308 308 311 316 314 315 319 321 321 320 319 318 318 325 326 323 320 321 324 323 323 324 319 317 318 323 324 324 324 325 331 338
310 310 310 309 306 305 306 307 308 307 306 306 306 307 307 308 308 311 313 315 314 315 313 316 321 319 319 320 320 324 325 321 320 322 320 322 322 320 321 319 321 323 324 323 324 330 338
309 309 308 306 305 305 305 305 304 304 304 303 303 304 304 307 308 311 311 311 309 308 308 314 317 315 318 318 319 322 326 320 319 319 319 319 321 321 322 320 321 321 322 322 322 325 330
306 305 304 304 303 303 303 302 303 303 303 302 302 303 303 304 308 310 310 310 309 310 307 311 314 314 314 316 317 320 322 321 320 319 318 321 320 321 322 322 322 320 320 323 322 325 332
303 302 302 302 302 302 302 302 302 302 302 302 302 302 302 303 306 306 311 310 310 311 308 313 313 314 314 316 317 319 323 322 321 321 320 319 320 322 322 323 322 321 320 322 323 323 324
302 302 302 302 303 303 303 303 303 302 302 302 302 302 302 302 303 304 307 309 311 311 319 321 316 315 315 316 317 317 319 324 322 320 319 320 321 321 322 323 321 324 323 322 324 323 324
302 302 302 302 302 302 302 303 302 303 303 303 303 302 301 303 302 305 304 309 312 310 315 318 317 315 314 315 316 317 319 324 325 322 321 321 322 322 322 322 322 323 323 320 321 320 322
301 300 300 300 300 300 301 301 302 303 303 303 303 302 302 302 303 303 303 309 309 311 315 319 315 315 315 315 316 318 319 320 322 324 323 322 323 321 322 322 322 322 318 320 319 320 324
300 299 300 300 300 300 300 301 301 302 303 303 303 302 302 306 309 305 303 307 310 314 313 314 315 314 317 315 316 316 321 322 322 320 321 324 325 324 321 322 322 319 319 316 319 320 322
300 300 300 300 300 300 300 300 301 301 302 302 302 302 303 305 305 308 309 308 309 311 314 314 315 315 316 316 315 316 314 323 323 318 320 319 322 321 324 322 322 320 320 319 317 319 319
300 300 300 300 300 300 300 300 300 301 302 302 303 302 304 304 305 305 306 308 309 312 312 313 315 314 315 315 316 316 316 316 318 321 318 317 319 317 322 322 321 322 318 320 311 320 322
300 300 300 300 300 300 300 301 301 301 302 302 303 303 303 305 306 308 307 307 309 311 312 312 312 313 315 315 316 316 317 317 319 319 317 318 316 320 319 319 322 319 321 317 315 315 321
300 300 300 301 301 301 302 302 302 301 302 303 303 300 303 304 302 300 303 304 309 310 310 311 312 313 313 314 315 315 316 318 317 317 318 317 312 319 319 319 321 320 322 317 320 318 314
299 300 300 301 302 302 302 302 302 301 302 303 302 302 304 305 303 301 303 306 308 309 308 310 310 310 312 313 314 317 316 317 316 316 319 318 316 316 317 318 319 320 319 321 317 316 323
301 302 303 304 304 304 303 303 303 301 302 302 302 301 303 303 303 303 303 305 307 308 308 308 309 311 312 313 312 314 314 317 313 314 318 313 313 317 318 318 319 320 321 321 321 321 323
302 302 301 303 303 304 303 303 303 301 302 303 302 300 301 300 301 301 302 304 307 306 308 307 308 310 312 312 313 313 313 314 312 315 312 311 314 314 316 317 319 319 320 322 320 322 323
301 301 301 301 302 303 303 303 302 302 302 303 302 303 303 302 302 303 301 304 306 305 305 307 310 308 307 310 310 309 311 311 311 311 310 309 315 313 317 319 320 321 321 322 322 322 321
301 301 301 301 301 302 302 301 301 302 303 302 302 302 303 303 303 303 302 302 303 303 306 307 306 306 306 308 308 308 309 311 309 311 310 311 313 314 317 317 318 321 322 322 323 322 322
301 301 301 301 302 302 301 302 302 302 303 303 303 302 303 303 303 304 303 302 303 303 304 305 305 306 307 306 307 308 308 308 308 308 309 311 312 314 315 316 324 322 323 323 323 322 321
301 300 300 300 301 302 302 302 302 302 303 302 303 303 302 303 302 303 303 303 303 303 302 303 304 305 306 308 307 307 308 310 310 310 309 310 312 315 317 318 320 323 325 323 322 322 322
300 301 301 301 300 301 301 302 302 302 302 302 302 302 303 302 303 303 303 302 302 302 303 305 306 303 306 304 307 308 309 314 313 316 311 311 312 317 315 320 323 323 333 333 322 325 330
302 301 301 301 301 301 301 300 301 301 302 302 302 302 303 303 302 302 302 301 303 302 302 302 303 306 307 304 307 307 309 311 313 318 316 314 315 318 318 319 320 330 333 333 328 326 335
303 303 303 303 303 303 302 302 301 300 300 301 302 302 302 302 302 302 302 302 302 302 303 302 304 304 304 306 308 309 310 310 312 315 318 321 322 321 318 322 324 332 335 339 334 337 336
303 303 303 303 303 303 303 304 303 301 301 302 303 302 302 302 302 302 303 303 303 303 303 303 303 304 306 306 307 307 312 311 311 315 315 319 322 323 324 324 331 331 331 335 337 337 339

GFSGBSN_850_thetae_024.txt.gz
Theta_e
313 313 313 312 311 311 310 310 311 311 310 310 310 311 311 310 311 312 313 315 315 314 313 311 311 309 308 309 314 319 321 321 321 317 319 328 347 343 324 329 338 340 339 336 334 335 346
311 312 312 312 311 310 310 309 308 308 307 307 307 308 308 308 310 311 311 314 315 316 315 314 311 310 307 305 316 317 318 318 318 317 323 324 339 340 323 321 325 325 330 330 329 329 335
311 311 311 311 310 310 310 308 307 307 307 307 307 307 307 308 308 309 312 314 316 319 317 315 312 310 308 312 316 317 317 318 319 316 322 326 324 325 324 321 323 323 324 325 326 328 334
310 310 310 310 308 307 306 307 308 308 307 306 306 307 307 308 308 309 312 315 319 319 317 314 312 309 309 314 314 314 321 316 316 318 317 323 324 323 321 323 323 323 323 325 326 326 333
310 310 309 308 306 305 305 305 305 304 303 303 303 304 304 305 306 309 311 314 316 315 316 317 313 308 311 313 314 315 316 319 317 318 319 322 322 322 321 321 319 319 323 324 325 325 334
307 306 305 304 303 303 303 302 302 302 302 302 302 302 303 304 304 311 311 313 314 318 321 319 318 314 316 317 322 316 316 316 316 318 323 323 323 318 315 317 319 322 322 323 325 330 335
304 303 302 302 302 302 302 301 301 301 302 302 302 302 302 303 303 310 312 313 312 313 311 319 321 317 317 318 322 322 324 317 317 319 318 320 319 321 318 318 320 321 323 325 324 327 337
302 302 301 301 301 302 302 302 302 302 301 301 301 301 302 303 303 307 311 309 307 306 307 314 316 315 318 320 318 323 323 317 317 317 317 317 322 320 320 318 320 321 322 322 322 323 325
301 301 301 301 301 301 301 301 301 301 301 301 300 301 301 302 303 304 309 307 306 308 306 310 313 313 314 316 315 318 322 319 316 317 319 322 319 321 322 320 320 319 320 321 324 323 326
301 301 300 300 300 300 300 300 300 300 300 301 300 301 301 301 303 303 308 307 305 310 306 312 311 313 313 315 314 318 321 321 318 319 316 318 319 322 320 322 320 319 319 321 322 321 322
300 300 299 299 299 300 299 299 299 300 300 300 300 301 302 302 302 302 304 303 307 309 318 320 313 314 315 316 316 316 319 321 319 318 318 319 319 320 320 321 320 323 320 320 321 320 321
299 299 300 300 300 299 299 300 300 300 300 300 300 300 302 302 305 306 305 303 310 312 317 318 314 314 313 314 314 316 319 322 322 320 320 320 320 320 320 320 320 320 322 317 316 317 321
299 300 300 300 300 299 299 300 300 300 300 301 300 301 302 305 304 307 306 305 308 312 314 316 314 314 314 314 315 315 317 320 321 321 320 320 321 320 319 320 320 320 318 319 320 320 324
300 300 299 299 300 299 300 300 300 301 301 301 300 301 303 305 304 305 304 305 309 312 311 313 314 313 315 314 315 316 315 320 320 320 319 321 322 321 319 320 320 318 316 317 320 319 322
299 299 299 299 300 300 300 300 301 302 301 301 300 301 303 304 305 304 308 306 308 309 312 312 313 315 315 315 315 315 314 318 322 317 322 320 322 321 321 320 321 318 320 316 316 317 317
299 299 299 300 300 300 300 300 301 302 301 301 301 302 303 304 305 305 305 306 307 309 310 310 313 313 314 314 315 314 315 317 318 318 316 318 322 318 322 322 320 317 316 320 312 321 321
299 300 301 301 302 302 301 302 302 303 301 301 302 302 303 302 304 306 302 304 306 308 309 310 310 310 313 313 313 313 315 317 317 317 316 315 315 318 318 321 324 318 318 315 317 314 319
300 301 302 302 303 304 303 303 303 303 301 301 302 299 303 305 301 299 300 302 305 308 308 308 309 311 312 313 314 313 317 317 314 316 319 318 312 318 318 318 320 324 321 315 320 318 313
301 302 301 302 304 303 304 304 304 303 301 302 302 301 303 303 299 299 302 304 305 307 307 307 308 310 311 312 312 315 314 315 313 313 319 316 314 315 316 317 318 318 321 317 320 315 320
300 300 301 301 301 301 303 303 303 302 302 302 302 300 302 302 301 301 303 301 305 306 308 307 307 309 310 311 310 312 314 315 312 315 317 313 312 314 317 317 316 317 318 317 319 322 323
300 300 300 301 301 301 302 302 302 302 302 302 302 299 301 299 300 302 302 301 305 305 305 307 309 309 306 310 310 311 310 311 311 313 311 310 315 314 315 316 317 318 318 318 318 320 321
300 301 301 301 301 301 301 302 302 302 302 303 302 303 302 302 302 303 302 301 303 304 304 305 309 307 306 307 309 308 307 310 310 310 308 307 313 313 315 317 317 318 318 319 320 318 319
300 300 300 300 300 301 301 302 302 302 302 302 302 302 302 303 302 302 301 302 302 302 303 305 305 305 305 305 307 306 306 307 307 310 308 308 311 314 316 315 317 319 319 320 319 318 319
301 301 301 301 300 300 301 302 303 302 302 302 302 303 302 304 304 302 303 302 303 302 304 303 303 303 304 304 305 306 306 306 306 307 308 308 310 312 315 315 319 318 317 319 320 320 319
302 302 302 303 302 301 301 301 301 302 302 302 302 302 302 302 302 302 302 303 302 302 301 302 302 303 303 306 305 304 304 308 307 308 307 308 309 312 314 316 317 316 327 334 333 328 320
303 303 303 303 304 304 304 303 302 301 302 302 302 302 302 303 302 302 302 302 302 301 301 303 303 304 306 301 305 306 306 307 311 312 307 307 308 310 312 317 320 319 331 332 332 331 322
303 302 302 302 302 302 302 302 303 303 301 301 301 302 302 302 302 302 302 302 301 302 302 302 302 303 305 304 306 306 306 309 309 313 309 310 311 311 313 317 317 317 331 334 328 332 336
302 301 301 300 301 302 303 304 304 304 304 302 301 302 302 302 302 301 302 302 301 301 302 302 303 303 306 307 306 308 306 307 308 307 311 310 312 312 312 316 318 328 334 342 334 335 335
301 301 300 300 301 302 304 305 305 305 305 304 302 302 302 302 302 302 302 302 302 302 302 302 303 303 304 305 304 305 307 308 309 310 310 312 314 315 313 314 317 332 332 334 333 332 334

GFSGBSN_850_thetae_027.txt.gz
Theta_e
310 311 311 311 310 310 309 308 308 308 308 308 308 308 308 308 308 308 310 312 315 317 317 314 313 311 309 308 312 318 319 319 321 316 330 343 347 346 346 347 344 350 343 341 341 339 336
310 310 310 309 307 306 306 306 306 306 305 304 304 304 305 305 306 308 308 310 313 318 319 318 315 313 309 308 313 315 317 317 321 326 337 341 345 341 332 329 338 333 333 330 330 329 332
310 309 308 306 305 304 304 303 303 302 302 302 303 303 303 303 303 305 309 310 315 317 320 319 317 314 310 313 313 315 316 317 319 319 335 329 330 336 328 324 324 324 324 325 327 329 330
305 304 303 303 302 302 302 302 302 302 302 302 302 302 303 303 303 304 310 312 314 316 319 318 314 311 310 314 313 315 316 315 318 319 325 324 326 334 323 322 324 325 326 328 328 328 330
303 302 302 301 301 301 301 301 301 301 301 301 301 301 302 303 303 305 310 313 314 316 317 317 316 311 311 312 312 313 315 316 317 321 322 324 325 324 322 323 322 325 328 328 329 329 336
301 301 301 301 301 301 301 300 300 300 300 300 300 300 301 301 303 307 310 313 313 313 319 319 317 312 314 316 315 313 312 318 322 324 323 322 323 325 324 323 324 324 325 326 328 330 330
301 301 301 300 300 299 299 299 299 299 299 299 300 300 300 301 302 304 310 311 311 312 310 320 322 317 318 317 322 318 313 318 318 321 321 322 323 324 323 323 323 322 324 327 328 328 333
300 300 299 299 299 299 299 299 299 299 299 299 299 300 300 301 302 304 308 308 303 304 308 313 315 314 319 318 318 321 313 316 317 320 321 323 324 323 323 323 323 322 323 326 326 326 329
299 299 299 299 299 299 299 299 299 299 300 300 300 300 300 300 302 302 305 306 303 304 308 311 311 311 313 317 316 319 316 316 318 320 321 324 323 323 323 324 324 323 322 324 326 326 327
299 299 299 299 299 299 299 299 299 299 300 300 300 300 300 300 302 303 306 305 304 306 312 316 312 313 312 316 316 317 319 319 319 320 321 322 324 323 324 324 324 324 323 323 325 326 329
299 299 299 299 299 299 299 299 299 300 300 300 300 300 301 301 303 304 305 306 304 308 316 318 313 313 313 317 316 316 318 320 321 321 321 322 323 323 325 324 325 324 324 324 325 327 327
299 299 299 299 299 299 299 299 299 300 300 300 300 300 301 303 303 304 306 306 309 313 317 319 314 314 315 316 316 317 318 321 322 321 321 322 321 324 324 325 325 325 325 325 324 326 328
299 299 299 299 300 300 300 300 300 300 301 300 300 300 303 303 303 304 306 304 313 316 316 317 317 316 316 317 316 317 319 322 324 323 323 323 323 323 324 324 324 325 325 326 326 326 327
299 299 300 300 301 301 301 300 301 302 302 301 300 300 303 303 304 304 305 307 313 313 313 313 314 315 317 317 318 318 320 322 324 323 323 324 324 324 323 324 324 325 325 324 324 324 325
300 300 301 301 301 301 301 302 303 302 302 301 300 300 303 302 302 304 307 306 310 311 310 311 314 317 318 317 317 318 318 321 324 323 325 324 324 323 324 324 324 324 327 325 323 322 324
300 301 301 301 301 302 303 303 303 303 303 301 301 301 302 302 304 305 307 307 309 309 309 311 313 313 316 317 318 318 320 318 321 320 320 324 326 325 324 324 324 324 324 324 324 324 324
300 300 300 301 301 301 302 303 303 303 303 301 301 302 303 303 304 305 306 306 306 307 309 310 312 312 314 315 316 316 320 317 315 318 320 321 322 322 325 325 325 323 324 325 325 325 324
300 300 300 300 301 300 302 303 303 302 302 301 302 303 303 302 303 303 304 304 304 307 308 309 310 311 314 314 315 317 319 318 313 318 322 319 320 326 325 326 326 325 326 325 326 328 325
300 300 300 301 301 301 301 303 301 301 301 301 302 301 302 302 304 304 303 304 304 307 308 309 309 311 312 314 315 315 316 315 314 318 319 318 322 327 326 325 322 326 327 325 326 327 328
300 300 300 300 300 301 302 302 302 302 302 301 302 303 302 301 301 302 302 304 304 305 307 307 309 309 310 313 313 314 314 314 311 315 316 316 319 324 328 326 322 324 322 326 326 328 327
300 300 300 300 300 300 301 302 303 302 302 302 302 302 302 303 303 303 303 303 304 305 304 305 308 307 307 311 311 312 311 311 311 312 313 316 319 318 318 318 318 320 321 322 323 326 329
302 302 302 302 301 300 300 302 302 303 302 302 303 303 302 301 303 303 303 304 304 304 303 304 306 306 306 309 308 310 309 310 311 312 312 313 316 316 317 316 318 320 320 321 321 322 323
302 303 303 303 303 303 302 301 302 302 302 302 302 302 302 302 304 304 303 304 303 303 303 304 305 304 305 305 305 305 306 306 307 309 311 312 313 314 316 316 316 320 321 321 322 322 323
303 303 303 303 303 303 303 303 303 302 302 302 302 302 302 304 305 303 303 302 302 303 304 303 303 304 304 304 304 305 306 306 307 308 308 311 315 314 313 314 318 321 321 321 323 324 323
303 303 302 302 301 301 301 302 303 304 302 302 302 303 302 303 303 303 302 302 302 302 303 302 303 303 303 304 306 305 306 309 309 308 308 310 311 313 312 315 317 317 319 330 333 328 331
303 302 301 301 300 300 300 301 303 304 304 303 301 301 302 302 303 302 302 302 302 302 302 302 303 303 305 306 307 307 305 307 306 312 311 309 310 311 312 312 315 320 319 322 333 328 337
302 301 301 301 300 300 300 301 302 304 305 305 304 302 301 302 302 302 303 303 302 302 303 302 303 303 305 306 306 306 306 307 307 306 313 311 311 311 311 312 314 316 321 335 333 330 338
301 301 301 301 300 300 300 302 304 305 305 305 306 304 302 302 302 302 302 302 302 302 303 302 303 304 306 308 307 307 309 308 310 308 309 312 313 312 312 311 311 315 322 322 331 336 337
301 301 301 300 300 300 302 304 306 306 306 306 305 305 304 302 302 302 302 302 302 302 302 302 302 304 305 306 306 307 309 309 309 310 310 311 311 314 314 313 314 316 321 330 335 336 337

GFSGBSN_850_thetae_033.txt.gz
Theta_e
302 302 302 302 302 301 301 301 300 300 300 301 301 301 302 302 303 303 304 305 306 312 313 314 316 317 315 320 318 320 318 321 321 323 325 333 337 342 344 342 343 346 346 344 344 342 340
302 301 301 301 300 300 300 300 300 300 300 301 301 301 302 302 303 303 304 305 307 312 315 316 317 316 315 322 321 318 321 320 323 327 324 330 335 339 340 341 343 343 344 344 342 341 340
301 300 300 300 300 300 300 300 300 300 300 301 301 302 302 302 303 303 304 305 307 311 315 317 317 316 320 323 320 316 323 325 327 328 325 328 331 338 339 340 340 342 340 343 343 339 338
300 300 300 300 300 300 300 300 300 300 301 301 301 302 302 302 303 304 304 304 307 310 314 316 317 315 324 324 323 318 323 327 329 330 327 328 330 335 338 337 334 341 341 340 339 337 336
300 300 300 300 299 299 299 300 300 300 301 301 301 302 302 302 303 304 304 305 307 311 313 316 318 321 326 322 319 322 322 329 331 333 332 330 331 335 337 338 334 334 338 339 339 338 338
300 300 299 299 300 300 300 301 301 301 301 301 301 301 301 302 302 303 304 308 312 315 321 321 323 323 323 323 322 319 321 327 333 334 333 332 333 335 338 341 338 335 336 338 340 340 338
299 299 300 300 300 301 301 301 301 301 301 301 301 301 301 302 302 303 310 313 316 323 323 325 326 324 326 323 321 318 324 327 333 333 335 333 336 339 334 339 337 336 335 336 339 339 339
300 300 301 301 301 301 301 301 301 301 301 301 301 301 301 301 304 307 310 311 310 309 311 312 313 315 321 324 325 319 321 325 333 335 331 332 334 331 329 329 334 335 335 336 337 338 339
300 300 301 301 301 301 301 301 301 301 301 301 301 301 302 301 307 308 311 308 308 310 312 313 315 316 317 323 325 326 318 324 332 336 329 328 328 328 327 327 329 330 333 335 335 337 338
301 301 301 301 301 301 301 301 301 301 301 302 302 302 301 302 307 308 309 307 308 309 315 318 320 319 318 319 325 325 319 322 329 333 334 329 329 327 327 327 327 328 329 331 332 335 338
301 301 301 301 301 301 301 301 301 301 302 302 302 301 301 305 308 310 307 306 308 311 318 322 320 319 320 320 325 324 324 319 327 328 330 331 329 328 328 328 328 328 329 329 330 333 334
301 301 301 301 301 301 301 301 301 301 301 301 302 301 301 307 308 307 306 306 310 317 318 323 320 321 322 321 323 326 324 320 323 326 328 329 327 328 328 328 328 328 327 328 329 329 333
301 301 301 301 301 301 302 302 302 302 302 302 302 302 303 306 307 306 307 308 313 314 319 323 321 323 323 324 324 327 327 323 325 326 327 327 328 327 327 328 328 328 328 328 328 329 330
301 301 301 301 301 301 302 302 302 302 302 302 302 306 307 306 305 306 307 311 311 314 318 317 317 318 320 324 325 325 327 328 324 325 327 328 329 328 328 328 329 328 328 329 330 329 329
301 301 301 301 301 301 302 301 302 302 302 303 303 308 308 305 305 306 309 311 311 314 313 313 315 321 322 324 325 325 326 328 327 325 327 331 330 329 328 328 330 330 330 329 331 330 330
301 301 301 301 301 301 301 301 302 302 303 303 307 308 308 305 306 308 311 310 310 310 310 311 313 318 323 324 325 326 326 326 328 327 329 332 333 331 329 329 328 331 329 329 330 332 332
302 302 302 302 302 302 301 301 301 303 303 304 309 308 307 305 307 308 309 309 309 307 308 309 310 312 315 318 320 325 327 325 325 327 329 330 332 333 331 329 329 329 331 330 330 330 332
303 303 303 304 304 304 304 304 303 302 303 306 308 311 307 306 309 308 309 308 306 307 307 309 310 312 313 314 318 322 325 325 319 323 329 330 332 334 332 329 330 330 330 331 331 334 330
303 304 304 305 305 304 304 304 304 303 303 305 309 308 308 306 309 309 308 307 307 308 307 308 308 311 313 315 318 320 321 320 318 323 327 328 331 335 336 332 330 330 330 331 331 331 334
304 304 304 304 303 302 302 302 303 304 305 305 309 310 307 307 307 308 308 307 307 307 307 307 309 309 311 313 314 317 319 318 317 318 317 321 330 333 337 334 331 331 330 330 331 333 332
304 304 303 303 302 301 301 301 301 302 305 306 308 309 307 308 308 307 307 307 307 307 307 306 309 309 309 312 313 314 316 317 318 318 321 323 330 331 332 333 332 331 330 330 331 332 333
303 304 304 303 302 301 301 300 300 301 302 306 307 307 306 307 306 307 307 308 307 307 307 307 307 307 308 310 311 312 313 314 316 317 319 322 325 329 332 332 331 330 332 331 331 331 332
302 302 303 303 302 301 301 301 300 300 301 303 304 304 306 306 307 307 308 307 306 306 306 307 307 307 307 308 308 309 309 311 312 314 315 319 323 328 332 331 330 331 331 332 332 332 332
302 302 303 302 302 301 301 301 300 300 302 303 303 302 305 308 307 308 306 306 307 306 306 305 305 307 307 306 307 308 309 310 311 313 313 317 321 324 327 330 333 331 330 330 331 331 332
301 302 302 301 301 301 300 300 300 301 303 304 303 302 303 309 306 308 307 306 306 306 306 306 306 306 306 306 309 309 310 311 312 313 313 314 317 322 325 329 329 329 328 330 330 330 330
301 301 300 300 300 300 301 302 302 303 305 305 304 303 303 304 308 307 307 307 306 307 308 307 306 306 306 308 308 311 312 312 313 313 313 314 315 318 323 326 330 328 328 325 329 330 330
300 301 302 302 302 303 304 304 304 305 306 307 307 305 304 303 304 306 307 308 307 307 307 306 307 306 307 309 311 312 310 312 312 314 314 313 315 316 319 322 324 326 327 327 329 340 333
305 305 305 305 306 306 306 305 305 305 307 308 308 308 305 303 304 305 306 307 306 306 308 306 307 307 307 310 310 311 311 310 310 312 313 317 315 316 318 319 322 321 321 326 329 330 330
308 308 307 308 308 308 307 307 306 308 308 308 308 308 307 305 305 307 307 307 307 307 306 305 306 306 308 310 311 311 312 311 312 313 312 312 314 317 316 317 318 318 319 319 319 321 322

GFSGBSN_850_thetae_036.txt.gz
Theta_e
301 301 300 300 300 301 301 301 301 301 301 302 302 302 303 303 303 304 304 305 305 305 308 313 315 314 315 319 320 321 320 320 319 318 324 327 334 339 346 345 343 345 347 347 345 344 346
300 301 300 300 300 300 300 301 301 301 302 302 302 303 303 303 303 304 304 305 305 306 308 313 316 315 314 323 325 324 324 320 321 320 324 325 333 337 343 344 343 344 346 346 346 344 341
301 300 300 300 300 300 300 301 301 302 302 302 302 302 303 303 304 304 304 305 305 306 308 311 315 316 318 323 325 321 323 325 323 324 324 325 330 335 340 343 341 341 344 345 345 343 341
300 300 300 300 301 301 301 301 301 302 302 302 302 302 302 303 304 304 304 305 305 309 312 312 316 315 322 327 325 323 318 322 325 325 326 325 328 333 337 340 341 342 344 345 344 344 341
300 301 301 301 301 301 301 302 302 302 302 302 302 302 302 303 303 304 305 310 312 313 316 315 320 320 327 326 326 325 322 324 326 328 328 327 327 330 333 340 342 342 343 345 345 343 340
300 301 301 301 301 301 302 302 302 302 302 302 302 302 303 303 303 307 310 312 314 317 325 320 324 325 325 327 326 326 325 323 327 330 330 329 329 330 333 339 345 341 338 342 343 340 339
301 301 301 302 302 302 302 302 302 302 302 302 302 302 303 302 305 309 311 312 311 322 313 321 327 323 326 327 325 323 325 323 329 332 334 333 333 333 333 337 339 339 336 337 339 339 339
301 301 302 302 302 302 302 302 302 302 302 302 302 302 302 303 306 309 312 311 309 309 311 312 313 315 320 324 326 324 323 324 330 335 335 335 336 334 333 335 337 339 338 335 335 338 340
301 301 302 302 302 302 302 302 302 302 302 302 302 302 302 303 307 311 311 309 308 310 311 311 313 314 315 318 323 327 322 325 330 335 336 336 335 334 334 335 334 339 339 337 336 336 339
301 301 302 302 302 302 302 302 302 302 302 302 302 302 302 303 308 311 310 308 308 309 312 316 318 318 316 316 321 325 322 328 330 334 336 335 334 334 334 334 333 333 335 335 336 336 339
301 301 302 302 302 302 302 302 302 303 303 303 303 302 302 307 307 311 308 308 308 311 316 323 322 321 320 318 323 322 327 324 329 329 336 336 331 331 332 332 329 328 330 332 332 334 335
301 301 302 302 302 302 302 302 302 303 303 303 303 302 303 308 310 309 307 308 309 314 314 322 322 322 322 320 320 323 325 324 325 329 332 336 332 329 329 329 328 328 328 329 329 331 336
301 301 302 302 302 302 302 302 302 303 304 303 303 303 306 308 309 307 307 309 311 312 315 318 318 318 319 323 322 322 327 328 325 328 332 333 334 332 330 329 329 328 328 329 330 331 331
301 302 302 302 302 303 303 303 304 304 304 305 305 306 308 309 307 307 308 311 311 311 313 314 314 315 318 321 324 324 326 329 325 325 328 330 331 331 330 329 329 328 328 328 331 330 329
303 303 304 304 305 305 306 306 306 306 306 306 307 310 311 310 308 307 309 312 312 312 313 311 312 316 319 320 321 324 326 328 328 324 329 331 330 330 330 329 329 329 329 328 328 329 329
303 304 305 306 306 306 304 303 303 303 304 307 308 311 312 310 308 309 312 311 311 311 310 309 310 311 312 314 316 320 327 326 328 325 326 329 331 330 330 330 328 329 330 329 330 333 334
303 304 305 306 305 303 302 302 302 302 303 307 311 311 310 309 309 310 312 310 310 308 308 308 308 309 310 314 315 318 323 324 324 326 328 326 329 331 331 330 329 329 332 330 329 330 332
303 304 305 305 304 302 302 301 301 301 302 304 310 314 311 309 310 310 310 309 308 309 308 309 309 309 311 313 314 318 323 324 322 322 326 329 327 331 333 332 330 330 331 332 332 335 332
303 304 304 304 303 302 302 301 301 301 301 304 310 312 311 308 311 310 309 309 307 309 309 310 309 308 310 310 313 317 317 319 319 320 323 325 330 333 333 334 332 331 330 331 332 331 336
302 302 303 304 304 303 302 301 301 301 300 305 311 312 311 309 308 309 309 307 308 308 309 308 309 309 309 310 311 314 315 317 316 318 321 321 328 333 335 335 335 333 330 331 331 333 333
302 302 302 302 303 303 302 301 301 301 300 307 308 311 309 311 310 310 308 308 309 310 308 308 308 309 310 309 310 312 313 313 316 319 320 324 330 331 332 334 334 331 330 331 332 334 335
302 302 302 302 303 302 302 301 301 300 300 306 307 308 307 309 309 309 309 308 309 308 307 308 308 309 308 308 309 311 312 312 315 316 317 320 327 330 333 333 333 334 331 331 331 331 332
301 301 302 302 302 301 301 301 300 300 303 306 306 304 304 307 309 309 310 309 308 307 308 307 307 307 308 308 308 308 308 309 310 313 315 318 323 327 331 332 334 335 334 332 331 331 332
301 301 301 301 300 300 300 301 301 302 304 305 306 305 303 307 309 309 309 309 309 308 308 307 306 307 307 307 307 307 308 309 311 312 314 316 319 324 329 331 336 334 333 332 333 332 332
299 300 301 302 303 303 302 303 303 303 305 305 306 305 303 307 307 308 308 309 308 309 308 308 308 308 307 307 308 310 311 310 312 313 313 315 317 322 328 331 333 333 332 333 332 333 333
303 306 306 306 305 305 305 305 305 305 307 306 306 306 305 303 306 307 309 308 309 311 309 308 308 307 306 308 308 311 311 312 312 313 314 315 317 319 324 328 332 332 331 331 331 332 333
307 307 308 308 308 307 307 307 306 306 307 307 307 308 306 303 304 306 307 309 308 308 309 308 308 307 307 309 312 313 312 313 314 314 314 315 316 318 321 324 328 326 326 328 332 340 336
308 308 309 309 309 308 308 308 307 307 307 308 308 308 307 304 305 306 306 307 308 308 309 308 308 309 311 312 311 314 315 314 314 314 315 316 316 317 319 322 325 324 324 330 333 328 327
309 310 310 309 309 309 309 308 308 307 308 309 308 309 308 306 306 307 307 307 307 308 308 308 308 307 308 311 312 311 312 312 313 314 314 314 315 317 318 320 324 320 320 320 320 321 322

GFSGBSN_850_thetae_039.txt.gz
Theta_e
301 301 301 301 301 301 301 302 302 302 302 303 303 303 303 304 304 304 305 305 305 305 306 307 310 315 313 315 320 325 321 320 320 318 318 320 324 332 335 343 344 345 348 347 345 344 344
301 301 301 301 301 301 302 302 302 302 302 302 303 303 303 304 304 304 305 305 306 306 306 309 309 315 314 318 325 324 321 321 320 319 318 321 326 330 337 342 344 344 345 346 343 345 345
301 301 301 301 302 302 302 302 302 302 302 303 303 303 303 304 304 305 305 307 311 311 311 312 311 313 316 317 325 326 325 324 321 319 318 321 326 328 335 337 342 343 345 347 347 345 345
301 301 301 302 302 302 302 302 302 302 302 302 303 303 303 304 304 306 310 311 312 312 313 315 314 315 317 317 326 325 326 325 323 322 319 321 325 325 328 335 339 342 341 344 345 343 343
301 302 302 302 302 302 302 302 302 302 302 302 303 303 303 304 304 308 311 311 310 311 317 320 320 319 322 324 326 324 323 324 325 324 324 323 324 325 326 333 337 339 343 340 343 342 343
302 302 302 302 302 302 302 302 302 302 302 303 303 303 303 303 304 310 312 310 309 322 317 321 323 322 320 322 326 327 321 320 322 325 326 325 327 324 325 329 336 340 340 339 341 343 341
302 302 302 302 302 302 302 302 303 303 303 303 303 303 303 304 305 311 312 310 308 313 311 309 311 316 316 325 327 327 326 325 322 326 327 328 327 327 326 328 331 338 340 337 337 340 340
302 302 302 302 302 302 302 303 303 303 304 304 303 303 304 304 305 310 313 309 308 308 308 309 310 311 314 319 317 324 326 325 322 326 327 329 329 328 328 328 329 335 339 339 334 336 336
302 302 302 302 302 302 302 303 303 305 305 305 304 304 304 305 306 311 312 308 307 308 308 309 311 311 312 312 315 318 323 325 322 326 329 331 332 331 332 329 329 332 335 337 337 333 334
302 302 302 302 302 302 303 303 304 305 306 306 306 304 304 304 306 309 311 308 307 308 309 313 314 316 316 313 316 319 322 324 324 325 330 332 333 333 333 331 330 332 333 336 338 336 334
302 302 302 303 303 304 304 305 305 306 306 307 307 306 304 305 307 310 309 307 308 309 313 319 317 316 314 315 317 318 325 323 324 325 330 333 334 334 333 333 332 333 331 334 337 336 332
303 303 304 304 305 306 306 306 305 305 306 307 309 307 305 307 309 308 308 308 309 310 314 314 314 313 312 314 317 319 320 322 323 324 328 331 335 333 333 333 333 333 331 328 332 332 331
304 304 305 306 306 306 304 303 303 303 303 306 310 309 308 308 308 308 307 308 309 310 313 313 311 311 311 315 318 318 320 319 323 323 328 328 331 333 330 332 331 331 325 324 325 329 329
304 305 306 306 306 305 303 303 303 304 303 304 309 310 310 311 309 310 308 309 311 312 312 311 310 310 311 312 313 314 315 321 324 323 325 328 330 332 332 328 327 328 326 322 324 325 325
304 305 306 306 306 305 303 303 303 303 304 303 309 312 312 312 311 309 309 310 311 311 310 309 308 308 309 310 311 312 314 320 324 326 323 325 328 331 333 330 327 326 325 323 323 325 325
303 304 305 305 305 304 303 303 302 302 303 303 307 312 312 310 310 309 310 311 311 310 308 308 308 307 307 310 311 311 314 318 322 321 321 322 322 328 331 332 330 326 325 324 323 324 325
302 303 304 304 304 304 303 303 302 301 302 302 308 312 312 311 309 309 310 311 309 309 309 308 309 309 308 311 311 311 313 314 318 318 318 319 322 323 326 329 330 325 325 325 323 322 324
302 302 302 303 303 304 303 303 302 301 301 302 308 312 312 311 309 310 309 309 308 307 308 309 309 309 307 308 310 310 312 315 315 315 314 319 321 323 323 326 329 327 325 324 325 324 325
302 302 302 302 302 302 303 302 302 301 300 300 308 311 311 310 309 309 309 308 308 308 309 309 308 308 307 309 311 312 314 313 313 313 316 319 321 327 325 324 325 327 326 325 324 325 326
301 302 302 302 302 302 302 302 301 301 300 304 310 309 310 309 309 309 309 309 308 308 309 309 309 308 308 309 310 312 312 313 311 312 315 317 320 323 328 325 327 328 328 326 326 327 327
301 301 301 301 301 302 301 301 300 300 300 306 308 308 308 309 309 308 309 309 310 309 308 308 308 308 309 309 308 310 310 310 310 313 312 312 318 323 328 329 330 332 328 328 327 327 328
301 301 301 301 301 300 300 300 300 301 301 306 307 307 305 305 307 309 309 310 310 309 309 307 307 307 307 308 308 308 308 308 310 310 310 310 317 322 329 330 332 333 333 329 328 328 327
300 299 299 300 301 303 303 303 302 302 305 306 306 306 305 305 306 308 309 310 310 309 310 309 308 306 306 307 307 308 307 308 308 309 309 310 314 319 329 330 331 333 333 332 329 328 328
299 301 304 306 306 305 305 305 304 304 306 305 305 307 304 306 306 307 307 308 310 309 309 309 309 309 308 308 308 307 307 308 308 308 309 310 312 317 325 328 334 331 331 332 330 330 328
303 307 307 306 306 307 306 306 306 305 307 306 306 307 305 305 305 306 307 308 309 308 308 309 308 308 308 308 308 308 307 309 310 309 310 311 312 316 325 331 331 333 330 330 332 338 334
307 307 307 308 308 308 308 307 307 307 307 307 307 307 306 303 305 306 307 306 307 308 309 308 309 308 308 307 308 310 309 311 313 311 311 312 313 317 322 330 335 328 325 324 329 337 330
308 309 309 309 309 309 309 308 308 307 307 307 307 308 308 304 305 306 306 307 308 308 308 308 308 308 309 309 312 312 313 314 314 315 313 314 315 316 319 323 327 321 323 329 336 334 325
309 310 310 310 310 309 308 308 308 307 308 307 308 309 308 306 307 307 307 306 306 306 309 308 309 309 310 311 312 312 314 314 313 313 315 315 317 317 318 322 328 318 321 324 329 323 322
310 310 310 309 309 308 307 308 309 309 308 309 309 309 309 308 308 308 308 308 308 307 307 308 308 308 308 309 310 309 310 312 312 315 313 316 314 316 316 318 316 316 316 318 318 318 318

GFSGBSN_850_thetae_042.txt.gz
Theta_e
302 302 302 302 302 302 302 302 303 303 303 303 303 304 304 304 305 305 306 307 309 310 310 310 308 309 315 312 318 324 321 320 317 317 318 317 322 325 329 334 338 344 345 347 347 344 344
301 302 302 302 302 302 302 303 303 303 303 304 304 304 305 305 305 305 309 311 312 312 310 312 311 312 313 315 320 324 324 321 319 317 317 318 324 327 329 330 338 343 343 345 344 341 343
302 302 302 302 302 302 302 303 303 303 304 304 304 304 305 305 305 306 310 310 309 308 310 311 313 315 313 312 319 325 324 323 320 320 318 318 326 326 328 333 334 337 343 345 342 342 342
302 302 302 302 302 302 303 303 304 304 304 304 304 305 305 305 305 307 311 311 309 314 317 319 319 316 313 313 317 321 325 324 323 320 320 318 322 324 324 327 326 336 339 347 345 344 345
302 302 302 302 302 303 303 303 304 304 305 305 305 305 305 305 305 309 311 310 308 316 313 311 321 322 318 317 322 324 323 325 325 320 319 318 319 321 324 322 323 331 336 341 346 345 345
302 302 302 303 303 303 303 304 304 305 306 307 307 306 307 306 305 307 312 310 307 310 317 310 321 320 317 319 322 324 325 325 324 322 320 319 320 318 320 321 327 332 338 337 340 339 344
302 302 302 303 303 303 303 304 304 305 306 307 308 307 307 307 305 308 312 309 307 307 307 307 307 312 310 311 314 324 325 324 326 323 321 322 321 322 322 321 325 330 335 338 337 337 339
302 302 302 303 303 303 304 305 305 306 307 307 309 308 308 308 306 309 312 308 308 307 306 309 309 308 308 309 309 319 323 323 323 323 322 324 324 323 324 322 324 327 329 336 337 337 334
302 303 303 304 304 306 306 305 305 306 306 307 308 309 309 308 307 306 308 307 307 307 305 308 312 311 312 312 310 313 318 323 322 322 323 325 327 326 326 325 325 326 327 329 336 336 333
303 304 304 305 306 306 304 303 304 304 304 305 307 309 310 309 307 308 307 307 308 308 304 310 313 313 312 313 312 316 315 319 323 321 321 323 326 327 328 327 325 325 326 328 332 335 336
304 305 306 306 306 305 303 303 304 304 304 304 304 309 310 307 307 308 307 308 308 308 308 314 311 311 310 312 314 314 315 317 320 322 320 325 326 329 328 328 328 326 326 328 331 332 333
304 305 306 306 306 306 305 304 304 304 304 304 304 308 310 308 309 309 308 308 309 307 311 312 309 309 309 310 311 312 313 316 321 320 322 323 328 329 330 330 330 329 329 329 329 328 333
304 305 305 306 305 305 305 304 305 304 304 304 304 306 311 310 310 309 309 309 305 306 310 309 307 307 307 308 310 311 312 312 316 319 321 323 324 328 331 331 330 330 328 330 331 328 330
303 303 304 304 304 304 304 304 304 303 303 304 303 310 312 311 310 310 309 305 309 309 307 307 306 306 306 309 310 310 311 312 316 316 320 321 323 325 329 331 332 330 326 326 332 326 329
302 302 302 303 303 303 303 303 303 303 302 303 304 312 311 310 310 310 309 306 307 307 307 307 307 307 306 309 311 309 310 313 315 315 317 319 322 326 327 330 330 330 330 322 319 319 320
301 302 302 302 302 302 302 303 303 302 302 302 303 311 312 311 311 309 305 308 308 308 307 307 307 307 306 308 310 310 310 312 315 314 313 315 319 322 327 327 329 325 323 325 317 323 323
302 302 302 302 302 302 302 302 302 301 301 301 305 310 312 311 311 309 304 306 307 307 308 308 308 308 305 305 305 310 309 310 313 313 312 312 315 321 320 324 329 328 325 322 321 317 321
301 301 301 301 301 302 302 302 301 301 300 301 306 306 310 309 307 305 305 306 308 306 308 307 307 307 305 306 308 309 310 312 313 312 312 313 317 320 322 321 322 331 323 321 323 320 318
300 300 300 301 301 301 301 301 301 300 300 301 307 309 309 309 304 304 306 309 308 308 308 308 307 307 307 307 309 311 312 310 311 311 313 313 319 319 322 320 320 321 327 321 318 318 320
300 301 301 301 300 300 300 300 300 300 301 302 308 304 307 308 306 306 306 308 309 309 308 308 308 307 307 307 308 309 311 311 310 310 311 311 309 314 321 320 320 322 323 325 321 322 322
300 300 299 299 300 301 303 304 303 303 302 304 307 304 306 303 305 305 306 308 309 309 308 308 306 307 307 307 307 308 308 308 308 309 310 309 309 310 310 313 318 323 326 325 322 324 324
299 299 300 302 306 306 306 305 304 304 303 305 306 307 305 305 305 305 306 308 310 310 309 309 309 309 306 305 306 308 308 307 309 308 308 308 310 309 312 321 325 328 330 330 324 324 324
300 301 304 307 307 307 306 306 305 305 305 305 306 306 306 307 306 306 307 307 307 308 309 309 309 308 307 306 307 307 307 307 307 309 310 309 309 309 315 322 329 330 327 331 327 324 324
303 307 307 307 307 307 307 307 306 306 306 305 305 306 305 306 306 307 306 307 308 308 309 308 308 308 308 308 308 307 307 306 306 306 308 309 308 308 314 320 332 326 323 324 329 328 327
308 308 308 308 308 309 309 308 308 307 306 306 306 307 306 305 305 306 307 308 306 306 307 308 308 308 308 307 305 305 305 306 307 308 308 308 310 309 316 326 328 325 322 321 323 325 323
308 308 308 309 310 309 309 309 308 307 307 307 307 307 308 305 306 306 306 306 307 308 308 308 308 307 308 306 306 308 309 311 315 311 309 308 310 310 313 324 331 319 319 323 325 324 320
308 309 310 310 309 309 308 308 307 307 307 307 308 308 308 305 306 307 307 305 305 307 307 307 307 307 308 308 311 312 314 313 317 316 312 312 313 314 316 323 324 318 318 324 327 325 320
310 310 310 308 307 307 307 308 309 308 308 308 308 308 309 307 308 308 307 307 307 306 307 307 307 306 306 305 309 310 311 312 313 313 314 314 317 317 316 323 324 316 317 319 316 317 317
309 307 306 307 310 311 312 312 310 309 308 309 309 309 309 308 309 308 308 308 309 308 307 308 307 307 307 304 304 307 310 311 311 314 311 313 313 313 314 317 314 314 317 316 314 315 315

GFSGBSN_850_thetae_045.txt.gz
Theta_e
302 302 302 302 302 303 303 303 304 304 305 305 305 305 305 305 305 305 307 310 309 308 309 309 309 311 311 312 313 320 321 320 317 314 317 321 329 330 330 333 337 347 347 347 350 350 347
302 302 302 302 303 303 303 304 305 306 306 306 305 305 305 305 306 306 309 311 310 308 315 312 310 312 312 311 315 321 321 321 316 314 317 325 327 328 328 328 338 339 340 342 344 345 341
302 302 302 303 303 303 304 304 305 306 307 307 307 307 307 306 306 306 309 310 309 308 315 310 311 316 315 311 315 323 323 322 317 317 317 318 323 326 325 330 330 333 338 337 340 342 343
302 302 303 303 303 304 304 304 304 305 306 308 308 308 308 308 306 306 307 310 309 308 317 313 310 317 314 311 312 316 317 324 318 317 317 317 318 325 323 325 324 333 332 337 339 344 341
302 303 303 303 303 303 303 304 305 306 306 308 309 309 309 308 307 306 307 309 307 308 316 310 315 320 318 319 319 320 319 325 321 316 317 317 318 319 323 323 321 324 333 340 340 342 344
302 302 303 303 304 304 305 306 306 306 307 308 309 309 309 309 308 307 308 308 307 308 310 309 313 315 314 312 312 316 319 322 325 323 318 318 318 315 317 318 328 325 334 334 336 339 344
302 303 304 304 305 306 305 305 305 305 305 305 306 307 309 308 309 307 308 307 307 307 307 307 309 307 311 311 313 312 318 322 324 319 316 317 316 318 318 321 323 328 333 336 335 336 341
303 304 305 306 306 305 304 304 304 304 304 304 304 304 307 309 309 306 308 307 307 307 305 308 311 309 311 310 310 312 317 322 322 319 318 318 318 317 318 320 321 322 324 329 331 334 334
305 305 306 306 306 305 305 304 304 304 304 304 304 305 307 310 308 307 306 308 308 308 304 308 311 310 311 311 310 312 313 317 320 323 321 322 323 321 322 322 322 321 322 325 329 333 333
304 305 305 306 305 305 304 304 304 304 304 304 304 304 307 309 307 308 308 308 308 308 303 308 309 310 309 312 311 312 314 313 319 322 323 321 322 323 322 324 322 320 323 325 328 331 334
304 304 305 305 304 304 303 303 303 303 303 304 304 304 305 310 308 309 308 309 309 308 307 311 307 309 308 307 309 312 313 316 315 317 319 321 323 323 324 325 324 324 323 324 326 327 330
303 303 303 304 303 303 303 303 303 303 303 304 303 307 311 311 309 310 309 309 309 306 309 309 307 307 306 308 309 310 312 316 316 317 317 319 322 323 324 325 325 325 324 325 325 325 329
302 303 303 302 302 302 302 302 303 303 303 303 303 311 311 310 310 311 310 309 305 305 307 307 306 305 305 309 308 309 312 314 315 319 318 319 321 320 325 325 325 326 322 325 327 327 331
302 302 302 302 302 302 302 302 302 302 302 303 303 312 311 311 311 310 310 304 307 308 306 306 306 306 306 309 309 309 308 313 314 314 316 318 321 321 323 327 327 326 327 325 329 330 331
301 302 302 302 302 302 302 302 302 302 302 302 303 311 312 311 310 310 309 305 307 307 307 306 306 306 306 308 309 308 309 313 313 312 314 317 319 315 318 324 328 328 329 325 322 317 322
301 301 301 301 301 301 301 301 302 301 301 302 303 310 312 311 311 310 304 306 307 307 307 306 307 307 307 304 305 308 308 312 314 312 312 313 316 315 319 321 325 329 324 327 318 328 322
300 300 300 301 301 301 301 301 300 300 301 301 303 310 310 310 310 308 303 303 306 307 308 307 307 307 306 305 306 308 308 311 312 312 312 312 314 317 318 320 323 324 328 325 326 320 331
300 300 300 301 300 300 299 300 300 301 301 301 304 304 308 309 306 302 303 305 308 306 308 307 306 305 305 305 307 308 311 311 311 310 313 312 316 321 319 320 318 319 325 318 330 326 316
300 300 300 299 299 300 303 305 305 303 302 302 305 308 308 308 304 303 304 307 308 308 307 307 307 306 306 306 307 310 311 310 311 311 311 312 316 313 320 317 317 318 320 321 321 315 318
299 299 299 300 302 306 307 307 306 306 303 303 307 303 307 306 305 304 305 307 309 309 308 307 306 306 306 306 306 307 310 311 309 309 313 311 313 311 317 314 312 313 313 314 317 319 320
300 300 300 303 307 307 307 307 306 306 306 304 306 303 305 302 303 303 304 306 308 310 309 307 307 308 307 305 305 306 307 307 308 310 309 309 310 310 310 310 311 311 312 313 318 321 322
304 303 304 307 307 306 307 307 306 306 307 305 305 306 305 305 305 305 305 307 308 308 308 309 309 309 307 304 304 303 306 306 306 307 308 308 309 309 312 311 312 313 314 318 320 324 320
304 307 307 308 308 307 307 307 307 307 306 305 305 305 305 306 306 307 307 308 308 307 308 309 308 308 308 308 307 307 306 306 305 307 308 308 310 310 310 312 314 322 322 323 326 322 324
307 308 308 308 308 308 308 308 308 307 306 305 306 306 306 307 307 308 307 307 308 308 307 307 307 308 308 308 307 307 305 305 305 306 307 308 310 311 310 311 329 321 319 320 321 319 319
308 308 309 309 309 309 309 309 308 307 306 307 307 307 306 306 306 307 307 308 307 306 307 307 307 307 307 306 304 304 303 304 305 307 307 307 309 313 311 315 325 322 319 320 320 319 317
309 310 310 309 308 307 307 307 307 307 307 307 307 307 307 305 307 306 307 307 307 306 308 307 307 307 307 306 305 306 307 310 313 308 307 308 308 311 314 320 330 320 317 318 321 319 317
310 308 307 306 307 307 308 308 309 308 307 307 308 308 308 306 307 307 307 307 304 304 306 306 308 307 306 307 309 310 309 308 316 314 311 310 311 311 315 318 322 318 315 318 323 320 315
308 311 312 312 312 312 312 311 309 308 308 308 308 309 308 308 308 308 307 307 307 306 305 307 306 305 306 306 308 307 310 310 311 311 313 313 316 316 317 323 327 313 318 319 314 315 313
312 312 312 312 312 312 312 311 308 308 308 308 308 309 309 308 308 308 308 309 309 308 307 307 307 306 306 305 305 307 310 309 310 312 310 314 311 313 312 317 313 310 316 313 312 311 311

GFSGBSN_850_thetae_048.txt.gz
Theta_e
302 302 303 303 303 304 304 305 305 306 307 308 308 308 307 307 306 306 306 309 309 309 308 311 310 310 311 310 310 313 320 320 318 314 318 329 339 340 338 339 340 348 349 348 349 350 350
302 303 303 303 304 304 304 304 304 305 306 307 309 309 308 308 308 307 306 308 308 309 307 312 312 309 312 309 312 320 320 320 319 315 319 326 338 338 334 333 339 340 344 344 344 343 343
303 303 303 303 304 304 304 305 306 306 306 307 308 309 309 309 309 308 307 307 308 308 308 313 309 311 314 312 313 319 317 320 318 315 316 321 325 332 325 328 331 336 332 332 335 340 341
302 303 303 303 304 305 305 305 305 305 305 305 306 307 308 308 309 309 308 308 308 307 309 309 311 314 314 316 316 316 316 324 317 317 320 323 325 328 323 324 323 328 330 336 337 338 341
303 303 304 304 305 305 304 304 304 304 305 305 304 305 306 307 309 309 307 308 307 307 308 309 313 313 315 317 315 316 314 320 321 314 317 318 322 320 323 322 322 321 335 337 339 338 342
304 304 305 306 305 304 304 304 304 305 305 304 304 304 305 307 309 308 307 308 308 307 308 311 311 312 313 310 310 313 316 320 321 316 317 317 317 313 314 319 326 326 328 334 338 337 342
305 305 305 305 305 305 305 304 304 304 304 304 304 304 306 307 308 307 307 308 308 308 308 307 308 309 310 310 312 312 313 320 323 320 317 315 314 315 316 321 323 326 331 334 334 333 343
305 305 305 305 305 304 303 303 303 303 303 304 304 303 304 306 308 307 307 308 308 308 306 308 310 309 309 309 310 313 314 321 319 317 315 315 315 315 315 317 321 322 323 328 329 333 336
304 304 305 305 304 303 303 303 303 303 303 304 304 303 305 307 308 309 307 308 309 308 304 307 310 309 309 309 311 311 313 314 319 318 317 316 317 316 317 318 319 320 321 322 330 328 332
303 303 303 303 303 303 302 302 303 303 303 304 304 304 310 309 307 309 309 309 309 308 301 308 308 308 308 309 310 310 310 313 315 321 319 318 319 319 317 318 318 317 321 324 323 327 330
302 302 303 303 302 302 302 303 303 303 302 303 303 307 311 310 308 309 309 310 309 307 305 308 307 308 308 308 309 308 312 316 313 314 319 323 320 321 320 318 319 318 320 321 323 325 327
302 302 302 302 302 302 302 302 302 302 302 303 303 309 310 310 310 310 310 309 307 304 307 307 307 306 307 308 309 309 313 315 315 316 315 315 319 320 322 321 321 322 323 321 322 321 326
301 301 301 302 302 302 302 302 302 302 302 302 303 307 311 311 310 310 309 309 303 304 306 306 306 305 306 308 307 307 312 313 313 316 316 318 317 318 320 321 321 322 321 322 323 324 329
301 301 301 301 301 301 301 302 301 301 301 302 302 305 311 310 310 310 309 304 307 307 306 306 306 305 305 306 308 307 310 314 312 312 314 318 320 319 319 321 323 323 320 321 325 326 330
302 301 300 300 301 301 301 300 300 301 301 302 302 307 311 311 311 310 308 304 306 306 306 306 305 305 305 305 307 306 309 314 312 311 313 314 317 315 317 318 322 323 324 320 322 318 323
303 301 300 300 300 300 299 300 304 307 306 302 302 308 311 310 311 310 303 306 306 306 306 306 305 306 306 304 305 306 307 312 312 311 311 312 314 315 317 318 320 322 322 325 320 328 323
307 300 300 300 299 299 302 306 308 309 308 305 303 309 309 309 308 307 302 303 305 307 307 306 305 305 305 305 306 307 307 311 311 311 310 311 312 315 317 319 320 320 327 325 324 322 327
305 300 299 299 300 303 307 307 307 307 308 306 303 302 308 309 306 301 302 303 307 307 307 306 305 304 304 304 306 307 308 310 311 310 312 311 313 317 317 317 315 317 319 321 331 327 318
304 301 300 300 303 307 307 307 307 307 307 305 305 306 307 309 303 301 302 305 307 307 307 306 306 305 305 304 306 308 310 310 310 310 310 311 316 311 316 314 312 314 314 311 311 319 330
305 303 303 304 307 307 307 307 307 307 307 305 305 302 305 306 304 303 304 305 308 308 308 307 306 305 305 305 304 305 309 310 309 309 312 310 308 310 313 313 311 312 313 312 312 315 324
304 304 307 307 307 307 307 307 307 308 307 305 305 302 303 301 302 303 305 304 307 309 308 308 307 308 307 306 304 305 305 308 309 311 309 307 308 309 309 310 311 311 312 313 313 313 318
307 308 308 307 307 307 308 308 308 307 307 305 306 305 305 304 304 305 305 305 307 308 307 308 309 309 308 307 304 304 305 304 306 306 307 305 307 310 310 310 311 313 313 314 314 315 316
308 308 308 308 308 309 309 308 308 307 306 305 305 305 305 306 307 307 307 308 308 307 306 308 309 308 306 307 308 306 305 305 303 305 304 306 306 311 310 309 311 317 316 319 319 318 321
308 309 309 309 309 308 307 308 308 306 306 306 306 306 306 308 307 308 308 308 308 308 309 307 307 308 308 308 307 306 305 305 304 303 304 304 306 311 308 311 321 320 319 319 318 318 317
310 308 307 306 306 306 306 307 307 307 307 307 307 307 306 306 307 307 308 309 307 307 307 308 307 307 307 307 305 303 302 303 303 303 303 304 308 310 312 313 315 322 318 318 319 317 316
308 309 311 311 311 311 310 309 308 307 307 307 307 307 307 306 308 307 308 307 307 306 307 308 307 307 306 306 307 308 307 301 308 305 304 304 308 309 314 316 329 320 315 315 318 319 315
312 312 312 312 312 312 312 310 308 308 308 308 308 308 308 306 308 307 307 308 306 303 304 305 306 306 305 305 308 309 309 308 310 308 308 310 310 309 310 315 318 314 311 316 324 319 313
312 312 312 312 312 312 311 309 308 308 308 308 308 309 308 308 309 308 308 307 308 306 306 306 306 304 305 307 308 307 308 309 310 310 309 310 311 311 312 317 325 310 315 318 313 312 311
312 312 312 312 312 312 311 309 308 308 308 308 308 308 308 308 309 309 309 307 308 308 307 306 306 306 306 307 306 306 309 307 309 312 309 314 310 312 312 313 309 309 311 311 313 312 312

GFSGBSN_850_thetae_051.txt.gz
Theta_e
303 303 303 303 304 304 305 305 305 305 306 306 307 308 308 308 308 309 308 308 307 308 308 309 312 311 309 310 310 315 317 320 319 313 325 326 334 335 334 339 345 349 351 350 350 349 349
303 303 303 304 305 305 305 305 305 305 305 305 305 306 307 307 308 308 309 308 308 308 307 311 310 312 311 312 311 319 320 319 317 320 328 328 332 333 334 343 342 343 345 348 346 345 346
303 303 304 304 305 305 304 304 304 305 305 305 305 305 305 306 307 308 308 308 308 308 308 308 310 313 313 313 314 315 320 318 316 326 328 332 330 330 328 332 336 338 342 339 339 341 343
304 304 305 305 305 305 304 304 304 304 304 304 304 305 305 306 307 308 308 308 308 308 308 310 312 314 316 316 314 314 313 321 315 322 325 329 327 331 324 324 325 330 332 342 342 341 342
305 305 305 305 305 305 304 303 303 303 303 304 304 304 305 306 308 307 308 309 308 308 308 312 311 313 312 311 311 312 316 320 318 326 318 321 322 325 325 327 328 329 332 338 344 341 344
305 305 305 305 305 304 303 303 303 303 303 304 304 304 305 305 307 308 308 308 308 308 309 312 310 312 311 310 311 313 315 320 319 323 319 317 322 321 322 326 324 328 329 338 347 343 343
304 304 304 304 304 303 303 303 303 303 303 304 304 304 304 308 307 307 307 308 309 309 308 309 309 309 309 311 312 312 316 321 320 317 318 317 319 322 321 323 326 330 332 336 341 342 344
303 303 303 303 303 303 303 303 303 303 303 303 303 303 307 310 309 307 307 309 309 308 309 308 309 309 308 309 310 310 317 322 323 320 317 317 318 319 319 319 323 324 329 334 336 336 340
302 302 302 302 302 302 302 302 302 302 303 302 302 303 310 310 309 308 309 309 310 309 307 308 308 308 308 309 310 310 312 314 322 323 319 318 319 318 318 318 319 322 325 330 333 330 335
302 302 302 302 302 302 302 302 302 302 302 303 302 303 310 309 308 309 309 309 309 308 309 311 309 308 309 310 310 309 313 313 315 324 322 322 322 319 318 318 319 320 321 326 328 329 341
308 303 301 301 301 301 301 301 302 302 302 302 302 303 310 309 309 310 309 309 309 307 309 309 308 308 308 309 309 310 312 316 316 317 321 325 322 322 320 320 319 319 320 320 325 330 330
318 309 303 301 301 301 301 302 301 301 302 302 302 302 308 310 310 310 309 309 307 309 309 308 308 307 309 309 309 309 313 314 315 319 319 320 322 323 323 321 319 320 322 322 321 324 334
321 315 304 301 301 301 301 300 301 305 308 306 303 302 308 310 310 310 309 308 309 309 308 308 308 307 308 308 309 310 314 315 317 319 321 320 319 320 323 324 322 321 322 326 326 324 328
320 311 305 300 300 300 300 301 307 309 309 309 305 303 310 309 310 310 309 309 309 309 308 307 307 307 308 307 308 309 312 315 313 314 319 321 319 320 321 323 324 324 324 323 327 325 322
317 308 302 300 300 299 301 307 309 309 308 308 304 307 310 310 311 311 309 310 310 308 308 307 307 308 307 307 307 308 311 314 314 311 316 320 321 317 319 320 323 325 326 324 323 325 326
314 305 301 299 299 301 306 308 309 309 308 307 305 309 309 310 310 310 310 308 308 307 307 307 308 307 307 307 307 308 308 313 314 310 312 315 319 318 318 319 321 324 325 327 326 326 328
309 305 301 300 301 305 308 308 309 309 307 307 305 309 308 309 308 307 310 307 307 307 308 308 307 307 307 307 307 308 308 312 312 310 312 313 313 316 318 322 323 323 325 327 327 327 327
307 305 303 303 306 308 308 308 309 309 307 308 305 309 308 310 309 305 309 307 307 308 307 308 307 307 307 307 307 308 308 310 311 309 309 312 314 315 316 319 319 319 323 325 330 331 329
305 304 305 308 308 307 307 308 308 308 308 307 305 305 307 309 310 309 307 307 307 309 309 308 308 306 307 307 307 309 310 311 310 310 310 312 314 313 312 317 317 319 318 319 322 325 332
306 308 308 308 308 307 307 308 308 308 307 306 305 308 306 306 304 306 305 307 308 308 309 309 308 307 307 307 307 307 310 311 310 310 312 311 311 310 313 314 313 316 315 316 319 329 331
308 308 308 308 308 308 308 308 308 308 307 306 305 305 304 308 307 307 306 306 307 308 309 308 309 309 309 308 307 308 308 309 310 310 311 310 309 308 308 309 311 311 312 314 317 322 327
308 308 309 308 308 308 308 307 307 307 306 306 306 306 305 306 305 307 306 307 307 308 307 308 308 309 310 311 308 307 307 308 309 310 310 309 308 309 308 308 311 313 313 314 316 318 319
309 308 307 306 306 306 306 306 307 306 306 306 305 306 306 307 307 307 308 308 309 308 307 307 308 308 308 306 307 307 307 307 306 308 311 310 310 308 307 311 313 316 316 316 319 321 322
308 310 311 311 311 309 308 307 307 306 306 306 306 306 306 309 307 309 308 308 309 309 309 307 307 308 308 308 307 307 307 307 307 308 307 309 308 309 308 308 317 319 321 318 321 321 321
311 312 312 312 312 311 311 310 308 306 307 307 307 307 307 308 308 308 309 308 308 307 307 307 307 308 307 306 308 308 307 308 309 308 308 308 309 309 310 317 318 322 319 320 323 321 318
312 312 312 311 311 311 311 310 308 307 308 307 308 308 307 307 309 308 308 308 308 306 305 306 306 307 306 308 309 309 310 307 308 308 308 308 309 311 310 316 326 320 316 315 318 325 314
312 312 312 312 312 312 311 308 308 308 307 308 308 308 308 307 308 308 308 308 306 305 305 305 306 307 305 309 309 310 311 308 310 309 307 308 310 310 310 312 315 311 311 316 326 322 313
312 312 312 313 312 311 311 308 308 308 308 308 308 308 308 308 309 308 308 307 308 306 307 305 308 306 307 308 309 309 309 310 310 309 308 309 310 311 310 312 317 309 312 321 316 314 313
312 312 313 312 312 311 310 309 308 307 308 308 308 308 308 308 309 309 309 308 307 307 307 306 306 307 306 306 307 307 309 308 311 312 308 310 311 314 314 315 310 311 311 312 315 315 315

GFSGBSN_850_thetae_054.txt.gz
Theta_e
303 304 304 305 305 305 305 305 305 305 305 305 305 305 305 306 307 308 308 308 308 308 308 308 310 312 309 317 314 316 318 320 318 327 331 331 333 332 333 335 339 346 348 349 349 348 349
304 304 305 305 305 305 304 304 304 304 304 304 304 305 305 306 307 307 308 308 308 308 308 308 311 312 315 317 315 317 320 319 320 327 332 328 329 329 330 333 335 340 342 350 349 348 348
305 305 305 305 305 304 304 303 303 303 303 303 304 305 305 305 307 307 308 308 309 308 308 310 312 312 318 317 315 318 326 326 327 325 327 326 329 329 326 331 333 336 344 344 345 345 345
305 305 305 305 305 304 303 303 303 303 303 303 304 304 304 305 306 307 308 309 309 308 309 312 316 319 318 313 314 318 324 325 331 327 327 328 326 329 325 327 325 330 337 347 347 342 344
304 304 304 304 304 304 303 303 303 303 303 303 303 304 304 305 306 307 309 308 308 309 311 312 316 318 315 313 312 312 314 325 330 323 326 327 325 328 328 326 325 326 333 340 346 344 345
303 303 304 304 303 303 303 303 303 303 303 303 303 304 304 308 310 308 308 308 309 310 310 312 311 317 312 313 313 312 317 324 325 324 320 321 323 326 327 326 327 329 329 335 341 348 348
303 302 302 302 302 302 302 302 302 302 303 303 303 304 305 310 309 308 308 310 315 313 312 312 311 312 311 312 313 315 323 324 323 325 322 320 324 324 324 325 326 329 332 333 344 346 348
310 306 304 302 302 302 302 302 302 302 302 303 303 303 307 309 309 308 310 311 310 310 313 309 309 311 310 311 314 314 320 324 323 327 323 321 322 324 324 324 324 326 332 335 338 343 347
322 317 311 304 302 301 301 301 302 302 302 302 302 302 308 309 309 310 310 310 309 309 313 311 311 311 310 312 313 313 317 321 325 324 323 323 323 322 322 324 324 325 326 331 336 338 340
323 320 318 309 303 301 301 301 301 301 302 304 303 302 305 309 310 310 311 309 309 308 315 314 312 311 311 312 313 312 315 318 321 326 325 324 323 322 322 322 322 323 323 324 331 335 344
322 321 317 307 302 301 301 301 300 306 309 309 308 303 303 310 310 312 309 309 308 308 313 312 312 310 311 313 312 313 315 318 320 321 326 326 325 324 323 323 323 323 323 323 323 332 337
322 321 315 307 301 301 300 300 306 309 309 308 308 305 303 310 311 310 309 309 308 314 314 312 311 311 313 312 312 313 315 316 318 320 321 324 325 325 326 324 324 323 323 323 323 324 333
321 318 308 302 300 300 300 306 309 309 309 307 307 304 305 309 312 310 309 309 314 314 312 312 312 312 312 312 312 313 315 316 318 319 319 321 322 324 325 326 326 324 324 327 326 324 324
320 313 304 301 300 300 305 309 309 309 309 306 306 304 309 310 310 311 310 314 315 313 313 311 311 311 312 311 312 311 313 315 316 317 318 321 321 321 324 326 327 326 326 327 329 327 324
315 308 304 301 301 305 309 309 309 309 308 307 307 308 311 310 310 311 313 316 315 313 311 311 311 312 312 311 311 311 313 314 315 315 317 319 319 322 322 323 326 328 328 327 328 329 329
310 306 304 303 305 308 309 309 309 309 307 309 306 311 310 309 309 310 316 313 313 310 310 311 312 312 313 312 311 312 311 314 315 313 314 318 319 320 322 322 323 326 328 329 328 330 331
306 304 304 307 308 309 309 309 309 308 307 310 308 313 310 309 309 313 317 314 311 309 310 311 312 311 312 312 311 312 312 313 314 312 312 314 315 317 319 322 322 325 327 328 329 329 331
306 307 308 308 308 308 309 309 309 307 308 310 309 314 310 310 314 312 314 311 308 311 310 310 310 311 312 312 311 311 311 311 311 310 311 312 313 316 315 320 323 323 326 327 330 332 330
309 308 308 308 308 308 309 309 308 307 308 308 310 310 310 312 317 315 312 312 310 312 312 312 312 311 311 311 311 311 310 310 311 310 311 313 312 314 313 314 317 321 324 326 327 330 333
309 309 308 308 308 308 308 306 307 307 308 308 311 316 312 310 310 311 312 312 312 310 311 311 312 311 311 311 310 310 310 311 310 309 312 311 311 312 312 314 314 318 321 322 324 329 330
309 308 307 306 306 306 306 306 306 307 308 309 310 311 309 313 310 310 311 310 309 310 310 310 312 311 311 311 310 310 310 310 310 310 312 312 312 311 311 311 310 312 314 317 319 324 328
309 310 311 311 311 309 308 307 308 308 309 310 312 311 310 309 310 311 310 311 310 310 309 309 311 310 310 313 312 312 310 310 310 311 312 312 311 310 310 310 309 309 312 315 317 319 322
311 312 311 311 311 311 311 310 309 308 309 310 309 308 310 308 309 309 309 309 309 309 309 309 309 309 308 309 309 309 310 310 311 311 313 312 312 311 310 309 309 312 313 317 318 319 321
311 312 312 311 311 311 311 311 309 308 308 309 308 308 309 311 309 309 309 309 310 310 310 308 308 308 309 309 309 308 309 309 309 310 309 313 313 312 310 310 309 310 312 317 319 320 321
311 312 312 312 312 312 312 310 309 307 308 308 307 308 308 310 309 310 310 308 308 307 307 308 308 309 308 308 310 311 310 310 310 310 310 309 312 312 310 310 309 313 322 323 323 323 323
311 312 312 312 312 312 312 310 308 308 308 309 308 307 308 310 311 310 309 308 308 307 308 307 307 308 309 309 311 312 313 311 310 311 311 310 311 313 310 310 313 317 314 313 320 328 321
312 313 313 312 312 312 311 310 308 308 308 309 309 308 308 311 311 309 310 309 307 307 308 308 308 309 308 310 313 312 313 312 311 311 311 312 312 313 312 311 313 313 310 309 325 325 316
312 314 313 312 312 312 311 310 308 308 308 309 309 308 309 310 312 310 309 308 309 308 309 308 310 309 308 310 312 312 312 311 312 311 310 311 311 312 312 313 315 310 308 316 316 317 316
313 314 313 313 313 311 310 309 308 308 308 309 309 308 309 309 312 311 310 309 308 309 308 309 310 310 307 307 308 308 311 310 311 313 310 310 310 313 313 314 311 310 309 309 315 316 317

GFSGBSN_850_thetae_057.txt.gz
Theta_e
304 305 305 305 305 305 304 303 303 304 304 304 304 304 305 305 306 307 307 308 308 308 309 309 310 312 310 321 319 319 317 319 318 319 336 335 335 336 336 338 341 345 346 350 349 350 348
305 305 305 305 305 304 304 303 303 303 304 304 304 304 305 305 306 307 307 308 309 309 309 309 313 313 320 323 318 324 327 321 322 323 330 332 332 333 332 333 337 339 341 350 349 350 351
305 305 305 305 305 304 304 303 303 303 303 304 304 304 305 305 306 306 307 308 309 310 309 313 312 317 323 320 317 325 327 324 323 326 329 331 331 332 330 332 333 336 341 346 350 350 351
304 304 304 304 304 303 303 303 303 303 303 303 304 304 305 305 307 308 308 309 309 309 310 315 316 325 321 315 316 321 327 328 325 327 331 329 328 330 330 329 329 336 338 348 349 349 349
303 303 302 302 302 302 302 302 303 303 303 303 303 304 304 306 309 309 309 309 309 310 312 313 321 325 319 315 316 316 323 327 329 328 327 328 328 328 330 329 330 330 336 342 349 346 347
320 314 308 305 303 303 302 302 302 302 303 303 303 304 304 308 310 309 309 310 309 312 312 315 319 321 316 316 316 316 318 326 332 325 328 329 328 330 331 332 329 330 332 337 346 350 348
324 322 319 317 311 305 302 302 302 302 302 302 303 304 304 309 309 310 313 315 320 319 316 316 316 316 315 315 316 319 323 326 330 325 326 326 330 328 331 331 329 328 332 334 339 347 349
322 323 321 319 313 305 302 301 302 301 302 303 304 304 304 309 309 311 314 315 313 314 318 313 314 314 314 315 317 319 324 325 326 330 326 325 326 327 327 327 327 328 330 334 336 344 348
322 322 321 316 310 303 301 301 301 301 307 309 309 306 303 309 309 314 314 313 312 313 317 315 314 314 314 315 316 317 320 325 326 329 329 328 327 326 327 327 326 327 328 334 338 343 348
322 321 320 316 307 302 301 300 302 308 309 309 308 309 303 309 311 313 315 313 313 312 319 317 314 314 314 315 316 315 317 321 325 327 326 327 327 325 325 326 327 328 327 327 332 339 345
322 321 319 309 302 300 300 302 308 309 309 309 307 307 304 305 312 315 314 313 312 313 317 316 315 312 314 316 316 316 315 319 322 323 327 326 325 325 326 326 326 327 327 326 325 331 338
321 320 313 305 301 300 302 308 309 309 309 309 306 306 303 313 313 313 313 312 311 316 315 315 315 315 315 315 315 315 316 316 319 322 323 325 326 326 326 326 326 327 326 326 326 325 330
319 313 308 303 301 303 308 309 309 309 309 306 307 305 304 308 315 313 313 313 317 315 317 316 316 315 316 316 316 316 318 319 319 320 320 321 322 325 327 327 326 326 328 329 328 327 326
312 308 305 303 305 308 309 309 309 309 307 307 309 306 310 311 312 313 314 317 317 318 317 315 314 314 315 315 316 315 316 317 319 319 320 320 322 322 323 327 329 328 328 331 333 330 327
307 305 305 307 309 309 309 309 309 308 306 310 308 312 314 313 312 313 316 319 319 318 316 315 315 315 316 315 314 315 316 317 318 319 319 320 320 323 323 323 326 329 330 328 330 331 332
306 308 309 309 309 309 309 309 309 307 308 310 311 314 314 313 312 313 318 319 318 315 314 314 316 316 317 317 315 316 317 317 318 316 316 319 322 323 322 323 325 326 329 329 328 333 334
309 309 309 309 308 308 309 308 307 306 309 311 313 317 314 314 313 315 320 319 316 313 313 315 316 316 316 316 316 316 317 316 316 316 314 316 319 320 320 323 324 325 327 329 330 330 332
309 309 308 307 306 306 306 305 306 307 311 313 315 319 314 314 317 318 320 316 312 315 314 315 314 315 316 316 316 316 316 316 314 314 314 315 315 318 319 321 322 322 323 324 332 334 331
308 308 308 308 308 307 307 307 307 308 310 312 316 316 315 316 321 320 317 316 314 316 316 316 316 315 315 315 315 315 315 313 312 312 313 315 315 316 317 318 318 320 323 325 326 328 333
309 311 311 312 312 311 310 309 309 309 310 313 316 320 316 314 314 317 317 316 316 313 314 313 315 314 315 315 315 314 314 313 312 312 311 311 314 315 316 317 317 319 321 323 326 328 328
311 312 312 311 311 312 312 311 311 311 312 314 315 315 314 317 315 315 315 314 314 314 313 313 314 313 314 315 313 314 313 313 313 312 311 312 312 313 313 314 314 315 318 321 325 327 331
311 312 312 312 312 312 312 312 311 311 313 314 316 315 313 314 313 315 314 314 313 312 313 313 313 312 313 314 314 315 314 315 314 313 314 313 314 314 314 313 313 313 314 315 319 321 324
311 311 312 312 312 312 312 312 312 311 313 313 312 312 314 310 313 314 313 312 312 312 311 311 310 312 312 312 311 311 312 312 314 314 314 314 315 315 315 313 313 313 312 313 314 317 319
311 312 312 313 313 312 312 311 310 309 312 312 312 313 314 314 312 312 312 310 311 311 313 311 310 310 311 310 310 310 311 311 312 313 312 315 315 316 318 314 313 313 313 313 314 315 319
312 313 313 313 313 312 311 310 309 308 311 312 311 312 312 314 312 312 311 310 310 310 310 310 310 310 310 310 311 313 313 313 313 312 312 312 314 316 316 315 314 312 316 321 318 320 321
312 314 313 313 313 312 311 309 308 308 309 312 311 311 313 315 314 312 312 311 310 311 312 310 310 310 310 311 312 314 314 315 314 314 313 313 312 316 314 314 314 313 318 314 318 323 322
313 314 313 313 313 312 310 308 308 308 309 312 313 311 314 315 313 312 313 312 311 310 312 311 311 311 310 312 313 314 315 313 314 313 313 315 315 316 315 315 312 317 315 313 321 323 315
314 314 314 314 312 310 309 309 309 308 309 313 311 310 314 316 315 313 312 312 311 311 313 312 313 312 309 311 313 312 313 312 312 313 312 315 314 315 315 314 314 314 314 314 314 310 310
314 314 314 313 312 310 309 309 309 309 309 313 315 311 309 312 315 314 313 312 311 311 312 312 312 312 309 309 309 309 312 311 311 317 313 313 314 315 313 313 315 313 312 313 311 309 309

GFSGBSN_850_thetae_060.txt.gz
Theta_e
305 305 305 305 305 305 304 304 304 304 304 304 304 304 305 305 306 306 307 308 308 308 309 309 309 312 312 320 325 321 321 320 319 316 335 341 338 339 340 340 342 344 347 347 348 350 349
304 304 304 304 304 304 304 304 304 304 304 304 304 304 304 305 306 307 307 307 308 309 310 310 312 312 312 328 320 325 327 326 319 319 335 340 337 337 336 337 338 341 341 345 350 350 350
303 303 303 303 303 303 303 303 303 303 303 303 304 304 304 305 306 307 309 309 309 309 309 313 312 315 328 325 319 324 327 331 326 319 330 337 335 334 334 334 333 334 340 343 349 349 352
320 316 311 308 307 306 305 304 303 303 303 303 303 304 305 304 307 309 310 310 310 309 309 314 319 325 329 317 318 322 327 326 326 321 327 331 332 332 333 331 331 333 337 340 346 351 349
324 323 322 321 318 314 309 304 302 302 302 303 303 304 304 304 308 310 310 309 310 311 312 316 322 326 327 317 317 320 327 328 326 327 330 332 331 330 330 333 331 331 336 340 343 351 351
323 322 323 321 320 317 308 303 302 302 302 302 303 304 304 304 309 310 312 313 310 312 313 315 318 323 320 318 318 317 319 327 330 327 328 330 329 330 330 332 333 331 333 335 341 349 350
322 322 322 322 320 314 305 302 302 301 302 304 307 308 305 304 309 313 315 317 320 322 321 320 321 320 318 317 317 319 320 327 331 329 331 330 332 332 332 330 332 330 330 332 334 346 350
322 322 321 320 318 309 303 301 301 302 307 309 309 309 308 304 309 314 315 317 315 316 318 317 316 316 316 317 319 322 325 327 331 330 328 331 332 331 328 331 331 332 331 330 333 342 349
323 321 320 319 311 304 301 301 303 309 309 309 309 308 309 305 309 315 315 316 315 315 317 319 316 317 316 316 319 320 324 325 328 329 329 328 327 328 329 329 329 328 329 329 333 338 346
323 321 320 312 306 302 301 304 309 309 309 309 309 307 307 305 313 316 317 315 315 314 319 319 316 316 315 316 318 317 318 323 326 328 327 329 328 328 327 328 329 328 328 328 329 334 340
320 319 312 308 303 301 306 309 309 309 309 309 307 305 306 304 309 316 316 315 314 314 319 318 317 314 316 317 318 317 317 320 323 326 327 328 329 328 328 327 328 328 329 329 327 328 332
315 310 306 304 304 307 309 310 309 309 309 308 306 307 305 315 314 315 315 315 314 317 317 317 317 316 316 317 317 317 318 318 320 323 324 325 326 327 327 327 327 327 327 329 329 327 328
309 306 307 308 309 310 310 310 309 309 308 306 310 307 304 309 317 316 315 316 317 317 319 317 317 316 317 318 317 317 319 319 319 320 319 320 323 326 327 327 326 327 327 329 329 328 328
308 309 310 310 309 309 309 309 309 308 306 309 310 307 314 311 314 314 316 319 318 320 318 317 317 316 317 318 317 317 317 318 319 320 320 322 322 321 323 327 328 327 327 329 331 331 329
310 310 309 308 307 307 307 307 306 305 308 310 311 315 316 316 314 314 317 320 320 319 318 317 317 316 317 317 316 317 317 318 319 321 321 319 319 322 324 323 325 328 329 327 328 330 332
309 308 307 307 307 306 306 305 305 306 310 312 312 317 316 315 314 315 318 320 320 317 317 317 316 318 318 318 317 317 317 319 318 319 319 319 320 321 322 324 324 324 327 329 330 332 334
309 310 311 311 311 310 309 309 309 310 312 313 316 319 317 317 315 317 320 321 319 316 315 317 317 318 318 318 318 318 318 318 318 318 317 317 318 319 320 323 323 324 325 326 328 331 332
310 311 311 311 311 312 311 310 311 312 313 315 319 320 318 317 319 320 321 319 315 318 317 317 317 317 317 318 318 318 318 318 316 316 317 317 316 317 319 321 322 323 324 324 329 331 332
311 311 312 312 312 311 312 312 311 312 312 315 320 319 317 318 322 322 319 318 317 318 318 317 318 317 317 317 317 317 317 317 315 315 316 316 317 317 318 319 320 321 322 323 324 325 332
311 311 312 312 312 312 312 312 312 312 314 315 319 321 319 317 317 319 320 318 318 314 316 315 316 316 316 317 317 316 316 316 314 314 313 312 314 317 318 319 318 319 320 320 322 324 325
310 311 312 313 313 313 312 312 313 313 314 316 318 317 316 318 318 318 318 317 317 316 315 315 316 315 315 316 316 315 315 316 315 315 313 313 313 314 314 314 315 316 317 318 320 323 327
311 311 312 313 313 313 313 313 312 314 315 316 317 319 317 315 315 317 316 316 315 315 314 316 315 315 314 314 315 315 315 315 316 316 315 315 314 314 315 316 315 315 316 316 317 320 323
311 312 313 313 313 313 313 312 312 314 316 316 316 316 316 314 315 315 314 314 314 313 313 312 312 313 313 313 312 312 312 312 313 316 315 316 318 318 318 316 316 316 315 315 316 317 320
312 314 313 313 313 313 312 310 310 312 314 315 315 316 315 316 314 314 313 313 313 312 313 312 311 312 312 311 311 311 312 311 311 312 313 315 315 317 318 316 319 318 316 316 315 316 316
312 314 313 313 313 312 310 309 310 312 314 315 315 316 317 317 314 314 313 312 312 312 313 312 311 311 311 311 313 314 314 314 313 313 312 313 315 316 316 316 315 315 316 319 321 317 317
312 315 313 313 312 311 309 310 310 311 314 315 315 316 317 317 315 314 314 313 313 314 314 312 312 312 311 312 313 315 315 316 316 315 313 314 313 318 316 314 314 314 317 316 317 319 321
312 314 314 313 312 310 310 310 310 310 314 315 315 316 318 317 315 314 314 314 313 312 313 313 313 312 312 313 315 316 316 314 314 314 314 315 318 315 316 316 314 316 315 315 317 316 317
312 314 314 313 311 310 310 310 310 310 312 316 316 313 317 318 316 316 314 314 314 313 315 314 315 314 312 313 313 313 313 313 312 313 314 315 317 317 316 315 316 316 315 315 317 315 315
312 314 314 313 311 310 310 310 310 310 311 316 318 316 314 316 317 316 316 314 314 313 314 314 314 312 311 311 310 309 312 311 311 315 312 318 315 317 313 314 315 314 314 313 313 313 313

GFSGBSN_850_thetae_063.txt.gz
Theta_e
304 303 303 304 304 304 304 304 304 304 304 304 304 304 304 305 305 306 307 307 307 308 308 309 309 309 312 319 320 321 322 321 316 318 318 338 340 338 340 340 341 343 345 349 349 349 351
321 319 316 313 312 312 311 310 309 307 305 304 303 304 304 305 305 306 308 308 308 309 309 309 312 312 313 325 320 323 326 322 317 316 329 337 340 339 339 339 337 338 340 345 348 350 351
324 323 323 322 321 320 318 315 311 308 305 304 303 304 304 305 305 307 309 310 310 309 309 310 313 313 323 326 320 322 326 326 319 317 329 339 340 340 337 334 335 332 332 334 349 349 351
323 322 322 323 322 321 319 314 308 305 303 303 303 303 304 305 305 307 310 310 309 309 309 313 317 321 329 319 319 320 327 330 326 321 330 337 337 337 332 333 332 329 330 333 337 350 351
324 322 322 322 321 320 317 309 305 303 302 302 303 305 305 306 305 308 310 311 310 310 311 314 320 329 330 319 316 320 326 327 327 325 323 327 327 331 331 329 329 328 328 331 334 348 351
323 322 321 321 320 319 310 306 303 301 302 305 308 309 309 308 305 310 313 313 314 310 313 314 315 323 324 319 318 317 325 327 326 323 323 326 331 328 326 325 329 329 328 328 332 347 351
322 322 321 321 320 311 305 302 301 304 308 309 309 309 309 309 306 311 315 316 319 318 315 326 324 323 319 317 318 318 319 327 328 327 326 329 328 327 326 326 327 329 330 328 329 335 349
322 322 321 319 311 306 302 302 307 309 309 309 309 309 309 308 306 312 315 316 315 314 316 317 319 318 316 317 318 321 321 324 330 329 328 328 328 328 330 329 329 328 329 329 329 328 348
321 320 315 310 305 302 304 309 309 309 309 309 308 308 307 307 307 314 315 316 315 315 315 316 319 316 316 316 318 323 324 324 329 331 327 326 329 330 331 330 327 327 327 327 327 327 347
315 310 306 305 306 308 309 310 309 309 309 308 308 306 305 307 312 316 317 316 316 315 314 318 316 316 316 316 317 319 321 321 325 327 328 327 326 327 329 329 326 324 326 326 326 325 327
308 307 308 309 309 309 309 309 309 309 308 308 306 308 306 306 307 314 315 315 315 314 317 318 316 315 316 316 317 317 317 319 322 324 325 325 326 327 327 326 325 325 326 326 327 324 323
309 309 309 309 308 307 307 307 308 308 307 305 309 310 305 312 316 316 316 315 315 315 318 317 316 315 315 316 317 317 317 317 319 320 321 322 324 325 326 327 326 326 325 324 324 323 324
309 309 308 307 307 306 306 305 305 305 305 309 311 308 305 313 316 315 314 316 315 316 318 316 315 315 315 315 316 317 317 317 316 317 317 318 320 321 323 325 324 325 324 322 324 324 325
309 309 309 310 311 310 309 307 306 305 308 310 311 313 315 313 314 315 315 316 319 318 317 317 316 316 316 317 317 317 316 316 318 317 316 317 319 318 322 324 326 324 321 322 326 327 326
310 311 311 311 311 311 311 310 311 311 311 311 312 315 317 315 314 314 315 319 318 317 317 316 316 316 315 316 316 316 317 315 317 317 318 317 319 319 320 321 322 324 324 322 322 323 324
310 311 311 312 311 311 312 312 312 313 313 313 315 316 318 317 316 314 316 318 317 316 317 317 316 317 318 317 315 315 315 317 318 317 317 316 315 317 318 318 320 319 322 323 321 323 325
310 311 311 312 312 312 312 312 312 313 314 314 318 320 318 318 316 316 319 320 318 317 317 317 317 317 317 317 317 317 317 316 316 317 316 316 314 314 316 318 318 319 320 320 320 322 324
310 311 311 312 313 313 312 312 313 313 315 317 319 322 317 318 319 321 319 318 317 318 317 317 318 317 317 317 317 318 318 317 315 315 315 314 313 313 314 315 316 316 316 319 320 322 323
310 311 312 313 313 313 312 313 313 314 316 317 318 320 318 318 320 320 319 317 315 316 316 316 317 316 316 316 316 317 317 316 315 315 314 312 312 313 314 313 316 316 317 317 318 318 320
310 311 313 313 313 313 313 313 313 315 316 317 319 320 319 317 317 317 318 318 316 315 315 315 316 316 316 316 315 316 316 316 315 315 314 313 311 312 312 313 313 314 314 315 315 316 318
311 312 314 313 313 313 313 312 314 315 316 317 320 317 317 316 316 316 316 316 316 315 315 314 316 314 314 314 314 315 314 315 316 316 315 312 311 312 311 312 313 313 313 314 314 315 317
311 314 314 314 314 313 311 313 314 316 317 316 316 317 317 315 315 315 315 315 314 314 314 314 314 313 313 313 313 313 312 312 313 313 315 313 314 314 315 313 313 314 315 316 315 315 315
311 314 314 313 313 312 310 311 313 314 315 316 317 317 315 314 314 314 314 314 314 313 314 313 312 313 313 312 312 312 311 311 311 310 313 315 315 316 315 315 315 316 315 315 315 314 314
312 314 314 313 313 310 310 311 313 315 316 317 316 317 316 315 314 314 313 313 313 312 313 312 312 312 312 311 311 312 312 311 312 311 311 311 314 314 314 314 316 314 314 317 317 318 317
312 314 314 313 312 310 310 311 312 314 315 315 317 318 318 315 315 314 314 313 313 313 313 312 312 312 312 311 312 312 313 314 315 314 312 311 311 314 314 313 313 313 313 317 316 319 319
312 314 314 313 311 310 310 311 313 314 314 315 316 317 319 317 316 315 315 314 314 313 314 313 313 312 312 311 313 315 315 316 316 314 313 312 313 315 315 314 313 313 316 315 315 316 317
311 314 314 314 311 310 310 310 311 313 315 314 315 315 319 318 316 314 314 314 313 313 314 314 313 313 311 311 313 317 315 312 313 313 313 314 314 314 315 315 313 314 315 314 317 316 316
311 313 314 314 311 310 310 310 310 314 317 318 318 317 316 319 316 317 315 315 314 314 315 314 315 313 311 312 311 313 311 310 309 311 312 314 314 316 315 315 315 312 316 316 314 313 313
311 313 314 314 313 310 310 310 310 310 310 314 318 318 317 318 318 318 317 315 314 314 314 314 314 312 311 312 310 309 310 310 309 311 309 313 310 311 313 314 310 309 310 311 310 310 310

GFSGBSN_850_thetae_066.txt.gz
Theta_e
324 323 323 323 322 322 321 320 319 317 313 310 307 305 304 305 305 305 306 308 308 308 308 308 309 309 310 316 317 322 322 321 321 319 318 332 333 336 336 339 341 340 341 344 348 352 353
323 323 322 322 323 322 322 321 318 313 309 307 306 305 304 304 305 306 306 308 309 309 309 308 310 312 312 318 320 323 323 321 318 320 317 328 337 336 338 339 338 338 337 337 350 352 352
323 322 322 322 322 321 321 320 313 309 306 305 304 304 304 305 305 306 306 309 310 309 309 309 313 315 315 316 319 320 324 326 322 318 316 335 337 338 339 333 337 335 330 332 350 351 352
321 322 321 321 321 320 319 313 309 307 303 303 304 305 306 306 307 306 307 310 311 309 309 309 315 320 322 322 321 322 321 327 330 319 320 336 337 334 336 337 329 329 326 329 348 350 351
322 321 321 321 320 318 311 306 303 302 304 307 308 309 308 308 308 307 308 312 312 311 310 312 317 327 326 322 317 315 320 327 326 322 318 326 324 324 327 328 325 324 328 327 331 349 350
322 321 321 320 316 310 304 302 303 308 309 309 309 309 309 309 309 307 311 314 315 312 310 315 315 321 320 318 317 321 321 325 326 326 321 320 322 325 323 323 327 329 328 326 327 342 350
320 319 314 309 306 303 304 308 309 309 309 309 308 308 308 308 308 307 315 315 316 317 313 316 322 318 321 317 317 317 323 322 325 322 320 325 326 327 327 324 325 326 326 327 328 328 351
312 309 306 306 308 309 309 309 309 309 309 308 308 308 307 306 308 307 313 316 315 314 314 315 317 317 320 317 317 318 324 322 325 325 324 325 325 325 325 326 326 327 326 326 326 332 343
308 308 309 309 309 308 308 307 307 307 307 307 307 306 305 305 308 312 315 316 315 315 313 315 316 318 317 316 316 320 320 323 328 327 326 326 327 327 328 328 329 327 326 327 326 341 351
309 309 308 307 307 306 306 306 306 306 306 306 305 308 308 307 312 315 315 315 315 315 308 313 315 316 316 316 316 323 322 321 324 329 329 324 326 326 328 329 328 325 323 325 325 322 340
308 308 309 310 310 310 308 306 305 304 304 305 309 310 306 306 311 315 315 315 315 314 316 317 314 315 316 315 317 316 319 319 320 321 322 323 325 325 325 325 326 326 324 323 325 323 321
309 310 311 311 311 311 311 310 309 307 306 309 310 310 305 313 315 314 314 315 316 310 317 315 314 314 313 314 316 317 317 318 317 318 318 319 321 323 323 325 324 324 323 320 319 319 321
310 311 311 311 312 311 311 311 311 311 311 310 311 310 306 311 314 314 315 316 312 313 315 314 313 313 312 313 314 315 316 315 314 314 315 316 317 317 320 322 321 323 317 319 321 320 322
310 311 311 312 312 312 312 312 312 313 313 313 314 314 315 314 314 314 315 314 316 316 314 313 314 312 312 313 314 315 314 312 315 315 312 314 316 316 317 319 323 323 318 319 323 322 323
310 310 311 312 312 313 312 312 313 313 314 314 312 316 316 316 315 314 314 313 313 313 315 315 313 313 313 314 314 315 313 313 316 313 314 314 317 316 316 315 317 318 322 318 319 319 320
309 310 311 312 313 313 313 313 313 314 315 316 317 317 317 318 316 315 311 315 315 316 315 313 314 314 314 315 314 312 314 314 316 314 313 314 315 313 315 315 314 313 317 319 315 322 323
309 311 312 313 314 313 313 313 313 316 316 318 320 319 317 317 316 316 314 317 316 316 316 315 314 314 314 315 314 313 314 314 314 314 312 311 310 312 313 312 313 312 312 313 314 317 320
310 312 314 314 314 314 313 312 314 317 317 319 320 313 317 318 318 315 312 314 315 314 315 313 314 314 314 313 314 314 313 314 314 314 313 310 308 311 313 313 313 313 312 309 313 317 317
310 313 314 314 314 313 312 313 315 316 318 318 319 319 316 317 312 312 314 314 314 314 313 313 313 312 312 312 313 314 314 314 313 312 312 310 308 310 311 310 309 311 312 310 308 310 316
310 313 314 313 314 312 311 314 315 316 316 318 318 312 316 315 315 313 313 313 314 314 313 314 312 311 311 311 309 312 313 313 314 315 316 312 306 308 310 311 310 310 312 312 308 309 311
311 313 314 313 312 310 312 314 316 316 316 317 317 315 314 310 311 310 311 312 314 313 312 312 312 312 310 310 310 311 310 310 312 314 313 307 309 310 309 311 311 311 312 313 312 312 312
311 313 314 312 311 310 311 312 313 313 316 317 316 316 315 313 312 310 309 310 313 312 311 311 311 311 309 310 311 311 309 308 309 309 310 309 312 311 313 313 313 314 314 314 314 314 314
311 312 314 312 310 311 312 312 312 315 316 316 316 316 313 311 310 308 310 311 312 312 312 311 311 310 310 310 311 311 311 310 310 309 307 311 311 311 313 312 313 313 313 314 314 317 319
310 312 314 312 310 311 312 313 313 313 315 316 317 318 314 310 310 310 312 312 312 311 311 311 311 310 311 311 311 311 311 311 310 309 307 308 310 310 310 311 314 310 310 312 318 318 318
311 312 314 313 310 310 312 314 314 314 315 316 317 318 317 310 313 313 312 312 312 312 312 312 312 311 311 311 307 308 308 312 312 311 310 306 306 309 311 311 311 312 311 314 315 317 315
310 312 313 314 310 310 311 313 314 313 314 315 317 318 319 314 312 314 313 313 310 309 311 312 313 312 311 308 308 311 314 312 313 311 308 307 307 308 312 312 313 311 313 314 313 315 314
310 312 313 314 311 310 310 311 313 315 315 315 315 316 318 316 315 314 313 311 313 312 309 313 313 312 310 306 309 313 311 309 308 309 309 307 307 308 311 312 314 312 312 314 315 312 311
310 311 313 314 313 310 310 310 311 312 313 317 316 316 317 318 316 317 315 314 313 313 309 313 311 310 307 303 302 300 305 307 307 308 310 311 314 312 313 312 313 310 312 314 311 309 309
310 311 313 314 314 311 310 310 310 310 310 312 317 317 316 317 317 317 318 317 315 314 313 313 311 311 310 302 303 298 307 307 303 302 306 310 308 307 309 314 310 308 307 309 307 307 307

GFSGBSN_850_thetae_069.txt.gz
Theta_e
322 323 321 321 322 321 321 321 320 316 312 309 307 306 305 305 304 305 305 306 308 308 309 308 308 309 310 312 313 321 322 316 318 319 318 327 331 335 336 338 341 343 342 341 341 348 352
321 322 321 321 321 321 320 319 314 310 308 305 304 304 305 305 305 306 306 305 308 309 309 308 308 311 311 313 320 322 324 320 319 320 318 327 333 338 336 336 338 338 339 338 336 351 351
321 321 321 321 320 320 317 312 309 306 304 305 306 307 307 307 307 307 307 306 309 310 309 308 309 314 313 314 320 323 325 325 320 319 318 328 336 336 337 336 336 336 337 329 350 351 352
321 321 321 320 318 314 309 304 303 304 307 309 309 309 309 309 308 308 308 306 310 311 309 308 312 318 319 321 322 324 324 327 325 316 319 323 333 336 332 335 329 328 325 326 351 351 351
320 318 312 308 306 305 304 306 308 309 309 309 308 308 308 308 308 308 308 309 313 313 309 311 314 324 324 324 322 320 320 326 329 319 316 320 325 329 325 326 324 323 329 327 349 348 351
311 309 307 308 308 309 309 309 309 308 308 308 308 307 307 308 308 308 307 313 317 314 310 313 316 320 318 320 317 316 319 322 326 323 320 319 320 320 321 323 329 329 328 326 327 348 350
308 309 308 308 307 307 306 306 306 306 306 306 307 307 306 306 306 308 311 313 315 316 313 315 317 316 320 319 317 318 319 321 325 323 318 319 322 325 326 324 325 325 325 326 326 329 350
308 308 308 308 308 308 307 306 305 304 305 306 306 305 306 306 306 307 313 315 315 314 313 314 315 316 318 318 318 316 317 326 323 322 322 322 325 324 326 325 325 326 327 326 325 332 335
309 310 310 311 311 311 311 310 308 305 304 304 305 308 309 306 307 312 315 315 315 314 312 314 315 316 317 317 316 318 319 323 324 325 324 324 325 325 326 327 327 326 326 326 327 335 349
310 310 311 311 311 311 311 311 311 310 307 306 309 309 308 307 313 314 315 314 315 314 307 310 314 317 317 315 315 319 321 324 325 325 324 325 325 327 327 327 326 327 324 326 325 321 323
310 311 311 311 312 312 312 312 312 311 311 309 310 310 306 309 313 314 314 315 315 313 315 315 314 315 315 314 317 317 319 320 320 322 325 329 325 324 324 325 325 327 326 323 323 321 332
309 310 311 311 312 313 312 312 312 313 313 311 311 311 308 314 314 314 314 315 315 311 317 314 314 313 312 314 315 316 316 318 317 317 316 318 320 321 322 323 323 324 322 317 316 316 320
309 310 311 312 313 313 313 312 313 313 314 311 313 313 310 313 314 313 315 316 310 312 313 313 313 312 311 312 314 315 315 313 313 314 316 316 316 315 317 319 320 318 317 319 320 320 321
309 310 312 313 313 313 313 313 312 314 314 312 315 315 314 314 313 314 314 310 313 315 314 313 312 311 312 312 313 313 311 310 313 312 310 313 316 315 314 316 318 320 317 317 322 320 322
309 311 313 313 313 313 313 312 314 315 315 313 316 317 317 316 315 315 314 310 314 313 314 313 313 313 313 314 312 313 312 312 313 312 313 314 315 313 315 313 314 317 317 317 315 315 319
310 312 314 313 314 313 312 312 316 316 316 318 317 317 316 317 317 316 313 313 314 314 313 312 313 313 313 314 314 310 312 313 314 311 311 312 314 312 313 313 313 312 313 317 314 320 323
310 312 314 313 314 312 311 315 317 317 318 319 318 317 317 318 317 316 314 315 315 314 315 313 312 313 313 313 313 313 312 313 313 313 310 309 309 312 311 312 313 310 310 308 311 314 318
310 313 314 313 313 311 313 315 316 317 319 318 318 312 316 317 314 310 310 312 314 313 313 312 312 312 312 310 311 311 313 312 313 311 311 308 305 310 312 309 311 309 309 306 309 312 313
310 312 313 313 311 311 314 315 314 315 317 318 318 315 315 317 312 310 312 313 313 312 311 311 311 311 309 310 312 312 312 313 314 311 312 310 306 310 310 309 307 309 309 309 304 306 309
310 312 313 312 310 311 312 312 313 314 317 317 316 310 314 314 312 311 311 311 313 312 312 311 311 310 309 309 308 311 311 311 311 316 315 310 304 308 310 310 308 310 310 309 307 308 310
310 312 314 311 310 311 312 312 312 314 316 317 315 312 311 308 310 309 309 311 313 311 311 310 311 310 310 310 310 310 309 308 310 310 311 305 307 310 310 311 312 313 313 313 313 311 311
310 312 314 311 310 312 313 312 314 315 315 316 317 315 313 310 310 308 307 310 312 312 310 310 310 310 308 309 310 311 309 309 308 308 307 307 311 312 311 312 312 312 312 312 313 313 313
310 312 313 311 310 312 314 313 313 315 314 316 316 314 312 309 307 307 308 311 310 311 311 311 310 309 310 310 310 310 310 310 309 309 306 309 309 309 312 310 310 310 311 311 317 318 318
310 311 313 312 310 312 314 314 314 314 315 317 316 315 313 309 308 309 311 311 311 310 311 310 311 310 311 311 310 310 309 309 308 308 306 307 307 307 309 309 310 308 309 312 317 316 315
310 311 313 313 310 310 313 314 314 315 316 317 317 316 314 309 311 311 312 311 311 311 311 311 312 311 312 311 306 307 308 310 309 306 306 304 305 307 310 309 309 311 311 312 314 316 314
310 311 313 313 310 310 312 313 314 314 314 316 316 317 317 313 311 313 312 312 309 308 309 312 311 311 311 306 305 309 312 311 311 308 305 305 303 307 308 310 313 309 312 312 312 315 312
310 311 313 313 312 310 310 311 313 314 315 315 315 316 317 315 315 313 312 311 312 310 307 310 312 310 310 302 302 301 305 307 305 308 308 304 307 306 308 308 310 311 309 312 314 311 310
310 310 312 313 314 310 310 310 311 311 311 313 315 315 316 317 316 316 315 314 313 312 308 311 309 308 304 301 299 297 298 298 302 305 309 307 308 304 311 310 310 309 309 313 309 309 308
310 310 312 313 314 313 310 310 310 310 310 310 313 315 316 315 316 317 317 317 316 314 313 312 309 309 308 300 298 296 307 306 302 301 305 306 305 305 309 308 309 308 308 306 307 307 306

GFSGBSN_850_thetae_072.txt.gz
Theta_e
320 321 321 321 320 320 320 316 312 309 307 306 306 306 306 306 307 307 306 306 305 307 308 309 308 308 309 310 312 321 312 315 319 319 320 320 335 337 337 338 340 345 344 343 342 350 351
321 321 321 321 320 319 313 309 305 304 305 307 308 308 308 308 308 308 307 307 306 307 309 309 308 308 311 310 316 321 318 317 319 321 322 322 337 340 336 335 337 338 340 338 337 343 350
320 317 314 312 309 306 305 305 306 308 308 308 308 308 308 308 308 308 308 308 306 308 310 309 308 311 312 312 321 323 323 318 318 318 317 325 334 338 336 337 336 335 332 331 350 350 348
311 308 307 308 308 308 308 308 308 308 308 308 308 308 307 307 308 308 308 308 307 311 311 309 308 316 318 315 321 323 324 320 319 319 319 324 334 335 335 334 328 325 324 326 349 350 350
308 308 308 308 307 307 306 306 305 305 305 305 306 307 306 307 307 307 307 308 313 313 312 309 311 318 322 323 322 323 324 326 321 319 318 317 327 332 324 324 324 323 328 326 345 349 351
308 308 309 309 310 310 310 309 307 304 304 305 305 306 305 305 306 306 307 311 317 313 309 311 315 321 320 324 322 322 323 327 322 316 317 321 321 318 320 322 331 329 326 325 326 349 350
310 310 310 311 311 311 311 311 310 308 305 304 304 305 307 308 306 306 308 312 313 316 312 314 315 315 318 317 316 315 319 326 322 319 315 317 319 321 322 324 325 325 325 326 325 332 349
310 310 311 311 312 312 312 311 311 310 309 306 306 308 309 306 306 307 314 314 314 313 313 314 314 314 316 317 317 315 320 325 321 318 319 321 324 322 324 324 324 325 326 325 325 325 333
310 310 310 311 312 312 312 312 312 312 311 310 309 309 309 306 307 313 314 314 314 313 312 313 314 315 316 317 317 316 319 324 320 321 321 323 325 324 325 326 326 325 325 325 328 324 347
309 310 310 311 312 313 313 312 312 312 313 312 310 310 306 310 313 314 314 314 315 313 306 309 313 316 317 315 314 316 322 324 324 323 321 324 324 326 325 327 325 327 324 327 327 321 324
309 310 311 312 313 313 313 313 313 313 313 313 311 311 307 313 314 314 313 314 315 312 311 313 313 315 316 314 316 316 320 322 321 326 324 326 324 325 326 325 324 326 323 325 324 320 334
309 311 313 313 313 313 313 312 312 313 314 312 313 310 313 314 314 313 313 314 315 311 316 313 312 312 312 313 314 315 317 318 318 315 317 322 318 321 323 322 324 322 318 314 314 314 319
310 311 313 313 314 313 312 311 314 315 313 314 314 314 313 312 313 313 314 315 310 312 312 314 311 311 311 312 313 314 312 311 313 314 316 315 315 314 315 319 319 317 316 317 319 319 320
310 312 314 313 314 313 311 313 316 315 313 315 316 316 317 316 316 314 314 310 314 314 314 312 311 311 312 311 311 311 311 312 311 310 310 313 316 313 313 315 318 317 317 317 321 320 321
310 312 314 313 313 311 312 316 316 316 317 315 316 317 316 317 316 315 314 311 314 313 313 313 313 313 313 313 311 311 310 311 311 310 313 312 315 312 313 312 313 317 316 314 314 314 317
310 311 313 313 312 311 313 316 317 317 318 318 317 317 316 317 317 316 313 313 313 313 312 312 313 312 314 312 312 311 311 312 312 309 310 311 313 312 312 312 311 311 311 317 314 320 322
310 311 313 312 311 311 313 314 315 317 318 317 317 317 316 317 317 315 311 314 314 313 313 312 312 313 312 312 311 311 311 312 312 311 308 308 308 312 310 309 308 309 309 307 310 312 317
310 311 313 311 310 312 312 312 312 314 317 318 316 311 315 317 312 308 309 312 313 312 312 312 311 311 311 310 311 312 313 313 313 310 311 307 304 308 310 308 308 308 309 305 312 314 310
309 311 313 311 310 312 312 312 312 312 317 317 316 314 315 317 310 308 311 312 311 311 310 310 311 310 308 309 312 311 312 312 312 314 311 310 305 307 311 308 307 309 309 306 303 304 309
309 311 313 311 310 312 313 313 313 315 316 316 315 309 314 313 310 309 310 310 312 311 310 310 309 309 308 308 307 310 310 311 310 315 314 309 305 307 307 309 307 311 312 310 306 309 309
309 311 313 311 311 313 313 313 314 314 316 316 313 309 309 307 308 307 308 310 312 311 309 310 310 309 309 309 309 309 308 308 309 309 310 305 309 309 310 311 311 312 312 312 312 310 311
309 311 313 311 310 313 314 313 314 314 313 314 316 312 311 308 309 307 306 309 310 310 309 309 310 309 307 308 309 310 309 308 308 308 306 306 311 310 311 311 311 311 311 311 311 312 310
309 310 312 312 310 313 314 314 313 314 314 315 314 312 311 308 306 306 308 310 310 310 310 310 309 308 309 309 309 309 309 308 308 308 305 307 307 307 310 309 309 311 310 311 317 317 318
309 310 312 313 310 312 314 314 314 315 316 314 313 313 312 308 307 308 310 311 310 310 310 310 310 309 310 310 309 309 308 308 307 305 303 306 305 304 308 307 307 306 308 310 316 316 315
309 310 312 313 310 310 313 313 314 314 315 316 315 314 313 308 309 311 311 311 310 311 310 311 311 311 311 310 304 307 307 309 308 304 303 302 304 305 309 307 307 311 312 314 315 314 313
309 310 312 312 312 310 311 313 314 314 314 315 316 315 315 312 310 313 311 311 308 308 309 311 311 310 309 303 303 309 310 310 311 308 304 303 302 305 306 310 311 308 311 310 311 312 311
309 310 311 313 313 310 310 311 312 311 312 314 314 316 315 315 314 313 311 309 310 308 306 309 311 309 308 301 301 300 304 304 303 308 308 303 303 306 307 306 308 310 309 311 312 310 309
308 310 311 313 313 312 310 310 310 311 310 311 314 315 315 316 316 315 315 313 311 311 307 310 307 307 302 300 299 299 297 301 299 303 308 305 302 304 306 308 310 309 309 312 308 307 308
308 310 311 313 313 314 312 309 310 310 310 310 311 312 314 315 315 316 316 317 316 316 312 311 308 308 306 299 298 294 298 301 301 299 302 303 304 304 306 306 308 308 308 308 306 306 306

GFSGBSN_850_thetae_075.txt.gz
Theta_e
319 316 316 315 313 310 308 306 305 305 307 307 308 308 308 308 308 308 308 307 307 306 307 308 308 307 308 309 310 321 312 311 317 317 320 326 329 338 344 345 343 347 347 344 344 351 351
313 308 307 307 307 307 307 308 308 308 308 308 308 308 308 308 308 308 308 308 307 307 307 309 309 307 309 312 313 319 311 315 319 319 320 324 328 335 341 340 341 339 340 336 337 343 352
308 308 308 308 307 307 307 307 306 305 305 305 305 306 307 307 307 307 308 308 308 307 308 310 309 308 311 311 321 319 313 318 319 319 321 324 331 337 337 340 337 336 334 341 349 346 350
308 308 309 310 310 311 311 311 309 306 304 304 305 305 306 306 306 307 307 307 307 308 311 311 308 310 316 314 321 319 315 320 322 322 321 325 333 336 335 334 329 329 329 332 352 350 350
310 310 311 311 312 312 311 311 311 310 307 304 304 304 305 305 306 306 306 307 312 313 311 310 308 314 322 321 322 321 316 318 319 318 318 323 331 334 328 333 333 330 337 331 353 351 352
310 310 311 311 312 312 312 312 311 311 310 307 305 305 307 307 307 306 306 311 314 311 309 311 315 318 319 322 322 322 320 322 319 319 318 319 324 332 331 333 343 337 332 330 343 354 352
309 310 310 311 312 312 313 312 312 312 312 310 307 307 308 308 306 306 307 314 313 316 310 313 313 317 316 317 320 322 324 321 318 319 320 319 328 332 337 332 329 329 330 331 329 345 347
309 310 311 312 312 313 313 312 312 312 312 312 309 308 309 305 306 312 314 314 313 313 314 314 314 314 315 316 316 323 325 324 318 320 320 321 328 330 330 328 329 329 331 331 329 332 335
309 310 312 313 313 313 313 312 312 312 313 313 311 310 307 308 310 313 313 313 314 313 314 313 314 315 315 316 316 322 325 322 319 320 322 324 329 328 329 328 330 330 332 330 330 328 351
309 311 313 313 313 313 313 312 311 312 313 313 311 310 306 312 313 314 313 314 314 313 313 313 314 315 316 317 315 318 326 324 322 320 323 327 326 332 329 330 330 334 328 329 330 330 330
309 311 313 313 313 313 312 311 313 314 314 312 312 309 312 313 314 313 313 314 314 312 313 313 314 315 315 315 316 319 321 322 325 324 326 328 328 334 332 331 329 332 328 329 330 329 334
309 310 314 313 313 312 311 313 315 315 314 314 314 313 312 313 313 313 314 314 314 314 317 314 313 315 315 315 315 316 318 320 321 325 326 325 323 327 328 328 329 327 325 323 323 325 330
309 310 313 313 312 311 313 315 316 316 314 316 315 316 316 315 314 314 314 315 315 316 316 315 313 314 315 314 315 318 317 318 322 327 327 320 318 316 316 324 325 326 327 328 328 327 332
309 310 313 312 311 311 314 316 316 317 317 314 316 316 316 316 316 316 315 316 318 317 316 315 313 315 314 314 314 315 316 317 316 317 323 328 323 317 315 318 325 327 327 328 330 329 329
309 310 313 312 310 312 313 314 316 317 318 318 317 317 316 317 316 315 315 318 316 315 314 315 315 316 316 315 316 316 315 315 314 314 323 320 317 315 315 315 317 321 326 321 324 321 328
309 310 313 311 310 312 312 312 312 317 318 317 317 317 316 317 316 316 316 315 315 314 314 314 316 315 316 315 316 316 315 314 315 313 312 316 318 314 314 314 315 319 316 325 325 329 329
309 310 313 311 310 312 313 312 312 312 317 318 317 317 316 317 316 315 316 315 315 313 313 315 315 315 314 316 315 315 315 314 314 314 313 313 317 316 315 314 314 317 319 319 323 323 328
309 310 312 311 310 313 313 313 312 314 316 317 316 317 315 317 316 311 314 314 312 313 312 313 313 313 314 313 314 316 316 314 313 313 314 312 315 315 314 312 311 313 314 314 327 326 322
310 310 312 311 311 313 313 313 313 313 316 316 315 314 314 316 316 314 313 313 312 313 312 313 312 312 311 312 315 314 315 312 314 316 315 313 313 316 315 314 313 315 314 312 313 317 323
313 310 312 311 311 314 313 313 313 312 315 314 313 315 313 312 309 313 314 314 314 311 311 311 312 312 313 313 313 313 313 312 311 316 314 312 313 315 317 316 314 316 314 314 315 321 319
316 309 312 312 311 314 313 313 313 313 312 314 313 312 309 313 312 312 312 312 312 312 310 311 312 312 313 315 314 313 312 313 312 311 312 314 316 315 314 314 314 314 314 314 314 315 319
319 309 311 312 310 313 314 313 313 313 313 312 315 312 310 309 308 311 311 312 312 311 311 311 311 311 312 313 312 314 312 312 312 312 313 313 316 315 314 313 313 313 313 313 313 313 314
322 309 311 312 310 312 314 313 314 314 314 313 312 311 311 308 310 311 311 311 312 311 311 310 310 311 312 311 310 309 309 309 310 311 313 314 315 315 315 313 313 312 313 313 315 318 317
323 309 310 312 311 310 313 313 313 314 314 315 313 312 313 313 312 312 311 312 312 311 312 311 311 311 310 309 309 309 309 310 310 308 307 313 314 314 315 312 313 312 313 312 316 318 319
321 312 310 312 312 309 312 313 313 314 314 314 314 313 313 314 311 312 312 312 311 311 312 312 311 310 309 309 312 313 313 313 312 310 309 309 312 315 315 313 312 312 313 315 315 315 317
324 311 310 312 312 310 310 312 312 312 313 314 314 315 314 314 314 312 313 312 313 312 312 311 310 309 309 310 312 315 316 315 314 312 309 310 311 314 315 313 312 313 314 313 314 314 314
323 311 310 312 312 312 309 310 312 311 311 312 313 315 315 315 313 312 313 312 310 310 313 311 311 310 307 311 314 315 315 309 315 314 313 315 314 315 315 315 313 312 312 313 315 316 312
320 309 310 312 313 313 310 309 309 310 310 310 311 312 314 315 314 313 313 311 311 311 314 311 312 309 308 312 313 311 313 309 310 310 311 314 315 316 315 316 315 312 312 315 312 310 309
309 309 310 312 313 313 313 310 309 309 309 309 310 310 311 315 314 316 315 315 315 315 312 310 310 309 307 309 307 308 310 307 308 314 308 312 313 316 315 315 311 310 310 309 308 308 308

GFSGBSN_850_thetae_078.txt.gz
Theta_e
308 308 308 308 308 308 308 307 307 306 306 306 306 307 308 308 308 308 308 308 308 307 307 307 309 308 308 316 315 321 316 312 316 328 328 328 333 334 342 345 346 351 348 343 342 351 351
308 309 309 310 310 311 311 311 310 308 306 304 305 305 305 307 307 307 308 308 308 308 307 308 309 308 311 317 317 319 313 314 327 325 324 325 327 333 338 344 346 346 345 340 338 345 349
310 310 311 311 312 312 312 311 311 311 308 304 304 304 305 305 306 306 307 308 308 308 307 309 310 308 315 316 324 319 326 325 324 322 323 324 326 331 337 341 343 343 342 342 344 341 348
310 310 310 311 311 312 312 312 311 311 310 308 305 304 305 305 306 306 307 307 308 308 308 310 310 311 320 314 325 321 326 328 322 323 323 326 329 332 336 340 340 343 339 341 348 346 348
309 309 310 311 312 312 312 312 312 312 312 311 309 307 307 308 308 307 306 307 312 314 312 311 310 321 320 315 326 323 323 325 321 320 323 326 328 332 336 339 341 343 347 340 351 350 353
309 310 311 312 313 313 313 313 312 312 312 312 311 308 308 309 307 306 306 312 315 313 311 310 316 320 322 322 325 322 321 322 321 320 320 323 329 332 336 339 341 347 344 338 350 354 353
309 311 313 313 313 313 313 313 312 312 313 313 312 309 309 308 305 306 309 314 317 322 317 317 316 319 321 322 324 324 323 321 321 321 322 322 329 330 331 337 337 343 341 341 342 351 351
309 311 313 313 313 313 313 312 311 312 313 313 311 310 310 306 307 314 314 316 315 314 317 317 316 317 318 322 324 324 325 324 322 324 323 323 327 326 330 336 335 338 338 337 334 338 338
309 310 313 313 313 313 312 311 313 314 314 312 311 310 306 309 313 313 314 314 314 313 317 317 316 316 318 318 322 324 324 326 323 324 323 324 325 327 332 337 336 337 341 336 336 333 342
309 310 313 313 313 311 311 313 315 315 313 312 310 309 309 313 314 314 315 314 314 313 318 317 316 316 317 319 319 323 323 325 323 324 324 323 329 330 334 335 335 337 337 335 333 334 343
309 310 313 312 311 311 313 315 316 315 314 314 313 312 313 314 314 315 314 314 314 313 319 315 317 316 319 319 320 323 323 325 325 323 324 326 330 332 333 334 333 334 335 335 333 335 333
309 310 313 312 310 312 315 316 316 316 315 315 315 316 315 312 313 313 313 314 313 318 320 317 317 318 319 318 319 324 326 323 326 324 324 328 328 333 333 332 332 332 332 333 333 333 335
310 309 312 311 310 313 313 314 316 317 317 315 316 316 316 316 317 315 315 316 318 320 319 317 317 318 318 319 320 322 325 324 328 327 327 328 331 329 328 334 333 332 331 335 336 332 334
313 309 312 311 310 312 312 312 313 317 318 318 316 316 316 317 316 316 316 320 320 319 319 318 316 317 317 319 321 322 323 325 323 325 327 327 328 327 322 329 332 332 331 332 335 333 333
318 309 311 311 310 312 313 312 312 314 318 317 317 317 318 316 316 315 318 320 320 318 317 317 317 317 318 319 321 323 322 322 319 322 328 329 323 319 319 320 324 331 331 330 332 332 333
322 309 311 311 311 313 312 313 312 313 315 318 318 319 318 317 316 317 321 319 319 316 316 317 318 318 319 319 322 323 322 319 319 318 319 325 323 320 318 319 321 327 330 330 330 333 335
323 309 311 312 311 313 312 313 312 313 315 318 318 319 317 317 317 319 321 319 317 316 316 318 317 319 319 319 320 320 319 318 318 319 319 322 324 320 320 322 324 324 327 328 329 330 333
324 309 311 312 311 314 313 313 312 313 315 316 318 320 316 317 321 319 320 318 315 315 316 317 317 317 318 318 319 320 319 318 317 318 320 319 323 323 322 317 317 320 324 327 330 331 331
324 310 310 312 311 314 313 313 312 313 314 316 318 316 316 317 321 320 318 316 315 317 315 316 317 316 316 318 319 318 317 314 317 319 321 319 322 322 320 319 318 322 321 322 324 328 330
324 312 310 312 310 314 313 313 312 313 312 314 316 317 316 317 317 319 319 318 317 314 315 315 316 316 318 318 318 317 317 315 315 317 316 317 320 323 323 323 322 321 320 320 323 329 330
325 317 310 312 310 313 313 313 313 313 312 315 316 315 313 317 317 318 317 316 316 316 314 315 316 317 319 319 318 318 317 316 316 315 317 320 322 321 319 318 319 319 318 318 322 324 328
324 321 309 312 311 312 313 313 313 313 313 314 316 316 314 314 314 315 313 316 314 315 315 314 316 317 318 319 320 319 319 319 318 316 317 318 321 320 320 317 317 318 318 317 317 319 322
324 322 309 311 312 310 313 313 313 313 315 316 313 311 314 312 314 314 314 314 314 314 313 312 313 316 316 315 314 314 314 315 315 318 318 318 319 319 319 316 315 316 317 317 318 318 319
325 320 311 311 312 310 312 313 313 313 314 317 313 315 316 315 315 315 314 314 314 314 314 313 313 314 312 311 312 313 314 314 315 314 315 318 319 318 319 316 315 318 317 316 318 320 320
325 323 311 311 312 311 310 313 312 312 313 314 314 316 316 316 315 315 314 314 313 313 314 313 312 312 311 313 315 316 316 316 315 314 314 316 317 317 318 316 316 315 315 316 319 320 319
324 324 314 310 312 312 309 311 312 311 311 313 314 314 316 317 316 314 315 315 315 315 315 313 313 311 312 314 316 319 318 319 318 316 313 314 316 317 316 317 317 318 317 316 316 321 318
324 320 310 310 312 313 310 309 310 311 311 311 312 314 317 318 315 315 315 315 314 314 315 314 313 312 312 315 319 320 320 316 319 318 317 317 317 318 318 318 316 317 315 315 315 322 317
323 311 310 311 313 313 312 310 309 310 310 310 311 311 317 317 316 315 314 314 314 314 316 314 314 312 313 316 317 317 319 317 317 317 317 319 320 320 319 319 319 315 315 317 318 316 315
314 308 310 310 313 314 313 313 310 310 310 310 315 311 311 318 318 316 316 316 315 315 314 313 314 312 311 315 316 316 317 314 316 319 314 318 317 319 317 319 317 314 316 314 313 314 313

GFSGBSN_850_thetae_081.txt.gz
Theta_e
310 310 311 312 312 312 312 312 312 311 309 306 304 305 305 306 307 308 308 308 308 309 308 307 308 308 308 320 319 321 321 314 316 330 333 329 336 341 345 346 349 353 349 345 348 349 353
310 311 311 311 312 312 313 312 312 312 311 308 305 304 305 305 306 306 307 308 308 309 308 307 308 309 310 319 321 321 317 316 321 330 330 329 334 338 339 346 347 349 350 343 343 344 354
309 310 310 311 312 312 313 313 312 312 312 310 307 305 305 305 306 306 307 307 308 308 308 307 309 309 319 319 323 322 320 320 325 328 329 327 328 333 337 344 348 347 347 343 345 347 351
309 310 312 313 313 313 313 313 313 312 312 312 310 306 306 307 307 307 307 307 308 308 308 308 310 312 324 317 323 323 322 323 327 326 325 325 326 329 335 341 344 348 347 347 346 347 350
310 311 313 313 313 313 313 313 313 312 312 313 312 309 308 308 308 306 306 308 314 314 312 311 313 321 322 320 325 324 327 326 326 324 324 326 329 329 335 341 345 347 349 346 349 348 352
309 310 313 313 313 313 313 313 312 312 312 313 313 310 309 309 306 305 307 314 315 314 312 314 321 320 322 322 324 325 327 326 323 324 325 327 329 331 336 341 344 347 347 345 350 351 352
309 310 313 313 313 313 312 311 311 313 314 314 313 311 310 306 306 307 310 318 322 325 321 323 321 320 321 320 324 324 325 325 323 323 326 324 330 331 334 335 338 340 343 347 349 348 353
309 310 313 313 313 312 311 312 315 314 313 312 311 310 306 307 314 314 316 319 317 317 318 320 318 318 322 325 325 324 323 325 324 325 325 325 329 331 331 334 338 341 343 340 345 347 353
309 310 313 312 311 311 312 315 315 314 313 311 310 308 309 311 314 315 317 316 316 316 319 320 320 317 320 324 324 325 324 324 325 325 326 326 327 329 329 332 339 342 343 340 339 343 342
313 310 313 312 310 313 315 315 316 315 314 314 313 312 312 313 316 316 317 316 316 316 320 321 319 319 319 320 323 324 325 325 326 327 326 327 327 327 328 332 337 341 339 338 338 339 344
319 309 312 311 310 313 315 315 316 316 315 316 316 316 312 314 316 317 317 316 316 317 322 318 319 318 319 320 322 325 324 326 327 325 327 327 327 328 330 334 335 334 337 339 337 337 342
322 309 312 311 311 312 312 312 315 317 317 315 316 316 315 316 314 315 315 317 316 319 322 319 319 319 321 321 322 324 324 325 325 325 326 327 325 331 331 332 333 333 336 337 337 336 339
324 309 311 311 311 312 313 313 312 315 317 318 315 315 316 316 319 318 317 318 321 322 323 319 319 320 322 322 322 325 325 327 328 327 326 327 328 332 331 333 333 334 337 339 339 337 337
324 310 311 312 311 313 313 313 312 312 317 317 317 317 318 319 319 318 318 322 325 324 322 320 319 320 321 321 322 325 327 327 327 327 326 328 333 333 333 334 334 334 335 336 337 336 334
324 311 310 312 311 313 313 313 312 312 312 317 317 320 320 320 317 318 320 325 325 321 320 319 318 319 320 321 323 325 326 326 327 328 327 329 331 329 332 333 331 334 335 332 333 334 333
324 315 310 312 310 314 313 312 312 312 314 315 319 321 322 319 319 319 322 323 322 319 319 319 318 320 321 322 323 324 325 323 325 324 325 328 330 327 325 325 328 330 333 333 332 336 334
324 319 310 312 310 314 313 312 311 312 315 317 318 320 321 319 319 321 326 323 320 318 318 319 319 321 320 321 322 324 325 322 322 324 325 328 329 326 325 327 329 330 332 333 332 334 335
324 322 309 312 310 314 313 313 311 311 312 317 319 322 319 318 321 321 323 322 317 319 318 320 318 321 321 322 323 323 323 322 320 322 326 326 327 327 326 326 324 327 331 332 333 335 333
325 323 309 311 311 314 313 313 313 312 312 316 320 317 317 318 322 322 321 320 318 320 319 320 319 318 320 322 320 321 321 318 320 322 325 325 326 327 326 324 325 326 327 329 331 331 334
325 325 311 311 312 313 313 313 312 312 312 316 319 320 318 318 319 321 322 321 320 317 318 319 319 318 320 320 322 322 319 318 319 319 316 321 325 326 327 326 326 327 326 327 329 331 332
322 324 314 311 312 311 313 313 312 312 313 319 317 317 318 320 319 320 320 318 319 319 318 319 321 321 320 319 321 321 320 320 319 318 321 323 324 325 323 323 325 326 326 325 327 329 331
324 325 314 310 312 310 313 313 312 312 318 317 319 318 316 316 317 317 314 318 317 317 318 318 321 320 321 321 322 321 321 321 322 320 322 321 324 324 323 320 322 322 321 321 324 325 328
324 325 314 310 312 311 312 313 312 311 318 318 317 315 317 315 317 318 317 317 316 316 315 315 318 321 321 319 319 320 320 321 321 323 321 322 323 323 322 321 319 320 321 321 322 322 327
323 325 320 310 312 312 310 313 312 312 315 319 318 318 319 318 318 318 316 316 317 317 316 315 315 318 316 315 317 318 318 319 319 319 320 322 323 322 321 322 320 322 320 320 321 322 324
322 324 324 313 312 311 310 312 312 312 312 319 319 319 319 318 317 317 316 315 315 315 316 315 314 315 314 316 318 319 319 319 318 318 318 320 323 321 321 322 321 320 319 319 320 323 323
323 323 321 311 312 312 311 310 312 312 312 319 318 320 319 320 318 316 317 317 318 317 317 315 314 314 315 317 319 321 320 319 321 318 316 317 320 321 321 321 321 321 320 319 319 324 321
323 323 313 310 312 313 312 310 310 310 311 314 318 314 321 320 317 317 319 318 316 316 318 316 315 314 316 319 321 323 326 322 323 321 320 319 319 320 320 321 321 322 319 317 319 325 321
323 314 309 310 313 313 313 311 310 310 310 313 318 312 320 319 319 316 315 316 315 317 319 316 316 315 316 320 321 321 323 322 322 322 321 322 323 322 321 322 322 319 318 319 323 320 319
316 308 310 310 312 314 313 313 312 312 312 313 318 317 313 321 321 317 317 317 317 317 317 315 317 315 315 318 318 319 321 320 321 323 318 322 321 324 321 325 321 318 319 320 319 318 317

GFSGBSN_850_thetae_084.txt.gz
Theta_e
310 310 311 311 312 312 313 313 313 312 312 312 308 305 305 305 305 307 307 308 308 308 310 309 307 308 308 322 319 326 320 312 315 317 337 334 336 343 347 349 351 356 350 352 353 351 350
309 310 312 313 313 313 313 313 313 313 313 312 310 307 305 305 305 306 306 307 308 308 309 309 307 309 309 320 322 324 320 317 317 325 337 332 333 340 343 345 350 350 349 346 348 353 352
310 311 313 314 314 313 313 313 313 313 313 313 312 308 306 306 307 307 307 307 308 308 309 308 308 309 318 320 321 326 322 319 320 326 334 331 331 338 339 343 348 348 352 345 347 353 354
310 311 313 314 313 313 313 313 313 312 313 313 313 310 307 307 308 307 307 307 308 310 308 308 309 311 319 321 319 324 322 320 321 325 331 330 330 331 336 339 348 351 349 348 347 352 353
309 310 313 313 313 313 313 312 312 312 312 313 313 311 308 308 307 306 307 308 314 314 311 310 313 318 323 324 320 324 322 322 325 328 328 327 327 328 331 338 346 349 352 350 348 350 353
309 310 313 313 313 313 311 311 312 314 314 313 312 310 310 308 306 306 308 313 315 313 312 311 323 323 320 327 321 323 327 325 327 327 326 326 327 330 332 338 346 346 346 348 350 352 353
310 309 312 312 312 311 311 313 315 314 313 312 310 309 307 307 307 308 311 319 322 325 324 324 324 324 323 324 323 325 327 327 326 327 327 327 330 331 332 335 341 342 343 349 348 346 355
318 309 312 312 311 311 313 315 315 315 313 312 311 308 308 311 313 315 318 322 318 318 319 324 323 321 322 322 325 325 326 327 325 327 327 329 329 329 329 333 336 339 341 346 346 346 354
323 309 311 311 311 314 315 315 315 315 315 314 313 310 311 313 314 316 317 318 316 317 318 319 319 321 321 324 326 325 325 326 325 326 327 328 327 328 330 331 334 336 340 344 347 343 344
324 309 311 311 311 312 313 314 315 316 316 315 316 314 311 314 317 318 320 317 318 317 320 321 321 321 319 322 327 325 324 325 326 326 326 326 327 327 330 331 332 336 339 343 347 349 357
324 311 310 312 310 312 312 312 313 316 317 316 316 315 314 311 312 318 319 316 317 318 322 321 321 320 320 321 324 325 326 324 327 326 326 326 327 327 328 330 330 336 339 341 340 340 339
324 315 310 313 310 312 313 313 312 313 316 318 316 315 316 322 320 318 316 317 319 320 323 321 320 320 320 321 322 324 326 325 325 328 326 327 326 328 328 329 330 335 337 340 340 339 338
324 320 309 312 310 313 313 313 312 312 313 317 317 315 317 317 320 320 319 318 322 322 325 323 320 320 319 321 323 325 327 326 328 328 327 326 327 327 329 330 332 335 336 339 342 341 338
324 323 309 312 310 313 313 313 312 311 312 314 316 317 318 320 320 320 319 322 326 326 325 323 321 321 319 321 323 323 326 326 327 328 326 327 327 328 331 331 333 334 334 338 340 338 337
324 324 310 311 311 313 313 312 312 311 313 313 317 316 320 322 321 319 320 327 326 324 322 321 321 320 321 322 322 324 325 326 326 328 328 326 327 329 329 332 333 334 335 336 337 336 335
325 324 313 310 312 313 313 313 312 310 311 314 315 321 323 322 320 321 324 323 324 323 320 320 321 320 322 322 322 324 325 326 327 325 327 328 328 330 331 332 334 334 333 335 336 339 338
325 325 318 310 312 313 313 313 312 310 311 313 315 322 322 321 318 321 325 323 323 319 319 321 320 322 323 323 325 326 327 327 326 326 327 327 331 333 332 332 333 333 333 334 334 335 336
324 325 323 310 312 312 313 313 312 310 311 316 321 325 322 319 319 323 326 324 318 320 318 321 321 321 323 324 325 325 327 324 322 323 326 327 332 333 329 328 330 331 333 333 335 339 336
324 324 325 310 312 311 314 313 312 311 312 312 323 319 318 318 324 326 322 321 320 321 321 321 320 319 321 324 323 324 324 323 321 323 325 326 329 332 329 327 327 327 329 330 332 334 338
324 323 324 310 312 311 314 313 312 311 313 316 322 321 320 319 319 323 323 323 322 319 319 320 320 319 319 322 322 322 320 320 320 321 317 324 326 331 329 327 327 327 328 329 331 332 335
323 325 324 310 311 311 313 313 313 312 316 317 322 318 318 321 320 320 320 321 320 320 319 320 321 319 318 321 321 321 320 320 320 320 322 323 325 327 328 325 327 326 327 327 329 330 343
322 324 323 310 311 311 312 313 313 312 319 319 318 321 317 318 319 319 315 318 319 318 319 319 321 322 321 320 321 322 321 322 323 321 323 323 325 327 324 323 325 326 326 327 327 328 333
321 323 324 317 311 311 311 313 313 311 319 320 320 318 320 316 319 320 318 318 317 317 316 318 320 322 323 320 321 321 321 321 322 323 324 323 325 325 326 323 322 324 324 323 324 326 338
322 322 323 324 315 312 311 313 312 313 318 321 320 323 322 319 320 319 318 318 318 318 317 316 317 320 318 318 318 319 320 321 321 321 321 323 324 324 324 324 324 323 323 322 323 324 332
322 323 324 322 311 312 311 311 313 313 316 319 319 323 322 320 318 318 317 317 317 317 317 316 315 316 316 317 320 321 321 321 321 321 320 320 323 324 323 323 323 322 322 321 322 323 330
324 323 322 311 312 312 312 310 311 312 313 320 320 317 324 323 319 317 318 318 320 318 318 317 315 315 316 319 320 321 321 321 321 320 318 319 322 324 323 322 323 324 322 321 320 323 324
324 322 312 310 312 313 313 311 310 311 312 315 321 314 324 324 317 319 321 320 318 318 319 318 317 316 317 321 322 324 328 324 326 322 321 318 319 321 322 322 323 323 320 319 320 324 323
320 310 310 310 313 313 313 312 311 311 312 316 321 314 320 323 320 317 316 317 316 319 321 318 318 317 318 322 322 325 326 327 324 324 324 321 321 322 320 321 323 321 319 320 325 323 322
321 309 310 310 311 313 314 313 313 313 313 318 321 320 316 322 322 318 318 319 319 318 319 316 318 317 317 321 320 321 324 321 322 324 320 324 323 328 324 327 322 321 322 322 321 321 321

GFSGBSN_850_thetae_087.txt.gz
Theta_e
310 312 313 314 314 314 314 313 313 313 313 312 312 310 306 305 305 306 306 307 307 308 309 311 310 307 309 318 314 320 322 319 314 316 322 336 338 338 344 346 350 345 350 353 352 351 350
310 311 313 314 314 314 314 313 313 313 313 313 313 312 308 306 306 306 306 307 307 308 309 310 309 307 309 316 325 325 323 317 313 316 330 338 338 336 343 344 352 351 350 353 351 350 349
309 310 313 313 313 313 313 313 312 312 312 312 313 313 310 307 307 307 307 307 308 309 309 309 308 308 312 313 326 326 323 319 314 316 335 336 336 333 339 341 348 349 352 349 352 351 351
309 310 312 312 313 313 313 311 311 312 313 313 313 313 310 308 308 307 306 307 308 312 310 309 308 309 312 321 320 323 322 320 317 317 334 335 333 330 331 335 343 348 350 355 351 352 353
313 309 312 312 312 311 311 311 314 314 313 312 311 310 309 309 308 306 306 308 314 313 311 309 311 311 322 322 320 321 323 321 319 322 330 331 331 329 328 329 334 346 352 352 350 353 353
323 309 311 312 311 311 311 314 314 314 313 310 309 309 309 307 306 307 308 312 315 313 312 311 323 321 322 325 323 322 323 321 321 324 326 329 328 324 324 325 334 346 350 351 351 354 353
324 310 310 312 310 313 314 315 315 315 314 312 311 307 307 307 308 309 311 317 324 324 321 320 320 323 324 324 324 323 324 322 325 328 326 327 323 323 326 327 330 337 342 350 350 351 356
324 314 310 312 310 313 314 315 315 315 315 314 314 309 308 311 312 316 318 319 320 317 317 318 321 322 323 322 322 324 326 326 327 326 325 324 324 326 328 329 331 332 339 346 350 351 350
324 320 309 312 310 312 312 312 313 315 316 316 315 314 311 312 313 315 316 318 317 317 317 318 318 322 323 321 324 325 326 327 325 325 326 325 326 327 328 327 329 330 335 339 349 349 345
324 323 310 312 310 311 313 312 312 313 316 316 316 315 314 310 315 318 318 320 317 318 315 319 318 318 321 321 325 326 325 327 326 323 324 325 326 327 327 326 327 326 331 335 344 346 349
324 324 312 310 311 311 313 312 312 312 313 316 318 315 315 314 314 317 317 316 317 318 319 321 319 320 321 321 323 327 325 325 325 324 323 323 325 325 325 326 328 328 333 342 344 344 348
324 324 318 310 312 311 313 312 312 311 311 312 317 316 315 316 319 321 321 320 318 319 322 325 320 320 319 320 320 323 325 324 324 324 324 324 325 324 324 326 327 329 328 340 340 344 348
325 324 322 310 312 311 313 313 312 311 311 311 312 316 315 316 318 320 320 319 320 321 325 325 324 322 318 318 319 320 325 324 324 323 324 326 325 324 326 325 325 326 327 337 341 342 341
323 324 324 310 311 311 314 313 313 312 310 311 313 315 315 318 319 321 321 320 326 325 323 323 324 323 322 318 319 321 323 325 324 324 324 326 324 324 326 323 325 325 330 333 342 341 336
323 324 324 312 311 311 313 313 313 312 311 310 312 312 316 318 321 320 321 326 327 324 323 322 320 319 320 320 321 320 323 324 325 324 324 324 324 325 325 327 328 328 331 330 330 333 332
324 325 325 318 310 311 313 313 313 312 311 311 312 313 319 323 323 322 323 321 325 323 323 321 320 322 324 323 324 326 326 325 325 325 326 327 328 324 326 328 329 328 331 330 328 336 336
323 324 325 323 310 312 313 313 313 311 311 311 314 320 323 323 323 322 324 324 322 322 322 320 321 322 323 324 324 326 328 326 324 326 324 325 328 328 326 325 328 331 332 331 328 331 333
322 324 323 325 310 312 313 313 313 311 311 311 316 324 323 321 322 323 323 323 322 321 318 321 320 322 324 325 325 327 327 325 322 323 322 327 324 329 331 331 330 332 331 330 329 331 335
322 323 324 324 310 312 312 313 312 312 313 316 319 323 320 317 324 325 324 323 323 321 320 320 320 319 322 325 325 323 325 322 321 322 322 325 325 330 329 329 327 328 328 328 327 327 331
322 323 325 316 310 311 311 313 312 312 314 317 321 324 320 320 322 322 322 323 323 319 319 320 320 319 319 322 322 322 323 321 320 323 320 323 324 329 331 328 325 326 326 325 326 327 339
322 321 324 322 310 311 311 313 313 312 316 319 323 320 317 317 319 318 319 320 319 320 319 320 322 321 319 322 322 322 321 320 320 320 322 323 325 324 326 327 327 325 325 326 327 339 345
322 322 322 324 316 311 311 313 313 312 318 321 318 319 320 317 319 320 317 318 318 317 317 319 321 322 320 321 321 323 321 321 322 322 321 321 324 325 328 327 323 323 325 326 326 338 340
322 322 322 323 324 318 311 312 313 315 320 321 320 321 324 324 319 318 317 317 317 319 317 316 319 324 321 320 319 319 319 321 322 322 323 322 323 325 326 323 322 325 325 323 326 337 339
322 323 323 324 323 312 311 311 313 313 319 319 319 321 324 324 318 318 317 316 317 317 318 316 317 320 317 318 318 319 320 320 321 321 320 324 324 323 324 323 325 323 320 321 323 338 336
323 323 323 320 311 312 311 311 313 313 318 321 321 317 325 326 318 317 317 317 317 317 316 316 315 315 315 316 318 321 320 320 320 321 319 318 323 323 322 320 323 322 321 321 329 338 335
323 324 321 310 312 312 312 311 311 311 313 320 321 315 323 328 318 317 318 318 321 319 319 316 316 315 316 318 319 323 324 327 324 320 317 316 321 322 323 325 324 323 320 318 321 337 334
322 315 310 310 312 312 313 311 311 311 312 316 321 317 321 325 318 319 320 319 318 321 319 317 316 316 316 321 322 326 328 327 327 326 320 317 320 320 321 323 325 322 319 318 322 328 331
322 314 309 310 312 313 313 313 312 312 312 318 321 320 318 322 319 318 317 319 320 320 320 319 318 319 319 323 325 325 325 327 324 323 324 323 320 321 320 323 326 324 323 326 325 322 324
322 317 309 310 310 312 313 313 313 313 313 320 323 320 318 321 322 319 318 318 319 318 318 317 317 318 316 324 323 323 325 322 321 324 321 323 322 326 326 325 323 322 322 321 320 320 320

GFSGBSN_850_thetae_090.txt.gz
Theta_e
309 310 312 313 313 313 313 313 313 312 312 312 312 313 310 307 306 306 306 306 307 307 308 309 311 309 308 310 311 321 322 318 314 317 316 325 332 335 337 344 352 354 351 353 352 351 351
309 310 312 312 313 313 313 312 311 311 311 312 312 313 312 308 307 307 307 307 307 308 308 309 310 308 308 312 323 324 323 320 315 316 316 328 337 338 337 340 349 348 353 353 351 349 349
313 309 311 312 312 312 311 311 311 313 313 313 313 313 311 308 308 307 307 307 307 308 309 309 309 308 308 313 322 326 324 323 314 316 319 335 337 337 336 332 348 347 351 351 350 350 349
324 309 310 312 311 311 311 312 314 313 312 312 311 310 310 309 308 307 306 307 308 313 311 309 308 307 311 316 319 322 323 320 314 315 320 335 336 336 334 331 330 350 352 355 351 350 350
324 315 310 312 310 312 312 314 314 314 313 311 310 308 308 308 307 306 307 308 314 312 310 308 309 310 314 320 319 320 323 320 315 317 321 334 329 330 329 326 326 337 352 353 355 351 351
324 321 309 312 310 313 314 315 314 315 315 313 311 309 307 307 307 308 309 314 319 316 313 310 318 321 321 322 322 319 321 321 319 321 321 323 325 324 320 321 327 332 348 350 352 354 352
325 323 310 311 310 312 313 314 315 315 315 315 315 311 309 310 312 313 316 316 321 321 318 317 317 322 322 323 324 321 322 321 320 320 322 326 321 321 322 322 324 327 329 334 351 350 345
324 323 313 310 311 311 312 312 312 313 315 315 315 314 310 311 312 314 315 317 317 318 315 317 317 319 318 321 322 322 322 321 320 323 325 323 322 321 324 325 326 328 330 346 352 345 346
324 323 320 310 312 310 312 312 313 312 313 315 316 316 312 311 315 316 318 317 318 318 317 317 317 317 318 322 322 322 323 322 323 324 324 322 322 323 326 325 327 326 329 334 352 345 344
324 324 324 311 311 310 312 312 312 312 312 312 314 317 314 312 312 317 317 317 317 318 311 315 317 317 318 319 321 324 324 325 324 323 323 322 324 325 325 326 326 323 326 328 350 349 351
323 324 324 315 310 311 312 313 312 312 311 311 311 315 316 315 316 318 320 321 320 317 316 322 316 319 320 319 323 324 325 325 325 322 320 321 324 324 325 326 324 324 326 327 346 345 345
322 323 324 320 310 312 311 313 313 312 312 311 311 311 316 315 317 319 319 320 319 314 318 324 320 321 319 318 320 321 325 325 325 323 322 321 323 321 323 323 323 324 327 336 342 344 348
322 323 324 323 309 312 311 313 313 312 312 310 310 311 313 315 317 318 319 321 316 319 322 324 322 321 319 316 317 317 320 321 321 322 321 321 323 322 322 322 320 322 323 330 338 345 346
322 324 324 324 310 311 311 313 313 312 312 309 309 311 311 315 318 319 319 317 324 323 323 320 321 317 320 317 316 317 319 322 321 320 320 323 324 323 322 321 322 321 322 329 339 341 342
322 324 324 325 315 311 311 313 313 312 310 310 310 311 312 318 318 320 321 320 324 322 322 322 319 318 320 320 322 322 323 321 322 320 322 323 323 323 322 322 321 322 326 324 331 335 331
322 322 323 324 322 310 311 313 313 312 310 311 311 315 320 320 321 322 317 319 320 322 321 321 318 321 322 321 322 324 326 325 323 321 320 322 324 323 325 323 323 324 325 329 324 332 334
322 322 324 324 321 311 311 313 312 312 311 312 312 319 322 322 323 322 318 318 321 320 321 320 319 321 322 323 324 325 327 325 322 321 320 322 322 324 326 323 323 325 327 325 324 325 332
322 321 324 324 311 311 311 313 312 312 312 316 317 317 322 323 320 318 317 321 321 322 322 318 318 322 323 325 324 325 327 324 323 321 321 321 319 324 326 326 324 326 327 325 326 328 332
322 321 323 323 310 311 311 313 313 312 313 317 318 320 321 322 317 318 320 321 321 322 320 319 319 319 321 322 322 324 325 324 323 320 320 319 320 324 325 324 323 324 326 323 321 322 329
323 321 321 324 319 311 311 312 313 313 315 319 320 318 320 320 320 317 320 322 321 321 320 319 319 318 318 321 320 321 323 323 321 320 322 322 319 322 324 323 323 325 324 323 320 323 341
322 321 321 321 324 312 311 311 313 316 319 319 322 316 318 312 313 314 318 320 318 317 316 318 319 320 320 319 320 320 320 319 319 322 321 318 322 322 321 323 325 325 324 322 327 331 337
321 321 322 322 324 320 314 311 313 317 320 321 320 321 323 319 316 313 313 313 315 314 313 315 321 319 317 318 318 321 317 318 321 319 320 317 321 321 322 324 322 321 321 322 333 339 342
321 322 323 322 323 319 313 311 313 314 319 319 319 321 323 322 312 312 313 315 316 317 315 317 319 321 317 317 317 318 318 317 319 319 319 319 319 324 325 322 320 320 319 324 335 339 341
321 323 322 322 312 312 311 310 313 313 318 320 316 322 325 322 311 312 313 315 315 315 315 315 316 317 318 316 317 319 319 319 319 317 318 318 318 318 323 321 324 320 319 331 339 339 337
322 323 322 310 311 312 312 310 312 312 314 320 317 318 324 322 317 314 314 314 315 315 315 315 315 315 315 316 313 316 314 316 318 318 313 316 317 320 325 322 318 320 320 319 331 336 337
322 318 310 310 312 312 312 311 311 311 312 319 317 316 323 323 314 319 317 317 315 313 314 315 316 316 317 312 315 319 324 324 324 321 312 312 314 320 321 325 325 321 319 319 328 337 331
322 316 309 310 312 312 313 311 311 311 312 319 319 318 322 323 318 317 317 315 318 317 312 314 315 316 315 314 317 317 320 323 324 324 322 314 313 316 320 320 324 322 323 323 325 327 327
321 320 309 310 311 312 313 313 312 312 311 321 321 319 320 322 318 318 318 319 318 317 314 317 317 317 313 316 318 317 316 316 317 321 321 319 316 318 317 320 322 322 322 325 322 324 327
321 322 312 310 310 311 312 313 312 312 317 322 320 318 317 322 322 319 318 317 318 318 318 318 316 315 315 312 315 315 314 315 314 316 316 319 317 321 322 321 320 320 320 320 323 324 322

GFSGBSN_850_thetae_093.txt.gz
Theta_e
311 309 311 312 312 312 312 311 311 311 312 312 312 312 312 309 307 306 306 306 306 307 308 309 310 312 310 310 311 323 320 316 316 318 318 319 325 329 336 337 351 352 351 353 352 352 352
323 309 310 312 311 310 310 310 312 313 313 312 311 311 311 309 307 307 307 307 307 307 308 308 310 311 309 308 315 323 321 316 314 317 317 318 327 331 336 336 350 351 351 352 351 351 350
324 316 309 312 310 311 310 313 314 313 313 312 310 309 309 309 308 308 306 306 307 308 309 309 309 310 309 315 319 325 323 321 316 316 316 317 336 337 336 334 343 351 354 351 349 348 350
324 322 310 312 310 312 313 314 314 314 314 313 312 310 308 307 307 306 306 307 309 313 312 310 309 308 312 314 323 325 323 320 317 315 315 317 329 335 335 334 329 351 352 355 351 350 349
324 323 312 310 310 312 313 314 314 314 314 314 314 311 309 307 308 307 307 310 314 312 310 308 308 309 314 317 318 323 322 320 318 314 313 328 328 329 329 324 324 338 356 353 354 350 349
324 323 317 309 312 311 311 312 313 314 314 315 315 314 310 310 311 311 311 314 318 318 315 310 312 320 321 322 320 319 321 321 314 316 318 320 324 323 318 320 328 333 344 351 353 352 350
324 323 322 310 311 310 311 312 312 312 314 315 315 315 311 311 311 316 315 315 319 318 317 317 316 317 317 322 322 320 319 322 318 320 319 322 322 323 323 321 324 327 328 341 354 349 348
324 323 323 317 310 311 311 312 312 312 312 313 316 316 313 311 312 314 315 316 316 318 316 318 318 317 317 318 319 321 320 321 319 319 322 322 323 322 321 321 325 328 329 353 349 347 349
322 324 324 323 310 312 310 313 312 312 311 311 311 315 315 311 314 316 317 315 319 319 316 317 316 317 317 320 321 322 320 321 319 321 323 324 324 322 323 324 325 326 328 347 350 346 345
322 322 324 324 310 311 310 313 312 312 312 311 310 311 315 315 314 317 316 319 319 318 310 315 316 317 318 319 320 321 321 321 322 320 321 323 323 324 323 325 324 326 326 328 349 347 351
323 322 323 324 312 310 311 312 313 312 312 311 311 309 312 314 315 317 319 320 319 317 319 321 318 317 318 319 321 322 323 323 323 322 320 323 324 323 324 324 323 325 327 325 346 342 344
322 323 324 324 317 310 311 312 313 313 312 312 310 309 310 313 316 318 319 320 319 314 320 323 320 320 318 317 319 321 324 325 325 323 320 321 322 322 322 323 323 324 324 332 339 341 344
322 323 324 324 323 310 311 311 313 313 312 311 309 309 310 312 317 318 319 320 316 317 320 321 321 319 317 316 317 318 319 322 322 322 321 320 321 321 321 321 320 321 321 326 342 343 344
322 322 323 324 324 312 311 311 313 312 312 309 310 310 310 312 317 317 318 316 323 323 322 319 320 316 319 318 318 318 318 318 320 319 319 322 323 322 321 321 321 318 318 325 339 340 340
322 321 322 324 323 315 311 311 313 312 311 311 311 312 313 316 318 318 321 318 321 321 321 321 317 318 319 319 322 322 322 319 320 319 320 320 322 321 322 321 319 321 320 320 328 330 333
322 321 323 324 322 311 311 311 313 312 311 314 312 319 317 317 319 322 315 317 319 321 320 320 318 319 322 321 320 323 324 323 321 321 318 320 322 322 324 322 320 320 320 325 322 336 337
323 322 321 323 311 310 311 311 313 312 312 316 313 321 320 320 322 322 317 316 319 320 320 319 318 321 321 322 323 323 325 324 321 320 319 320 320 322 324 322 321 323 325 322 321 325 333
323 323 321 323 319 310 311 311 313 312 313 317 318 317 321 318 320 315 316 319 320 320 321 319 319 321 322 322 323 323 325 323 321 320 321 318 317 323 323 323 323 321 321 322 324 327 335
323 322 321 321 323 313 311 311 313 312 315 320 319 320 319 321 315 315 316 320 320 321 320 317 318 319 319 322 321 322 323 323 323 319 318 318 319 323 323 322 320 321 321 321 319 321 340
322 321 321 321 322 321 312 311 313 313 320 319 320 312 317 320 318 315 320 320 319 320 318 317 317 316 319 320 319 319 320 322 321 322 322 321 316 321 323 322 320 323 324 321 319 322 331
320 321 321 322 322 323 318 310 313 315 321 319 318 313 318 311 311 314 316 319 316 315 314 317 318 318 319 318 318 320 318 317 320 326 319 318 321 321 320 319 321 323 323 319 320 324 334
318 321 322 322 323 322 318 311 313 316 320 319 320 319 322 318 313 311 308 313 314 313 313 315 320 318 317 317 318 319 316 316 320 319 320 315 320 322 323 323 321 320 319 320 333 340 340
319 322 322 322 317 312 312 310 313 315 318 318 319 321 322 316 309 311 312 315 315 314 315 316 318 319 317 316 316 316 316 316 315 319 316 317 317 322 325 322 320 318 318 318 332 339 339
320 322 321 310 311 311 311 310 312 314 319 316 317 323 321 319 309 311 313 314 315 314 314 314 314 316 316 316 317 317 316 316 316 313 316 315 317 318 324 321 324 319 319 321 340 339 336
320 319 312 310 312 312 312 310 311 311 318 317 316 319 323 319 317 313 314 314 314 315 314 314 314 314 315 316 314 315 317 316 318 311 310 313 315 321 326 324 321 321 319 321 321 339 335
319 317 309 309 312 312 312 310 311 311 312 318 318 321 324 315 314 317 315 315 314 311 311 315 315 315 316 311 314 318 322 324 323 320 311 310 312 319 324 327 328 322 321 322 326 340 334
319 321 312 309 310 312 312 312 311 311 318 319 319 320 322 318 318 317 316 316 316 314 311 313 317 315 317 312 317 315 320 321 321 323 320 314 312 317 323 324 325 322 321 321 325 329 328
319 321 316 310 310 311 312 312 312 311 319 320 319 319 320 318 318 318 318 317 318 316 312 316 315 314 312 315 316 314 314 314 315 319 319 318 316 319 315 319 323 320 321 320 319 322 327
319 321 321 309 310 310 311 312 311 311 318 321 318 316 320 322 320 317 317 317 317 318 318 317 315 314 315 312 313 311 312 312 312 317 315 317 316 320 318 319 319 318 318 321 323 327 326

GFSGBSN_850_thetae_096.txt.gz
Theta_e
323 313 309 312 310 310 310 310 313 313 312 311 310 310 310 310 308 307 307 307 307 306 307 308 309 310 313 311 311 323 319 313 319 320 322 323 324 331 338 337 343 351 350 351 351 349 350
324 321 309 312 310 311 311 314 313 313 313 312 311 309 308 308 308 308 307 306 306 307 307 308 309 310 311 310 311 322 319 314 316 319 319 321 324 337 334 336 347 350 350 353 351 350 350
324 323 312 310 310 312 313 314 314 314 314 314 313 311 308 307 307 306 306 306 307 308 310 310 309 310 311 315 317 323 319 314 315 318 317 319 332 331 336 334 334 351 352 351 351 351 350
324 323 317 310 311 311 312 313 313 314 314 314 314 313 309 308 308 306 306 307 313 312 311 310 309 309 313 315 317 324 319 315 314 316 317 320 331 334 335 335 326 351 350 354 351 350 349
324 323 323 312 311 310 311 312 312 313 314 314 315 315 312 310 311 309 309 313 315 315 310 308 308 308 313 314 317 324 322 319 317 317 317 321 318 330 328 323 323 335 353 353 354 349 349
324 323 323 321 310 311 311 312 312 312 312 314 315 315 314 311 311 313 314 314 317 319 315 311 310 318 320 320 319 321 322 320 316 315 316 320 323 322 318 320 329 333 345 351 353 352 349
322 324 324 323 313 311 310 312 312 312 311 311 312 315 316 311 312 313 314 314 317 316 317 317 317 316 316 320 321 319 317 318 314 317 317 320 322 324 323 322 324 327 332 348 351 349 350
322 321 323 324 317 310 311 312 312 312 312 311 311 311 315 312 313 314 316 316 318 317 316 317 318 317 317 317 318 319 318 320 318 317 320 320 323 322 321 321 324 327 344 353 349 348 347
323 322 322 324 321 309 311 311 313 312 312 312 311 310 312 314 313 315 316 318 317 317 315 316 316 317 317 318 319 320 320 319 317 320 322 323 324 322 322 322 325 325 330 350 351 345 345
322 322 323 324 322 309 311 310 313 312 312 312 312 310 309 313 314 315 316 318 319 318 311 316 316 317 319 319 319 321 320 321 319 319 321 324 323 322 323 324 323 325 328 344 347 345 344
322 323 324 324 323 312 310 311 312 313 312 312 312 310 309 311 314 316 318 318 319 316 318 321 318 317 318 318 320 320 320 321 321 320 321 324 322 323 323 323 323 325 328 340 346 342 343
322 321 323 324 324 322 310 311 312 313 312 312 310 309 308 310 315 317 318 319 318 313 324 322 320 319 316 316 317 321 321 323 323 321 320 322 321 321 322 322 322 324 326 335 337 336 344
322 321 321 322 323 324 311 311 311 313 312 311 310 310 309 310 317 317 318 319 315 319 319 321 320 316 316 318 315 315 321 321 321 322 322 320 321 320 321 321 319 321 325 331 345 345 343
322 321 321 324 324 323 311 311 312 313 312 310 312 311 310 311 316 317 319 316 322 322 320 319 318 317 319 318 319 318 317 316 318 318 317 321 322 320 319 320 319 317 321 327 341 343 341
323 322 320 323 320 313 311 311 312 312 311 313 313 312 313 316 318 319 320 316 319 320 320 320 317 318 319 319 320 321 320 318 319 318 320 320 322 320 320 319 318 318 318 319 325 327 338
323 323 321 320 322 310 311 311 312 312 312 316 315 317 316 317 319 321 314 316 318 319 319 318 320 319 320 320 319 322 323 322 321 319 317 318 321 320 323 321 319 319 318 322 320 332 338
323 323 321 320 321 320 310 311 312 312 314 318 317 320 318 320 321 320 315 315 318 319 319 318 318 320 320 321 322 322 323 322 320 319 318 318 318 321 321 321 320 321 321 319 320 326 332
321 322 321 320 321 322 312 310 311 312 318 319 319 316 320 319 319 313 314 317 319 320 320 318 318 320 321 321 322 322 323 322 321 319 320 317 316 321 321 321 320 322 321 319 323 326 328
317 320 320 321 321 322 318 311 312 312 320 319 319 320 318 320 316 312 314 320 320 319 318 316 316 318 319 321 320 320 322 322 322 320 317 317 317 321 321 321 320 321 321 319 316 324 336
316 318 320 322 322 323 321 312 312 314 321 320 319 312 317 320 317 314 318 318 319 319 315 316 317 315 318 319 319 319 318 321 320 321 322 319 315 319 321 322 319 322 322 322 318 322 327
316 319 321 322 322 322 320 312 312 315 320 318 318 314 315 312 311 314 314 313 314 313 312 317 317 317 318 317 318 319 316 315 321 325 318 316 320 320 320 319 320 321 319 318 318 319 328
317 320 322 321 317 314 313 311 312 316 319 319 320 319 320 314 311 311 308 313 313 313 313 313 318 318 316 317 318 318 316 315 318 318 317 313 321 321 323 322 321 319 319 323 323 335 338
317 321 321 310 311 311 311 310 312 318 316 317 319 322 318 313 308 310 311 314 315 313 314 314 315 318 316 316 316 316 315 314 314 315 316 315 319 321 324 320 319 318 319 319 320 335 336
317 320 317 310 311 311 311 310 311 316 317 316 319 322 317 311 308 309 312 314 314 313 313 313 313 315 316 315 315 315 315 315 313 309 314 314 315 318 323 320 322 317 318 320 331 337 334
317 320 310 309 311 311 312 310 311 312 318 316 319 321 321 316 314 312 314 313 314 314 313 314 314 313 315 315 314 318 314 315 317 311 310 311 315 319 322 322 320 320 320 322 322 336 334
317 319 317 309 310 311 312 311 311 311 313 317 319 322 321 315 313 317 314 314 313 311 310 314 314 314 315 311 313 316 318 322 322 320 312 310 312 318 321 326 326 320 320 321 324 333 334
316 318 321 310 309 311 312 312 312 311 316 317 319 321 319 317 317 317 316 315 315 312 310 312 315 314 317 312 316 314 319 320 321 322 319 313 311 318 322 323 322 321 319 320 325 324 330
316 318 321 312 309 310 311 312 311 312 319 318 318 318 319 317 317 317 317 317 317 315 311 314 313 313 311 314 314 313 312 312 315 318 318 317 314 317 314 319 323 318 320 323 319 323 327
315 317 321 318 310 310 310 311 311 311 320 320 318 315 320 320 317 317 317 318 318 318 318 316 314 313 315 311 310 309 310 310 311 316 315 319 315 318 315 316 317 317 318 321 322 325 326

GFSGBSN_850_thetae_099.txt.gz
Theta_e
324 322 311 311 310 312 312 313 313 313 313 312 311 309 308 308 308 307 307 307 307 306 307 308 309 310 312 313 312 317 319 311 311 321 321 321 328 338 345 341 341 349 350 349 346 348 350
324 323 314 310 310 312 313 313 313 313 314 314 313 311 308 307 307 307 306 306 306 306 307 308 309 309 311 314 311 321 318 310 318 321 324 322 329 340 338 338 343 349 350 351 351 350 349
324 323 321 311 311 310 312 312 313 313 314 314 314 313 309 309 307 306 306 307 308 310 311 311 309 310 312 316 316 321 315 311 320 321 322 324 330 335 336 337 337 349 352 350 349 350 349
324 323 323 318 310 310 311 312 312 313 313 314 314 314 311 309 310 307 308 311 315 313 310 310 310 310 313 314 316 320 312 311 319 319 318 322 328 333 335 335 331 352 350 356 351 350 349
322 324 323 323 312 311 310 312 312 312 312 312 313 315 314 311 311 313 313 314 316 319 311 309 308 308 314 314 316 320 313 314 316 317 319 320 327 331 330 330 333 347 356 354 356 350 351
322 321 323 323 318 310 310 312 312 312 311 311 311 312 315 311 311 313 313 314 317 319 317 315 311 317 319 320 317 322 319 318 316 316 318 319 323 332 329 331 340 345 351 352 355 352 347
323 321 321 323 322 310 311 311 312 312 312 311 311 310 312 312 312 313 316 315 317 316 317 317 316 316 316 318 319 320 320 315 315 316 322 322 331 339 337 329 329 331 339 352 354 349 350
322 322 322 323 323 310 311 310 312 312 312 312 312 311 309 313 313 314 316 317 317 318 318 317 317 317 316 317 318 317 320 318 316 317 321 325 330 332 328 326 328 338 348 353 352 349 349
321 323 323 324 323 314 310 311 311 313 312 312 312 311 310 309 313 315 316 317 317 317 317 316 315 316 317 317 319 318 319 318 317 321 322 323 327 327 324 325 327 328 335 350 352 347 344
321 321 323 324 324 323 310 311 311 312 312 312 312 311 309 309 313 314 316 317 318 317 318 322 317 317 319 319 321 319 320 319 320 321 325 327 324 329 325 325 326 328 329 348 349 347 348
321 321 321 321 323 324 318 310 311 312 312 312 311 309 309 308 311 315 317 317 318 315 322 322 319 316 319 318 320 319 320 321 321 323 325 326 326 327 327 326 326 328 329 345 347 347 347
321 320 320 323 324 323 321 310 311 312 312 312 310 311 310 309 313 316 317 318 317 318 324 322 320 319 317 318 317 320 320 321 321 323 324 325 322 326 327 324 326 328 339 342 342 345 348
323 322 321 322 322 320 313 311 311 312 312 311 313 312 309 311 316 317 317 319 319 324 321 322 321 318 320 319 320 320 322 323 325 326 326 324 324 323 323 325 323 325 332 342 343 342 341
323 323 322 320 322 313 310 311 311 312 311 313 315 311 310 314 316 317 320 321 324 322 322 321 320 319 322 321 322 320 323 324 321 325 326 325 323 324 323 324 325 326 328 337 344 344 342
323 323 322 320 320 322 310 310 311 312 312 316 315 313 314 316 317 319 320 322 322 322 322 321 320 321 321 321 322 322 321 323 323 323 327 326 325 322 322 323 324 323 326 329 336 336 343
317 321 322 321 320 320 317 310 311 311 315 318 317 316 317 318 320 321 320 318 320 320 320 319 322 321 322 323 322 324 324 323 323 321 320 324 325 323 324 323 321 324 325 326 328 338 341
315 316 320 321 320 320 321 312 310 312 319 318 318 319 319 320 321 320 322 319 319 319 319 320 321 321 322 323 323 323 325 323 321 321 321 323 325 325 325 326 326 325 325 326 327 331 335
315 315 318 320 321 321 322 314 311 313 319 318 319 323 319 319 321 316 321 319 319 320 319 319 320 322 323 323 323 324 325 324 321 320 324 322 325 326 325 323 323 326 326 327 328 331 332
316 316 319 321 321 322 322 315 311 313 320 319 320 319 318 320 322 320 318 321 321 321 318 318 318 320 321 322 323 322 323 322 322 322 322 323 325 326 326 326 324 327 325 325 325 330 334
316 317 320 321 321 321 320 314 312 314 319 319 318 320 317 320 316 319 321 320 320 317 316 317 319 319 321 322 322 322 320 321 319 322 323 322 324 327 325 326 325 328 324 324 325 328 330
316 318 321 319 314 314 315 313 312 314 319 318 318 318 314 321 316 316 317 315 316 316 314 317 320 319 320 320 321 321 319 319 322 323 321 322 327 325 324 324 323 323 322 327 324 328 330
315 318 321 310 311 311 311 311 312 315 316 319 320 321 315 313 311 315 313 316 316 316 316 316 316 318 318 320 321 321 319 319 320 321 322 320 327 325 327 324 324 322 322 327 330 325 326
315 317 319 310 311 311 311 310 312 317 315 317 320 320 315 311 313 316 316 316 316 315 314 314 314 317 319 317 316 316 315 316 317 320 322 323 326 327 327 324 323 325 323 325 330 332 336
315 317 316 310 310 311 311 310 311 316 316 318 320 321 314 315 314 314 314 315 315 314 316 314 313 317 317 314 314 314 316 315 315 315 317 323 326 326 330 325 328 323 323 326 332 339 339
316 316 319 312 309 311 311 310 311 311 317 318 320 320 316 318 315 315 315 315 314 314 315 315 314 313 314 315 321 323 320 320 322 317 318 319 324 328 330 328 325 322 324 324 326 334 337
315 315 318 318 309 310 312 311 311 311 315 317 320 321 317 318 318 316 316 315 319 317 316 315 314 314 316 318 321 323 323 324 323 321 317 319 323 325 329 329 328 324 322 321 324 337 335
315 315 317 321 310 310 311 312 311 312 318 317 319 320 317 318 316 316 318 318 315 314 317 314 315 315 317 321 324 325 327 323 326 324 324 321 321 324 327 328 326 322 321 321 330 329 333
315 315 317 321 312 309 310 311 311 311 319 318 317 318 318 317 317 317 317 317 316 316 319 316 317 316 318 323 323 323 325 323 323 322 322 322 322 324 322 325 325 321 323 326 323 324 330
316 316 316 320 317 310 310 310 310 310 318 320 317 316 319 318 317 317 317 317 317 317 317 316 316 315 317 321 319 319 322 318 319 327 318 325 321 327 323 324 320 320 320 321 322 324 327

GFSGBSN_850_thetae_102.txt.gz
Theta_e
324 322 314 311 310 312 313 313 313 314 314 314 313 310 308 307 307 307 307 307 307 307 307 308 309 309 312 318 317 317 319 310 310 325 325 324 331 342 349 347 346 351 352 348 348 350 349
323 323 320 311 311 311 312 312 313 313 314 314 314 312 309 308 307 306 306 306 306 307 307 308 309 310 313 319 314 316 319 311 323 323 322 322 329 343 348 344 345 349 350 348 348 350 350
323 323 323 318 310 310 311 312 312 313 313 314 314 314 310 309 309 306 307 308 311 312 312 311 310 310 316 318 315 322 322 323 323 323 323 323 328 342 341 340 339 349 354 351 349 352 348
321 323 323 323 312 311 310 312 312 312 312 312 313 315 313 311 311 311 312 314 317 316 310 311 311 310 317 314 318 321 320 325 326 322 322 324 332 341 339 338 337 352 353 358 351 351 348
322 321 323 323 316 310 310 312 312 312 311 311 311 311 314 311 311 314 313 314 316 318 312 310 311 314 318 314 320 319 316 319 322 320 319 322 328 339 338 338 344 355 359 356 356 349 347
322 321 321 323 320 310 311 311 312 312 312 312 311 310 311 313 312 313 315 315 317 319 317 316 312 320 320 321 319 319 318 318 319 319 319 321 327 339 341 340 344 352 354 355 356 350 342
322 323 323 323 322 310 311 310 312 312 312 312 312 311 310 311 312 314 316 316 320 322 321 321 319 319 320 319 321 321 319 318 318 318 322 321 328 342 347 341 336 343 349 355 354 346 344
321 322 324 324 323 317 310 311 311 312 312 312 312 312 311 309 313 315 317 319 319 318 321 319 319 319 319 319 320 322 318 319 319 320 323 323 327 338 341 336 334 345 351 357 352 349 351
321 321 321 322 323 324 314 310 311 312 312 312 312 312 310 309 312 315 318 318 317 317 321 319 318 319 320 319 321 322 320 320 319 320 323 324 323 334 338 336 334 338 344 351 355 349 348
321 320 320 323 323 323 322 311 311 311 312 312 312 310 309 308 313 314 318 318 318 317 323 322 320 320 320 321 322 320 321 321 320 321 322 324 327 332 336 334 331 336 338 344 352 350 351
323 322 321 322 322 322 318 311 310 311 312 312 311 311 311 308 311 316 318 317 318 316 323 323 320 318 321 323 323 322 321 322 322 321 324 325 327 331 332 334 331 331 333 338 342 343 345
323 323 322 320 321 314 312 311 310 311 312 311 313 314 310 309 312 317 317 318 317 322 326 323 321 322 321 321 323 322 322 322 323 323 323 326 327 330 332 329 329 335 340 340 338 339 345
322 323 323 322 320 322 311 310 311 312 311 313 315 310 309 313 318 317 317 319 322 325 323 323 322 322 323 322 323 324 324 324 326 325 323 326 327 328 329 332 329 333 336 343 347 344 346
316 317 321 322 320 320 320 310 311 311 311 317 311 311 313 316 316 318 320 323 323 323 324 323 322 323 323 323 324 324 324 325 326 327 325 326 327 327 326 330 333 333 332 339 345 347 341
316 315 316 321 320 320 321 312 310 311 315 316 313 314 315 317 318 320 322 322 324 324 323 323 323 323 323 323 323 324 325 325 325 327 328 326 325 325 326 326 328 331 334 334 336 339 341
316 315 316 319 320 320 321 315 310 312 318 316 316 319 319 319 320 321 322 321 323 322 323 323 323 323 323 323 323 323 324 325 325 325 326 328 327 325 325 325 326 327 328 333 335 339 340
316 316 317 319 321 321 322 317 311 314 318 317 318 321 319 320 321 322 323 322 322 322 322 323 322 323 324 324 325 324 325 325 324 325 325 327 327 327 326 325 326 326 327 327 329 332 334
315 316 319 321 321 321 322 317 311 316 318 318 321 323 319 320 322 322 323 323 321 322 321 322 322 322 324 323 324 324 326 326 323 324 325 326 327 328 327 327 327 328 327 328 328 330 332
315 316 320 321 320 320 320 314 311 316 318 319 324 323 320 320 322 323 323 322 322 322 321 321 321 321 322 323 324 323 324 324 324 325 326 327 326 328 328 328 327 327 328 329 328 329 331
315 317 321 314 314 316 317 312 311 316 318 320 322 324 322 322 322 322 323 322 321 318 321 321 321 321 321 322 323 324 323 324 322 324 321 323 327 327 327 328 328 328 329 329 329 329 329
316 316 320 310 311 312 313 311 312 315 318 318 322 322 320 322 320 320 320 319 319 320 318 319 322 321 322 323 323 323 323 323 323 325 325 327 327 327 326 326 326 328 328 328 329 329 329
316 316 319 313 310 311 311 311 313 314 317 323 324 323 320 319 319 319 316 319 318 318 317 317 317 319 322 323 324 324 323 324 325 325 326 326 328 328 326 327 327 327 327 327 330 330 328
316 316 317 313 310 310 310 310 312 315 316 322 321 319 320 317 319 319 319 318 318 317 317 316 316 316 322 322 320 320 320 321 322 325 325 325 326 328 326 327 328 329 328 327 329 333 333
314 316 316 318 310 310 311 310 311 315 316 319 321 322 320 319 319 318 318 317 318 318 318 316 314 316 320 318 318 320 320 321 322 322 322 326 326 326 326 328 329 328 328 329 329 332 338
314 315 316 319 312 310 311 310 311 311 316 319 320 322 321 319 318 318 318 318 318 318 317 317 317 317 317 319 323 324 323 323 323 322 323 324 325 326 327 327 327 326 327 327 329 334 338
313 314 315 317 317 309 311 311 311 312 314 318 321 319 321 319 320 319 319 318 320 320 320 318 318 317 320 322 323 326 324 324 325 323 322 324 326 324 326 327 329 328 325 324 325 335 333
312 314 315 316 320 309 310 311 311 312 315 318 319 319 321 321 320 319 320 320 319 320 319 319 319 319 320 322 324 324 325 326 326 324 325 324 325 324 324 324 326 327 324 324 330 332 331
313 314 315 315 320 312 310 310 311 311 317 317 318 318 320 321 320 319 319 319 320 319 321 321 320 319 320 320 322 325 325 327 326 325 325 325 325 325 325 325 326 325 327 329 329 327 330
315 315 317 315 319 315 310 310 310 310 316 318 321 317 318 322 320 318 318 317 318 318 318 320 320 319 320 321 321 323 325 322 325 326 324 327 326 326 327 329 325 325 327 328 328 327 330

GFSGBSN_850_thetae_105.txt.gz
Theta_e
323 323 319 311 311 311 312 313 313 313 314 314 314 312 309 309 307 307 306 306 306 307 307 307 309 310 312 323 322 323 320 313 311 324 329 329 334 344 347 348 348 352 352 349 348 351 350
324 323 323 316 311 310 312 312 313 313 313 314 314 314 310 309 309 306 306 307 308 308 308 308 309 310 316 324 319 326 324 310 317 327 328 327 332 340 348 349 349 350 351 351 351 352 350
322 323 323 323 311 311 311 312 312 312 312 313 314 315 313 311 310 310 311 313 316 312 312 312 311 311 320 322 319 327 322 318 319 325 326 325 327 339 347 347 344 351 353 351 350 352 351
322 321 323 323 313 311 310 312 312 312 311 311 311 311 314 311 310 314 314 315 316 318 310 311 311 315 323 318 323 325 324 324 323 325 324 323 326 335 345 343 345 354 352 357 351 352 350
322 322 322 324 315 310 311 311 312 312 312 312 311 310 310 312 311 314 315 315 317 318 314 313 318 322 321 317 323 323 323 326 324 325 324 325 327 340 345 345 348 354 360 356 356 349 349
323 323 323 323 318 310 311 310 312 312 312 312 312 312 310 310 312 314 316 316 317 318 318 318 320 322 321 321 324 320 319 323 324 322 322 323 328 344 346 346 346 353 356 357 357 347 347
321 321 323 324 324 317 310 311 311 312 312 312 312 312 311 310 312 314 317 321 325 327 325 325 321 322 322 322 322 322 321 320 321 322 323 322 328 342 345 344 342 351 356 357 353 345 346
321 320 321 322 323 324 316 310 311 311 312 313 312 312 311 310 311 315 317 322 320 320 324 321 320 321 322 321 324 322 321 321 320 323 324 324 326 332 342 345 340 342 353 354 350 345 346
322 321 321 323 323 323 323 312 310 311 312 312 312 312 310 309 310 315 319 320 319 320 324 320 319 321 321 321 323 323 321 322 322 322 324 326 326 328 342 345 340 342 352 351 351 349 347
323 323 322 320 321 319 318 313 310 311 312 312 312 310 312 308 314 318 320 320 319 320 327 322 322 323 322 322 323 324 321 322 322 322 324 326 327 326 340 342 340 340 349 350 346 352 351
322 323 323 322 320 320 311 311 310 311 312 312 311 314 313 308 319 318 321 319 320 321 327 323 321 322 323 324 324 322 321 323 324 322 323 324 326 327 333 339 338 337 338 349 350 349 344
317 317 320 322 321 320 320 310 310 311 311 311 316 313 309 308 311 319 319 320 321 324 328 324 323 323 324 323 324 323 322 323 325 324 323 326 326 329 332 333 335 336 340 341 343 344 346
317 316 316 320 321 320 320 312 310 311 311 317 311 309 310 317 320 319 319 321 325 326 324 323 323 323 323 323 325 325 325 325 327 326 325 325 328 328 330 332 334 339 343 346 346 344 344
317 315 315 318 320 320 320 315 311 310 315 315 311 313 316 318 319 319 323 327 326 324 325 324 323 323 324 323 325 325 325 326 327 327 326 324 328 329 330 334 333 337 339 346 350 348 345
316 316 316 318 320 320 320 317 310 312 318 314 315 317 321 321 320 320 323 328 325 325 324 323 323 324 324 323 324 324 326 326 327 328 330 327 327 327 328 329 332 333 338 338 342 343 347
315 316 318 320 320 320 320 319 310 314 318 315 322 322 321 321 322 323 326 321 324 324 324 324 325 324 325 324 323 324 326 326 326 327 328 331 329 327 327 327 327 331 332 335 337 341 346
315 316 319 321 321 321 321 318 311 317 318 317 321 324 320 321 323 325 325 324 323 322 323 324 323 323 324 324 324 324 326 326 325 327 326 329 329 329 327 327 328 327 329 331 334 335 337
316 316 320 319 319 319 320 316 311 318 318 317 324 326 320 322 325 324 324 324 322 322 321 323 323 324 324 325 325 324 325 327 325 324 326 327 328 330 329 328 326 328 327 328 330 333 333
317 316 320 311 312 316 318 314 311 317 318 321 326 322 320 322 326 325 323 323 323 323 323 323 323 323 324 325 325 324 325 326 325 325 327 328 326 330 330 329 328 327 329 328 328 329 331
316 316 319 312 310 312 315 313 312 316 318 321 323 325 322 321 320 324 325 324 323 320 322 322 323 322 323 324 325 326 325 325 324 325 324 325 327 328 329 330 330 330 328 329 329 331 330
315 316 317 316 310 310 312 313 312 315 318 320 322 324 323 324 321 322 322 321 321 322 320 320 323 321 323 325 325 326 324 324 324 325 325 325 327 327 329 329 329 329 329 328 330 330 331
315 316 316 316 311 310 311 311 312 314 318 324 325 322 320 320 319 321 315 321 319 320 318 320 318 318 321 325 326 326 324 325 326 326 326 326 327 330 330 327 327 328 329 330 329 329 329
315 314 316 317 314 310 310 310 311 315 321 325 324 322 322 318 321 321 322 320 319 318 318 317 317 317 319 324 323 323 322 323 325 327 327 326 326 327 329 325 327 327 328 328 328 328 329
315 314 315 316 318 310 310 310 311 314 318 325 325 325 321 322 321 320 319 318 319 319 320 318 316 316 323 321 321 322 323 323 323 324 324 327 327 327 329 327 330 329 329 330 330 331 332
317 313 314 315 319 311 310 310 311 312 315 323 325 325 322 322 320 319 319 319 319 320 320 319 319 318 319 320 323 325 325 325 325 324 324 325 328 328 330 326 329 328 329 330 330 334 339
317 313 313 315 317 315 310 311 311 312 314 322 326 320 324 323 321 319 320 319 322 322 322 320 319 319 320 322 324 329 330 328 329 326 324 324 325 329 329 331 329 331 329 326 328 330 333
316 314 313 314 315 319 310 310 311 311 314 319 325 318 325 321 321 319 323 321 320 320 321 321 320 319 319 325 325 325 326 326 330 328 329 327 327 326 326 328 329 328 326 324 330 333 331
316 314 315 314 315 320 311 310 311 310 315 318 326 318 326 322 322 320 319 320 321 321 323 323 321 322 320 321 323 324 325 327 326 325 329 323 326 329 327 330 332 327 328 332 332 330 331
315 314 315 315 316 318 314 310 310 310 313 316 325 320 318 325 322 320 320 319 320 318 319 321 321 322 320 322 322 323 325 323 325 325 325 324 327 330 328 331 328 327 328 329 329 329 330

GFSGBSN_850_thetae_108.txt.gz
Theta_e
323 323 323 314 311 311 312 312 313 313 314 314 314 314 311 309 309 307 306 306 307 307 307 307 309 310 312 325 323 324 320 316 312 316 331 333 337 346 347 347 348 352 352 351 351 352 348
322 323 324 321 312 311 312 312 312 312 313 313 313 314 313 311 310 310 310 312 314 312 310 308 309 310 312 325 322 326 323 315 313 320 328 331 333 341 345 349 349 350 351 351 350 351 350
322 321 323 323 313 311 311 312 312 312 311 311 311 311 313 311 310 314 315 316 318 318 311 312 311 311 321 324 321 325 325 315 316 323 329 330 331 336 343 349 349 352 355 351 353 353 354
322 322 322 323 313 311 311 312 312 312 312 312 311 310 310 312 311 314 315 316 316 317 314 312 312 312 325 321 322 327 324 319 317 323 327 328 328 328 335 346 347 354 353 357 350 351 352
323 324 324 323 317 311 311 311 312 312 312 312 312 312 311 310 312 313 315 315 316 317 315 315 322 320 325 319 319 325 325 323 325 325 326 325 325 329 336 347 350 354 356 357 354 349 350
320 321 322 324 324 320 311 311 311 312 312 312 312 312 312 311 311 313 316 317 318 318 319 317 318 324 324 321 322 324 324 326 325 326 326 325 327 330 339 349 352 355 351 349 356 351 349
321 321 322 322 323 324 322 312 310 311 312 313 313 312 312 311 310 314 316 322 327 325 327 327 324 324 323 322 324 321 321 325 326 324 325 324 326 332 344 346 346 347 349 353 350 346 349
323 323 321 321 322 323 323 319 311 310 311 312 312 312 311 310 310 313 316 322 321 321 324 326 320 321 323 323 324 323 321 323 324 324 325 325 324 328 338 344 347 350 352 353 347 347 348
323 323 323 321 320 318 318 316 311 310 311 312 312 311 310 309 309 313 317 322 321 321 325 321 320 321 321 322 324 324 322 322 322 322 324 326 326 326 329 339 350 349 350 350 349 347 346
317 319 321 323 321 320 316 311 310 310 311 312 311 311 314 308 317 320 321 321 320 322 327 323 321 323 322 322 324 324 322 323 324 323 323 324 327 327 328 336 342 352 347 346 348 351 353
317 316 316 320 322 320 320 313 310 311 311 311 313 316 313 308 321 320 323 319 320 322 331 324 322 324 324 324 324 324 323 323 324 323 323 324 325 328 327 338 340 345 345 345 349 350 347
317 316 315 316 321 321 319 319 310 311 310 314 316 310 309 309 312 320 319 320 321 325 331 325 323 324 324 324 325 324 324 323 324 326 323 324 326 327 328 332 336 341 345 343 343 349 357
316 315 316 317 319 320 319 320 312 310 312 317 310 310 310 319 322 320 320 322 327 328 327 324 324 323 325 324 325 325 323 325 326 327 325 324 327 327 329 332 336 338 346 351 355 359 355
316 316 317 319 320 320 319 320 313 310 316 313 313 315 316 319 321 320 322 328 331 329 324 323 323 324 325 323 325 325 325 325 325 327 326 325 325 328 328 331 333 335 338 342 346 348 352
316 316 318 320 320 320 320 320 312 311 317 314 316 317 322 322 320 322 325 329 328 326 324 324 323 323 326 324 325 324 326 325 326 328 329 331 326 327 329 330 333 334 336 337 343 342 344
317 315 318 320 320 320 320 320 311 313 317 315 320 325 321 321 322 325 328 325 324 323 323 324 326 326 327 326 322 323 326 326 327 328 327 330 333 328 328 328 329 332 333 335 335 347 349
317 315 318 315 317 319 319 318 310 315 317 317 318 325 319 323 324 326 329 324 323 322 323 325 325 326 326 325 326 326 327 327 328 328 327 329 331 331 328 328 327 327 330 332 333 335 339
316 317 317 315 311 316 317 316 310 316 317 317 322 327 321 323 326 327 326 324 323 323 321 324 323 324 326 326 324 325 326 328 326 325 326 327 329 332 331 329 328 328 328 330 332 336 335
315 316 316 319 311 311 316 315 311 316 318 318 324 326 321 322 326 326 324 323 324 325 323 324 324 324 324 325 326 327 327 326 325 324 328 329 329 329 331 331 329 327 328 328 327 329 334
316 315 316 316 316 310 312 315 311 314 317 319 325 327 324 322 323 325 325 325 324 321 322 322 323 323 324 325 325 326 328 325 324 323 325 325 329 329 330 332 332 331 326 327 330 328 329
317 315 316 316 317 311 310 314 311 313 317 319 323 326 325 326 323 323 324 323 322 323 321 321 323 322 323 325 328 328 327 324 325 324 324 324 327 327 329 330 330 331 331 331 329 330 330
318 315 314 316 317 314 310 313 312 312 317 319 327 327 322 321 321 322 317 322 320 321 320 321 320 320 318 323 326 327 326 327 328 326 325 325 326 327 330 329 329 329 329 331 330 328 330
318 317 314 315 316 318 310 311 311 312 320 328 326 325 323 321 321 323 323 321 320 319 320 318 318 318 318 323 324 323 324 324 326 328 329 330 326 328 328 328 327 329 329 330 331 330 330
320 317 314 313 315 318 311 310 311 311 318 325 329 327 326 325 321 322 320 319 320 321 321 319 319 317 320 323 322 320 322 324 324 324 326 329 331 329 330 329 332 330 331 332 330 330 335
322 318 315 313 315 316 316 310 311 311 314 321 326 327 326 328 321 321 319 320 320 320 321 319 320 319 319 319 321 324 325 325 326 327 325 325 329 327 328 327 329 331 331 331 331 335 337
323 319 315 313 314 315 319 310 310 311 312 319 327 327 326 326 323 321 320 321 321 324 324 322 321 320 319 321 323 327 328 331 328 326 326 327 326 330 332 328 332 333 330 328 327 332 334
323 320 316 314 314 315 318 312 310 311 312 317 326 326 326 325 323 322 323 324 321 321 323 323 322 321 320 323 326 328 331 328 330 326 325 328 329 329 328 330 334 330 328 326 329 335 333
323 320 316 314 315 315 316 316 309 311 311 315 326 327 325 327 326 322 320 321 322 321 324 323 323 323 322 322 322 324 328 331 328 324 323 329 328 328 330 332 334 326 331 331 332 330 331
322 319 315 315 316 315 316 319 310 310 310 313 326 326 323 326 326 321 320 319 319 319 320 321 322 322 323 324 325 324 324 324 324 324 327 328 327 329 329 330 328 329 330 329 328 329 332

GFSGBSN_850_thetae_111.txt.gz
Theta_e
322 323 323 318 312 311 312 312 312 312 313 313 313 313 313 311 310 310 310 311 312 310 308 307 308 309 310 320 320 324 322 319 316 313 319 335 336 341 349 346 348 351 345 343 345 347 349
322 321 323 321 313 311 311 312 312 312 311 311 311 310 312 311 310 314 315 316 318 316 312 311 309 309 311 321 326 324 326 316 313 314 326 333 334 338 346 346 349 351 348 347 349 351 352
323 322 323 323 313 311 311 312 312 312 312 311 311 311 310 311 311 313 315 315 316 317 312 312 313 311 312 319 322 324 327 319 313 315 324 331 331 332 338 348 349 349 354 352 352 353 351
322 323 324 323 319 312 311 311 312 312 312 312 312 312 312 310 311 312 315 315 315 316 315 312 312 312 314 323 322 325 327 321 315 319 326 329 330 330 328 346 351 355 352 355 351 352 348
320 321 321 322 324 323 315 311 311 312 312 312 312 312 312 312 310 312 315 316 316 317 318 317 320 325 326 321 320 323 326 322 317 319 325 327 327 327 326 335 349 348 353 346 349 349 346
322 321 321 322 322 323 323 319 311 311 311 312 313 313 312 312 311 311 315 317 320 320 320 318 317 323 324 324 321 323 325 323 322 323 326 326 326 324 326 334 351 353 350 347 348 350 349
323 323 322 321 320 320 322 322 315 311 311 312 312 312 312 311 310 310 315 317 325 325 320 325 326 324 323 324 324 324 324 325 325 325 325 326 323 324 326 333 348 347 349 353 349 348 350
318 320 322 322 320 320 316 316 313 310 310 311 312 312 311 309 309 310 315 320 323 321 322 324 325 321 322 323 323 322 322 324 326 323 324 322 321 323 327 345 347 349 350 348 348 346 347
318 317 317 320 322 320 320 313 310 310 311 311 311 310 311 310 309 311 315 320 321 321 322 325 325 320 321 321 323 323 322 321 324 323 322 322 323 323 324 345 350 348 349 349 349 345 344
317 316 315 315 320 321 319 321 311 310 311 311 311 315 314 309 317 319 321 321 321 321 323 322 320 322 322 321 322 324 323 322 322 320 320 320 323 325 323 332 345 350 346 346 346 346 350
316 315 315 315 318 321 320 320 313 311 310 311 316 311 310 311 320 320 320 320 320 322 331 327 322 324 324 322 324 324 323 323 322 322 321 320 321 323 325 336 344 346 341 347 345 345 349
316 315 316 317 318 320 319 320 314 310 310 316 313 309 309 309 312 319 320 320 321 323 331 328 323 323 323 323 325 324 324 322 322 323 323 321 324 323 326 339 340 345 348 346 345 346 352
316 315 317 318 319 319 319 320 315 310 313 315 312 311 310 314 322 321 320 323 327 328 327 326 323 323 323 323 324 323 324 322 322 324 324 322 322 325 327 337 342 343 345 348 351 352 353
317 315 317 319 319 319 319 320 316 310 315 315 314 315 316 319 318 321 322 325 333 330 327 323 322 323 325 325 324 325 322 320 322 323 323 322 322 326 326 330 341 342 342 345 349 352 352
317 316 317 316 319 319 319 320 316 310 316 315 316 318 320 322 320 322 323 329 329 324 323 324 324 326 325 325 325 324 324 322 323 322 324 327 329 325 326 326 328 333 338 334 343 343 341
315 317 316 315 312 317 319 320 314 310 315 316 318 320 323 324 322 323 326 327 322 322 323 325 326 326 327 326 324 324 326 326 327 327 326 327 330 330 326 327 327 332 331 331 333 348 350
316 316 316 318 312 311 317 320 313 311 315 317 318 322 324 323 324 325 328 326 324 321 323 323 324 326 325 326 325 326 327 328 327 326 324 325 328 329 329 326 326 326 326 328 328 331 342
319 315 316 316 318 311 313 318 312 312 316 318 321 327 322 324 326 327 325 323 323 323 322 323 322 324 326 326 325 327 327 327 325 324 325 326 326 327 329 328 325 325 325 326 328 329 331
319 316 315 316 316 315 310 317 314 311 316 318 319 323 326 322 324 326 323 323 323 323 322 323 324 322 323 323 326 327 327 326 326 323 326 324 326 327 328 328 329 326 325 325 323 321 324
319 318 315 315 316 316 311 312 317 311 314 317 322 328 325 323 322 324 325 326 324 322 322 321 323 322 323 324 325 328 325 326 324 323 324 323 324 327 327 330 330 330 330 328 324 322 323
323 318 317 314 315 316 315 310 316 311 313 317 323 326 327 327 323 323 322 323 322 322 321 321 322 322 320 321 326 326 326 326 326 324 323 322 323 326 327 329 329 328 329 330 329 327 328
324 322 317 315 314 316 318 310 314 312 313 319 323 327 328 324 321 322 319 322 321 320 320 320 320 319 318 317 325 327 326 324 327 326 327 324 323 326 327 328 329 330 330 329 329 330 327
324 324 320 316 313 315 318 310 311 311 314 326 328 327 328 327 324 322 323 321 320 321 321 319 319 319 318 323 323 323 319 321 322 327 328 327 329 330 328 327 328 328 332 331 331 336 340
323 324 323 316 313 314 316 314 310 311 312 320 325 327 328 329 328 323 320 319 321 321 319 319 320 319 320 319 319 320 320 321 325 325 324 326 328 329 328 328 331 331 328 330 336 338 337
323 323 323 320 314 313 315 318 309 311 311 314 324 328 329 331 329 327 319 321 320 320 320 320 320 319 319 319 319 322 323 326 328 325 325 323 326 327 328 327 328 332 330 329 332 337 335
323 323 322 322 315 314 314 317 311 310 311 311 322 329 328 328 327 325 321 321 322 323 323 323 321 321 319 320 321 327 331 329 330 326 324 324 325 327 329 333 332 332 329 327 326 337 335
321 323 322 322 316 314 314 315 317 309 311 310 322 326 326 327 325 326 324 324 320 320 323 325 324 324 321 320 322 326 329 327 329 328 326 326 326 327 330 330 333 328 329 329 329 335 334
321 323 322 321 316 314 315 315 318 310 310 310 316 327 326 327 324 325 321 321 322 322 324 322 324 325 325 325 323 327 330 328 323 324 326 326 328 327 328 330 330 323 329 332 329 329 333
321 322 322 320 316 315 316 315 316 312 310 310 317 327 326 325 323 325 322 320 319 319 319 320 321 324 323 324 324 325 328 323 325 329 323 328 326 327 328 329 326 325 326 322 329 334 333

GFSGBSN_850_thetae_114.txt.gz
Theta_e
321 322 323 317 313 311 312 312 312 312 311 311 310 310 311 311 310 314 315 315 316 315 312 309 308 309 310 315 318 323 322 319 319 315 316 327 338 336 347 346 348 347 346 344 345 344 346
323 323 323 320 313 312 311 312 312 311 311 311 311 311 310 310 310 312 315 315 315 316 312 312 311 310 310 317 325 324 326 319 315 315 316 322 336 334 343 346 347 348 346 344 344 347 351
320 322 323 323 321 314 311 311 312 312 312 312 312 312 312 311 310 311 314 315 315 315 315 312 312 312 312 314 323 329 326 326 315 314 320 335 333 330 331 349 350 347 349 347 349 349 352
321 321 321 321 322 323 319 312 311 311 312 312 312 312 312 312 311 310 313 315 315 316 316 314 313 319 313 321 321 323 324 323 313 314 327 332 329 327 327 346 348 346 351 357 349 349 348
323 322 321 320 321 322 323 322 314 310 311 312 312 312 312 312 311 310 313 315 317 317 318 317 317 323 322 323 321 322 326 325 314 319 317 327 324 326 326 342 351 347 354 349 349 348 347
320 322 322 321 320 319 319 321 317 311 310 311 312 312 312 312 311 310 312 318 322 323 320 322 320 321 323 323 322 320 324 324 319 318 318 318 323 320 320 328 349 352 349 347 348 349 349
317 317 319 321 322 319 319 315 312 310 310 310 311 311 311 310 309 310 315 319 322 323 320 321 322 324 323 322 323 324 325 325 322 319 321 325 321 322 322 326 343 347 349 352 349 348 350
317 316 316 316 319 321 319 319 311 310 310 311 311 310 310 309 309 310 317 319 320 321 320 322 323 324 322 323 323 322 323 323 323 321 322 320 321 321 326 343 347 348 348 347 347 348 348
316 315 315 315 317 320 320 319 314 310 310 310 311 314 313 310 310 313 318 320 321 320 319 322 325 324 321 321 322 322 321 321 324 324 321 319 321 323 337 346 343 348 348 346 349 344 344
315 315 315 316 317 319 320 319 316 311 310 311 315 311 309 314 316 320 320 320 320 320 318 322 320 321 321 321 320 323 322 321 320 322 320 318 321 322 323 347 344 349 345 346 346 345 346
316 315 316 318 318 319 319 319 317 312 310 313 314 310 309 315 319 319 319 320 320 320 328 326 322 323 323 321 322 322 323 322 321 320 319 317 319 320 321 345 340 342 344 345 344 346 346
317 315 317 318 318 319 318 319 318 312 310 314 315 311 309 310 317 319 320 321 321 320 329 327 322 321 322 322 322 323 323 322 322 320 319 320 322 320 322 341 338 340 346 345 343 346 349
317 316 317 315 318 318 318 319 318 312 311 315 314 313 313 317 320 320 321 322 323 324 325 327 323 321 321 321 323 322 322 321 319 321 320 320 321 327 341 341 343 343 342 350 349 349 350
315 317 315 315 313 318 318 318 319 312 311 315 315 317 317 320 318 321 322 321 330 329 327 323 320 321 323 323 323 323 321 320 319 320 319 321 321 328 331 342 344 342 339 347 352 352 350
318 315 316 316 313 312 317 318 320 311 311 316 317 319 322 320 319 321 321 323 324 320 320 323 322 322 323 322 323 322 321 319 321 318 320 324 325 326 329 332 341 341 341 337 339 341 344
319 316 315 316 317 312 312 318 320 310 312 317 318 320 323 322 322 321 320 324 321 320 322 321 323 323 323 323 322 324 325 325 326 324 320 323 325 326 327 326 337 334 332 332 331 345 346
319 318 315 315 315 317 310 315 319 311 312 316 318 322 322 322 323 323 321 323 322 320 322 321 321 324 325 324 323 323 324 326 324 322 323 321 323 325 323 323 322 323 324 324 326 335 340
323 319 317 314 315 315 315 310 318 313 312 317 317 319 324 323 322 320 320 319 323 320 321 320 319 323 324 322 323 325 326 326 326 322 324 322 320 324 325 323 325 322 323 321 323 327 327
323 323 318 316 314 315 316 310 315 316 311 316 318 319 326 325 317 316 319 321 322 319 319 319 321 319 318 322 324 324 325 326 325 324 323 321 323 324 325 324 325 327 326 323 318 316 320
322 323 323 316 315 314 315 315 310 315 310 315 318 319 326 326 321 320 320 322 321 321 320 319 319 319 317 321 321 325 323 325 325 324 323 322 319 325 324 325 327 329 327 326 320 319 320
323 322 324 321 315 313 315 317 310 314 311 315 321 321 326 322 319 318 318 320 319 320 318 318 317 315 315 313 320 324 324 322 323 325 322 318 319 324 326 324 328 328 328 328 326 329 325
321 322 323 324 318 313 314 316 311 313 311 323 320 330 329 328 325 318 316 319 317 318 317 317 316 316 313 319 323 324 319 319 321 321 325 321 323 325 325 325 325 329 331 339 339 339 343
319 321 323 323 322 315 313 315 316 312 311 322 325 327 329 327 324 323 316 318 319 319 320 319 317 315 316 319 318 319 319 319 320 321 322 321 323 324 324 325 324 330 334 339 339 342 343
319 317 323 323 322 319 313 314 317 310 311 313 318 326 328 325 327 326 324 320 319 318 317 316 318 316 319 319 318 318 318 323 323 321 321 321 321 321 324 323 329 329 329 335 338 338 338
320 317 321 322 322 322 315 313 315 314 310 310 315 324 329 325 327 326 324 319 319 318 318 318 319 319 319 318 314 316 321 321 323 322 321 320 320 323 324 324 328 331 328 329 333 338 337
321 319 319 322 322 322 316 314 314 317 309 311 315 327 327 326 324 326 326 321 317 318 318 321 320 321 319 314 316 323 326 326 327 325 320 321 319 322 326 330 327 329 327 328 328 335 334
320 321 320 321 322 322 317 314 314 315 314 310 314 317 326 327 320 323 325 321 320 317 317 321 322 323 320 312 315 323 325 325 326 326 323 320 321 324 328 329 330 327 325 326 329 331 334
318 321 321 321 322 321 317 315 315 314 317 309 311 317 325 326 321 320 323 320 321 321 317 320 319 320 318 318 318 323 323 322 323 322 324 320 321 321 326 328 327 323 326 330 327 329 335
318 320 321 321 321 319 315 315 316 315 317 309 311 324 320 324 322 321 322 322 320 320 318 320 321 323 321 318 318 318 324 318 317 322 320 322 320 321 323 325 323 324 323 324 332 333 332

GFSGBSN_850_thetae_117.txt.gz
Theta_e
323 323 322 315 312 311 311 312 311 311 311 311 311 311 311 310 310 312 314 314 315 315 313 311 309 309 310 312 319 323 324 318 316 316 323 331 336 339 337 345 348 349 345 344 344 345 345
320 321 322 323 320 314 311 311 312 312 311 311 312 312 312 311 310 310 313 314 315 315 314 311 312 311 311 313 325 325 325 319 318 315 317 322 339 337 333 340 348 347 346 345 344 345 346
321 321 321 321 322 322 321 313 311 311 312 312 312 312 312 312 311 310 312 314 315 315 315 314 312 313 312 316 323 328 327 324 317 315 316 325 335 331 328 342 348 347 349 345 347 347 346
322 322 321 320 319 320 322 322 316 311 311 312 312 312 312 312 312 310 311 314 316 316 317 316 315 321 316 317 322 323 324 323 314 314 315 322 327 327 326 344 345 347 348 352 347 345 346
317 319 321 321 320 319 318 320 319 312 310 310 311 312 312 312 311 310 311 315 319 320 319 318 317 318 321 323 321 323 324 324 313 314 314 321 322 324 330 341 347 347 352 348 348 342 348
317 316 316 318 320 320 319 315 313 310 310 310 311 311 311 311 310 310 314 319 321 324 323 321 323 320 322 323 321 320 323 325 316 317 318 319 320 318 318 326 342 350 351 348 349 345 348
315 315 314 314 317 321 319 320 312 310 310 310 310 309 309 309 309 313 319 318 320 320 320 321 321 322 323 322 322 321 321 323 322 318 318 322 321 321 320 324 341 346 349 350 347 345 349
314 314 315 315 316 319 320 319 316 310 310 309 311 313 312 310 309 319 319 319 318 319 318 322 322 322 321 322 323 323 324 323 321 318 320 319 320 320 322 333 345 346 348 348 346 347 348
314 315 316 317 317 318 319 318 317 311 310 311 314 311 309 309 311 318 319 320 318 318 318 321 323 324 321 320 321 321 321 323 322 321 321 321 322 321 342 345 347 345 348 347 348 345 344
315 315 317 317 318 318 318 318 317 313 310 312 314 310 309 314 318 320 319 319 320 319 317 321 319 322 322 320 320 322 321 321 319 322 321 319 320 322 344 343 342 348 344 344 346 345 347
316 315 316 315 318 318 317 318 318 314 310 313 314 311 310 318 320 318 320 320 321 320 321 323 323 322 321 321 321 322 323 321 320 320 318 318 318 320 322 344 338 340 343 343 343 346 344
315 316 316 313 313 316 317 317 318 314 310 314 314 312 310 317 318 319 320 322 322 320 326 325 322 320 321 321 321 322 322 322 321 320 318 317 321 317 319 330 338 342 342 342 343 342 346
316 315 316 316 314 311 316 317 319 314 311 315 316 315 314 319 318 320 322 323 321 323 323 325 324 320 320 320 322 321 321 319 318 320 320 319 321 337 339 343 342 342 342 346 348 349 347
318 316 314 316 315 315 311 316 319 313 311 316 318 319 319 320 319 320 321 320 324 326 326 322 320 320 322 320 322 322 320 320 318 319 318 320 331 339 338 340 342 340 339 344 349 351 348
320 317 315 314 316 315 313 313 318 314 312 317 318 320 319 317 319 320 322 321 319 319 319 321 321 321 322 321 323 322 320 317 322 318 319 321 323 322 338 338 338 341 340 335 340 340 344
322 321 317 316 314 315 316 311 316 316 311 317 319 321 322 321 321 321 319 322 322 318 320 320 323 322 324 322 321 322 323 324 324 321 318 322 323 324 328 339 338 336 333 338 335 343 345
321 322 322 316 315 314 315 315 312 317 311 316 319 321 324 323 322 322 320 320 322 319 320 319 322 322 323 323 322 323 324 324 323 321 321 321 321 324 323 325 338 323 325 323 327 332 337
321 321 323 322 315 314 315 316 310 317 310 316 317 315 324 323 321 316 318 319 321 319 320 319 319 320 320 321 322 323 324 324 325 323 322 320 318 323 325 322 321 323 322 319 323 326 326
319 320 321 323 322 314 313 315 313 315 314 313 317 318 323 323 319 314 316 319 321 319 318 319 319 318 320 321 323 323 323 325 324 323 321 320 321 328 325 321 322 326 326 323 314 314 318
317 317 319 321 323 319 313 314 316 313 317 312 318 316 325 325 321 316 317 319 320 320 318 317 315 314 315 315 318 322 322 324 323 323 322 320 319 325 329 323 323 328 327 325 318 323 323
319 317 317 321 322 322 315 313 316 312 313 317 319 319 323 322 323 317 315 317 319 318 317 316 315 314 313 320 321 322 320 318 321 321 322 316 319 322 325 324 324 327 336 337 334 334 327
321 319 316 318 322 322 320 313 314 313 311 323 323 329 328 327 324 320 313 317 316 317 316 316 315 314 317 319 321 320 318 316 319 318 321 317 320 323 323 325 327 337 337 337 339 342 342
320 321 319 317 322 322 322 316 313 315 311 319 322 325 327 325 323 321 319 317 316 318 319 317 315 313 317 318 317 317 318 321 321 322 320 320 321 321 323 322 327 329 334 338 338 340 339
322 320 321 318 320 321 322 318 313 314 312 311 313 323 326 323 325 324 324 323 318 317 318 316 316 314 317 318 316 321 322 322 322 320 318 320 319 318 322 322 329 329 329 336 338 337 337
322 319 319 320 319 321 322 320 315 313 316 310 310 315 326 324 326 324 324 319 318 318 317 317 318 319 319 318 312 315 318 320 321 321 320 317 317 321 323 323 327 331 328 329 330 338 334
321 316 317 321 320 321 322 321 316 314 314 312 310 324 324 325 319 325 324 321 316 317 319 320 319 319 318 312 314 322 321 324 324 323 317 317 316 320 322 327 328 328 327 325 327 337 332
317 315 316 318 321 321 321 321 316 314 314 316 310 320 320 325 324 324 323 322 317 316 318 318 320 322 320 310 314 321 323 323 323 323 321 318 319 322 324 325 326 327 325 326 330 327 333
315 316 318 318 321 321 321 320 315 315 315 316 310 317 320 324 323 322 322 321 320 320 317 318 318 319 315 317 316 321 321 320 320 319 321 318 320 320 322 325 325 324 325 328 326 330 335
318 318 317 319 320 321 321 318 315 316 315 315 310 320 314 317 323 323 321 320 320 319 318 319 320 320 319 316 315 317 322 317 317 319 318 319 317 320 320 321 321 323 324 327 328 332 334

GFSGBSN_850_thetae_120.txt.gz
Theta_e
320 321 322 322 320 313 311 311 312 311 311 311 311 312 312 311 310 310 313 314 314 314 314 312 312 310 310 311 320 323 323 315 316 316 319 336 339 338 338 344 348 348 346 345 345 344 345
321 320 320 321 321 322 321 314 311 311 312 312 312 312 312 312 311 310 311 313 314 314 315 314 312 312 311 312 324 325 322 317 315 316 318 330 339 340 334 332 347 347 345 344 345 345 345
321 321 320 319 318 319 321 321 318 311 310 311 312 312 312 312 312 310 310 313 315 316 316 315 315 318 313 319 325 326 325 321 317 317 317 323 336 330 327 342 348 346 348 346 346 346 346
317 318 319 320 320 318 318 318 318 313 310 310 311 312 312 312 311 310 311 314 317 319 317 317 317 319 317 320 324 323 324 325 316 316 316 317 330 326 327 345 345 349 347 352 347 345 346
315 315 315 315 318 320 319 316 312 310 310 310 310 311 311 311 310 310 313 317 319 323 322 320 321 320 320 321 321 321 323 323 313 313 316 321 324 323 338 341 343 345 349 348 348 343 346
314 314 314 315 317 320 319 319 313 310 310 310 309 309 309 309 310 312 316 318 320 323 321 321 322 321 322 323 322 321 322 320 315 316 316 318 320 317 317 325 334 348 348 345 346 344 347
315 315 316 316 317 319 319 318 314 310 309 309 312 313 311 309 310 317 318 319 319 320 319 321 320 320 322 322 321 319 322 324 320 318 319 319 319 320 319 321 336 345 348 347 347 345 348
315 316 316 317 317 318 318 318 315 311 310 312 313 311 309 309 315 317 319 318 318 319 317 321 322 322 321 322 322 320 320 322 321 319 320 318 320 319 321 326 345 346 348 349 347 345 347
315 315 314 317 317 317 317 317 316 312 310 312 314 310 309 310 316 318 319 319 320 319 317 321 323 324 321 321 321 321 322 322 320 320 320 320 322 320 340 344 346 346 347 347 348 346 344
315 315 315 312 315 316 316 317 317 313 310 313 314 309 311 314 318 319 319 320 321 320 315 320 319 322 323 320 320 321 321 321 319 321 319 320 319 329 342 344 343 346 342 345 346 343 351
315 315 315 316 313 312 315 316 318 314 310 314 314 310 315 319 319 318 319 321 322 320 320 322 323 321 320 320 320 321 321 321 319 319 317 319 318 320 343 341 337 343 342 342 343 344 343
317 315 314 315 315 315 311 314 318 314 311 315 316 312 315 319 318 319 321 322 321 318 325 323 323 320 320 320 320 321 321 321 320 319 317 317 318 317 321 332 338 339 340 340 340 339 344
321 318 316 314 314 315 315 312 317 315 311 315 318 316 315 317 317 319 321 323 316 321 321 322 322 318 319 319 321 320 319 319 317 320 320 318 321 337 339 341 340 339 336 341 343 346 349
321 321 319 316 314 314 315 313 315 316 312 316 317 320 319 317 319 319 320 315 319 321 322 320 319 319 321 320 321 320 319 319 317 318 317 319 326 339 336 340 342 338 334 339 347 350 347
320 319 321 321 315 314 314 316 312 316 312 316 320 321 317 317 318 319 322 317 317 319 318 320 321 321 321 320 321 320 319 317 318 316 317 319 322 325 336 338 338 339 338 334 337 339 342
318 319 319 321 322 315 313 315 312 316 311 318 321 321 321 321 322 322 318 321 322 317 318 319 322 321 323 321 321 321 322 324 323 319 316 320 323 323 334 338 336 335 334 336 334 344 344
316 317 317 318 320 321 313 314 315 315 311 317 320 322 323 322 322 322 319 319 321 319 318 319 321 321 321 320 321 322 324 323 323 321 319 320 320 324 323 332 336 330 334 324 329 333 338
319 316 316 315 319 320 318 313 315 313 313 315 318 317 322 321 320 314 317 318 320 319 319 319 318 318 320 319 321 322 323 323 323 322 321 319 317 322 325 321 320 323 322 319 327 326 326
321 320 318 315 318 320 321 313 314 313 317 311 316 318 321 322 318 315 314 316 319 318 316 318 317 318 318 320 322 322 321 323 322 321 320 319 320 326 325 323 320 325 325 319 312 314 319
322 320 320 318 315 321 321 319 313 314 316 313 317 316 324 322 319 315 316 317 318 318 316 315 314 313 314 317 318 320 318 321 320 324 320 320 320 323 325 324 321 326 326 322 318 318 318
323 321 321 320 317 318 321 321 313 315 314 316 319 318 322 322 321 319 316 315 318 317 315 315 314 315 314 321 320 320 319 314 318 320 321 314 321 321 324 325 323 326 334 337 338 335 326
322 323 322 320 320 318 321 321 319 314 313 322 324 326 326 325 323 320 313 316 316 316 315 315 314 315 317 319 318 319 318 315 317 319 320 317 320 322 322 324 331 337 335 335 340 341 340
323 323 323 321 320 318 320 321 321 313 314 315 318 322 325 324 321 320 321 322 316 317 317 316 314 315 316 317 317 316 318 318 319 320 319 319 320 321 320 321 328 329 332 337 337 337 336
322 323 323 322 316 320 319 321 321 316 314 311 310 318 325 322 323 323 323 323 318 316 317 316 314 313 315 317 320 322 321 320 320 318 317 317 317 317 322 321 329 327 328 334 336 336 333
322 319 321 320 316 320 320 321 321 318 313 315 309 312 324 323 323 323 322 319 317 316 316 315 316 318 317 317 311 316 316 319 320 319 317 314 315 319 321 321 324 329 329 331 333 337 333
318 316 318 316 315 317 320 320 321 318 315 314 311 316 321 324 320 324 324 322 315 316 319 320 318 318 318 311 314 318 317 322 323 321 315 315 313 318 321 324 330 326 326 326 328 335 333
316 316 315 315 317 317 320 321 321 316 315 314 313 316 316 322 324 324 322 321 316 316 317 317 319 320 317 310 315 318 320 321 321 322 319 316 316 320 321 323 323 323 325 326 333 329 332
315 316 317 317 318 317 319 320 320 316 315 315 314 313 312 319 323 324 323 321 320 318 316 317 318 318 314 315 314 318 319 319 319 317 319 316 318 318 319 324 324 323 325 327 323 328 332
314 316 318 319 317 318 319 321 320 316 316 316 314 313 314 317 320 322 322 322 322 320 318 318 318 319 318 314 313 315 320 316 315 319 316 318 315 317 317 319 318 322 323 325 327 330 333

GFSGBSN_850_thetae_123.txt.gz
Theta_e
320 319 319 320 321 321 320 314 311 311 311 311 311 312 312 312 311 310 312 313 314 314 315 313 312 311 310 314 318 322 322 316 316 317 326 337 342 340 343 343 348 349 347 346 345 346 347
320 321 320 319 318 318 320 320 317 312 310 311 312 312 312 312 312 310 311 314 315 316 316 314 314 313 311 318 324 323 317 314 316 316 323 339 341 340 333 340 349 346 346 345 345 346 346
316 316 318 319 320 318 317 317 316 312 310 310 311 311 312 312 312 310 311 314 316 318 317 317 316 316 314 320 325 325 321 317 316 316 320 337 337 330 327 348 348 346 348 346 346 346 346
314 314 314 315 319 319 319 316 311 310 310 310 310 310 311 311 311 310 313 316 319 321 321 320 320 318 316 321 324 324 325 322 317 317 317 329 338 328 333 346 346 347 345 353 343 345 345
314 315 315 315 318 319 318 318 312 310 310 309 309 309 310 310 310 311 315 317 320 322 321 321 322 320 321 321 320 321 323 315 316 315 316 318 323 325 344 345 346 348 349 350 347 342 346
315 315 316 317 317 318 317 317 313 310 309 310 312 312 311 309 311 316 318 319 320 321 320 321 321 321 321 322 321 321 322 315 314 315 317 320 320 325 334 338 344 347 350 346 347 343 346
315 314 316 316 317 317 317 317 313 311 310 312 313 311 309 309 315 318 319 319 319 319 320 320 320 320 321 322 319 319 322 322 316 317 322 320 328 330 327 331 330 339 348 346 343 342 345
315 315 313 313 315 316 316 317 314 312 310 312 313 310 308 312 317 319 319 319 319 319 319 321 322 321 321 321 320 320 323 322 321 322 322 326 330 326 323 325 338 344 349 349 347 343 345
314 315 315 315 312 313 315 316 316 313 310 313 313 309 310 315 318 319 319 319 320 319 319 320 321 322 321 321 321 321 321 322 323 323 324 331 325 322 326 331 341 345 346 348 349 347 345
317 315 314 314 315 313 312 315 317 314 310 314 313 309 312 316 319 318 319 320 322 320 324 324 321 322 322 319 320 321 322 321 321 324 323 325 321 328 332 332 341 343 342 345 347 349 352
320 318 316 314 314 314 314 313 317 315 311 314 315 310 316 319 318 318 319 321 322 320 324 325 324 320 320 320 320 320 320 320 323 322 323 325 320 328 332 331 341 343 343 345 344 346 348
319 319 321 316 315 314 314 313 315 315 311 315 317 312 315 319 319 318 319 320 320 324 325 325 324 320 322 320 321 320 321 321 319 321 321 322 319 321 325 338 340 342 343 343 343 345 350
318 317 318 321 319 314 314 315 312 316 311 315 317 318 315 319 316 318 319 322 324 324 323 324 323 320 321 323 322 322 322 323 322 323 323 322 322 334 333 338 342 341 344 348 350 350 350
316 316 316 317 320 320 313 314 313 316 312 315 317 320 319 316 318 319 320 322 324 322 323 321 322 322 325 323 322 321 322 323 321 321 323 323 330 338 339 336 339 340 335 341 347 350 347
317 315 314 314 317 319 318 313 315 315 312 315 319 319 318 318 319 320 322 322 322 321 319 322 323 325 325 323 323 323 322 322 322 321 324 324 326 336 338 340 339 341 339 337 340 341 342
321 320 317 314 315 318 320 314 314 314 313 317 320 320 321 321 321 322 324 323 325 321 318 322 324 323 325 324 325 326 326 325 324 321 319 324 327 328 339 339 336 340 338 343 341 344 342
322 321 320 319 314 317 319 320 313 314 314 317 320 322 322 322 322 322 326 324 323 321 318 322 323 323 323 324 324 325 326 325 324 323 322 323 326 328 337 341 341 340 341 336 335 338 340
322 322 321 321 320 314 319 320 315 314 316 314 319 324 321 321 323 316 324 322 320 320 319 320 320 321 324 323 326 326 326 325 323 323 323 322 325 329 328 325 323 332 336 338 338 336 336
322 322 322 321 321 319 317 320 320 313 315 312 315 318 321 322 325 324 320 319 320 320 319 320 320 321 321 324 326 325 324 322 321 323 323 323 327 331 330 328 326 330 329 325 323 325 332
322 322 322 323 321 321 317 319 321 313 314 313 317 322 323 321 318 321 321 320 320 316 317 315 316 318 319 323 322 323 323 321 319 325 319 323 326 330 329 330 327 330 334 329 325 328 329
322 322 322 323 323 320 320 318 321 316 314 316 318 320 322 327 325 324 321 318 320 319 316 315 318 317 320 324 323 323 321 320 320 322 324 322 327 326 326 327 326 336 339 341 338 339 330
323 323 322 322 323 321 319 319 320 320 313 317 322 326 325 325 323 324 314 318 319 318 318 318 319 319 320 322 323 323 321 320 321 323 326 324 327 327 325 326 328 335 334 335 342 341 341
324 323 322 322 322 322 317 319 320 321 313 311 315 320 324 325 324 324 324 324 319 318 317 316 318 319 319 319 319 316 318 319 321 324 326 327 327 328 326 325 329 332 332 332 338 340 341
324 322 322 318 318 321 316 320 320 321 317 314 310 313 324 327 325 326 324 324 324 321 320 316 316 318 316 317 320 321 321 322 323 322 320 326 327 327 325 327 329 330 331 335 336 338 336
323 321 318 316 317 317 316 317 320 321 318 314 314 309 321 329 325 325 324 323 318 316 317 316 315 316 317 317 320 323 324 325 324 322 324 322 325 327 326 326 326 330 333 337 336 338 337
322 318 316 316 315 315 316 317 320 321 318 315 314 311 314 324 325 324 325 324 319 320 321 319 316 316 317 318 321 325 324 326 326 325 319 323 324 326 329 330 326 329 328 329 331 337 336
318 316 315 315 316 317 317 316 320 321 318 315 314 314 315 319 324 324 325 322 316 318 323 319 319 316 315 320 322 324 327 325 327 326 323 324 326 327 328 329 328 325 327 328 335 332 335
314 313 314 315 317 318 317 317 319 320 318 315 315 312 311 313 319 321 323 322 320 318 323 318 321 321 320 323 322 325 328 329 327 324 325 326 327 328 328 330 327 326 327 332 330 329 333
310 313 315 317 318 317 317 317 319 319 316 315 315 313 312 312 315 319 320 321 322 322 322 316 321 321 321 323 322 325 327 324 327 325 321 326 323 326 326 326 324 325 326 326 325 331 333